[[{"header":{"parameterUnit":"m.s-1","parameterCategory":1,"la1":30.6,"la2":29.2853,"lo1":-89.7004,"lo2":-87.6739,"dy":0.0162,"dx":0.0183,"nx":112,"ny":82,"refTime":"2024-06-11T18:00:00:Z","depth":0,"parameterNumber":2,"parameterNumberName":"U-component_of_WINDS"},"data":[0.0,0.0,0.0,0.0,0.0,0.0,0.0,0.0,0.0,0.0,0.0,0.0,0.0,0.0,0.0,0.0,0.0,0.0,0.0,0.0,0.0,0.0,0.0,0.0,0.0,0.0,0.0,0.0,0.0,0.0,0.0,0.0,0.0,0.0,0.0,0.0,0.0,0.0,0.0,0.0,0.0,0.0,0.0,0.0,0.0,0.0,0.0,0.0,0.0,0.0,0.0,0.0,0.0,0.0,0.0,0.0,0.0,0.0,0.0,0.0,0.0,0.0,0.0,0.0,0.0,0.0,0.0,0.0,0.0,0.0,0.0,0.0,0.0,0.0,0.0,0.0,0.0,0.0,0.0,0.0,0.0,0.0,0.0,0.0,0.0,0.0,0.0,0.0,0.0,0.0,1.3757,1.5868,1.8633,2.0701,2.1628,2.2061,2.1915,2.1071,0.0,0.0,0.0,0.0,0.0,0.0,0.0,0.0,0.0,0.0,0.0,0.0,0.0,0.0,0.0,0.0,0.0,0.0,0.0,0.0,0.0,0.0,0.0,0.0,0.0,0.0,0.0,0.0,0.0,0.0,0.0,0.0,0.0,0.0,0.0,0.0,0.0,0.0,0.0,0.0,0.0,0.0,0.0,0.0,0.0,0.0,0.0,0.0,0.0,0.0,0.0,0.0,0.0,0.0,0.0,0.0,0.0,0.0,0.0,0.0,0.0,0.0,0.0,0.0,0.0,0.0,0.0,0.0,0.0,0.0,0.0,0.0,0.0,0.0,0.0,0.0,0.0,0.0,0.0,0.0,0.0,0.0,0.0,0.0,0.0,0.0,0.0,0.0,0.0,0.0,0.0,0.0,0.0,0.0,0.0,0.0,0.0,0.0,0.0,0.0,0.0,0.0,0.0,0.0,1.4933,1.8418,2.0039,2.1244,2.2106,2.2254,2.1915,2.1071,0.0,0.0,0.0,0.0,0.0,0.0,0.0,0.0,0.0,0.0,0.0,0.0,0.0,0.0,0.0,0.0,0.0,0.0,0.0,0.0,0.0,0.0,0.0,0.0,0.0,0.0,0.0,0.0,0.0,0.0,0.0,0.0,0.0,0.0,0.0,0.0,0.0,0.0,0.0,0.0,0.0,0.0,0.0,0.0,0.0,0.0,0.0,0.0,0.0,0.0,0.0,0.0,0.0,0.0,0.0,0.0,0.0,0.0,0.0,0.0,0.0,0.0,0.0,0.0,0.0,0.0,0.0,0.0,0.0,0.0,0.0,0.0,0.0,0.0,0.0,0.0,0.0,0.0,0.0,0.0,0.0,0.0,0.0,0.0,0.0,0.0,0.0,0.0,0.0,0.0,0.0,0.0,0.0,0.0,0.0,0.0,0.0,0.0,0.0,0.0,0.0,0.0,0.0,1.5022,1.6928,1.9562,2.0734,2.1584,2.2237,2.231,2.1915,2.1071,2.0991,0.0,0.0,0.0,0.0,0.0,0.0,0.0,0.0,0.0,0.0,0.0,0.0,0.0,0.0,0.0,0.0,0.0,0.0,0.0,0.0,0.0,0.0,0.0,0.0,0.0,0.0,0.0,0.0,0.0,0.0,0.0,0.0,0.0,0.0,0.0,0.0,0.0,0.0,0.0,0.0,0.0,0.0,0.0,0.0,0.0,0.0,0.0,0.0,0.0,0.0,0.0,0.0,0.0,0.0,0.0,0.0,0.0,0.0,0.0,0.0,0.0,0.0,0.0,0.0,0.0,0.0,0.0,0.0,0.0,0.0,0.0,0.0,0.0,0.0,0.0,0.0,0.0,0.0,0.0,0.0,0.0,0.0,0.0,0.0,0.0,0.0,0.0,0.0,0.0,0.0,0.0,0.0,0.0,0.0,0.0,0.0,0.0,0.0,0.0,0.0,0.0,0.0,1.6532,1.8441,2.0039,2.1054,2.1807,2.2343,2.2349,2.1974,2.1165,2.1039,0.0,0.0,0.0,0.0,0.0,0.0,0.0,0.0,0.0,0.0,0.0,0.0,0.0,0.0,0.0,0.0,0.0,0.0,0.0,0.0,0.0,0.0,0.0,0.0,0.0,0.0,0.0,0.0,0.0,0.0,0.0,0.0,0.0,0.0,0.0,0.0,0.0,0.0,0.0,0.0,0.0,0.0,0.0,0.0,0.0,0.0,0.0,0.0,0.0,0.0,0.0,0.0,0.0,0.0,0.0,0.0,0.0,0.0,0.0,0.0,0.0,0.0,0.0,0.0,0.0,0.0,0.0,0.0,0.0,0.0,0.0,0.0,0.0,0.0,0.0,0.0,0.0,0.0,0.0,0.0,0.0,0.0,0.0,0.0,0.0,0.0,0.0,0.0,0.0,0.0,0.0,0.0,0.0,0.0,0.0,0.0,0.0,0.0,0.0,0.0,0.0,0.0,1.6803,1.8441,2.0039,2.1054,2.189,2.2617,2.2436,2.2073,2.1513,2.118,0.0,0.0,0.0,0.0,0.0,0.0,0.0,0.0,0.0,0.0,0.0,0.0,0.0,0.0,0.0,0.0,0.0,0.0,0.0,0.0,0.0,0.0,0.0,0.0,0.0,0.0,0.0,0.0,0.0,0.0,0.0,0.0,0.0,0.0,0.0,0.0,0.0,0.0,0.0,0.0,0.0,0.0,0.0,0.0,0.0,0.0,0.0,0.0,0.0,0.0,0.0,0.0,0.0,0.0,0.0,0.0,0.0,0.0,0.0,0.0,0.0,0.0,0.0,0.0,0.0,0.0,0.0,0.0,0.0,0.0,0.0,0.0,0.0,0.0,0.0,0.0,0.0,0.0,0.0,0.0,0.0,0.0,0.0,0.0,0.0,0.0,0.0,0.0,0.0,0.0,0.0,0.0,0.0,0.0,0.0,0.0,0.0,0.0,0.0,0.0,0.0,0.0,1.8142,1.9667,2.0602,2.1648,2.2341,2.2436,2.25,2.2175,2.1258,0.0,0.0,0.0,0.0,0.0,0.0,0.0,0.0,0.0,0.0,0.0,0.0,0.0,0.0,0.0,0.0,0.0,0.0,0.0,0.0,0.0,0.0,0.0,0.0,0.0,0.0,0.0,0.0,0.0,0.0,0.0,0.0,0.0,0.0,0.0,0.0,0.0,0.0,0.0,0.0,0.0,0.0,0.0,0.0,0.0,0.0,0.0,0.0,0.0,0.0,0.0,0.0,0.0,0.0,0.0,0.0,0.0,0.0,0.0,0.0,0.0,0.0,0.0,0.0,0.0,0.0,0.0,0.0,0.0,0.0,0.0,0.0,0.0,0.0,0.0,0.0,0.0,0.0,0.0,0.0,0.0,0.0,0.0,0.0,0.0,0.0,0.0,0.0,0.0,0.0,0.0,0.0,0.0,0.0,0.0,0.0,0.0,0.0,0.0,0.0,0.0,0.0,1.7222,1.9024,2.0456,2.1102,2.2113,2.2522,2.2112,2.2461,2.216,2.0872,0.0,0.0,0.0,0.0,0.0,0.0,0.0,0.0,0.0,0.0,0.0,0.0,0.0,0.0,0.0,0.0,0.0,0.0,0.0,0.0,0.0,0.0,0.0,0.0,0.0,0.0,0.0,0.0,0.0,0.0,0.0,0.0,0.0,0.0,0.0,0.0,0.0,0.0,0.0,0.0,0.0,0.0,0.0,0.0,0.0,0.0,0.0,0.0,0.0,0.0,0.0,0.0,0.0,0.0,0.0,0.0,0.0,0.0,0.0,0.0,0.0,0.0,0.0,0.0,0.0,0.0,0.0,0.0,0.0,0.0,0.0,0.0,0.0,0.0,0.0,0.0,0.0,0.0,0.0,0.0,0.0,0.0,0.0,0.0,0.0,0.0,0.0,0.0,0.0,0.0,0.0,0.0,0.0,0.0,0.0,0.0,0.0,0.0,0.0,0.0,0.0,0.0,1.7607,1.9197,2.0555,2.1521,2.2269,2.2426,2.1663,2.2287,2.2029,0.0,0.0,0.0,0.0,0.0,0.0,0.0,0.0,0.0,0.0,0.0,0.0,0.0,0.0,0.0,0.0,0.0,0.0,0.0,0.0,0.0,0.0,0.0,0.0,0.0,0.0,0.0,0.0,0.0,0.0,0.0,0.0,0.0,0.0,0.0,0.0,0.0,0.0,0.0,0.0,0.0,0.0,0.0,0.0,0.0,0.0,0.0,0.0,0.0,0.0,0.0,0.0,0.0,0.0,0.0,0.0,0.0,0.0,0.0,0.0,0.0,0.0,0.0,0.0,0.0,0.0,0.0,0.0,0.0,0.0,0.0,0.0,0.0,0.0,0.0,0.0,0.0,0.0,0.0,0.0,0.0,0.0,0.0,0.0,0.0,0.0,0.0,0.0,0.0,0.0,0.0,0.0,0.0,0.0,0.0,0.0,0.0,0.0,0.0,0.0,0.0,0.0,0.0,1.8289,1.9847,2.1054,2.1886,2.2609,2.2656,2.1687,2.2485,2.2186,2.0162,0.0,0.0,0.0,0.0,0.0,0.0,0.0,0.0,0.0,0.0,0.0,0.0,0.0,0.0,0.0,0.0,0.0,0.0,0.0,0.0,0.0,0.0,0.0,0.0,0.0,0.0,0.0,0.0,0.0,0.0,0.0,0.0,0.0,0.0,0.0,0.0,0.0,0.0,0.0,0.0,0.0,0.0,0.0,0.0,0.0,0.0,0.0,0.0,0.0,0.0,0.0,0.0,0.0,0.0,0.0,0.0,0.0,0.0,0.0,0.0,0.0,0.0,0.0,0.0,0.0,0.0,0.0,0.0,0.0,0.0,0.0,0.0,0.0,0.0,0.0,0.0,0.0,0.0,0.0,0.0,0.0,0.0,0.0,0.0,0.0,0.0,0.0,0.0,0.0,0.0,0.0,0.0,0.0,0.0,0.0,0.0,0.0,0.0,0.0,0.0,0.0,0.0,1.8795,2.0203,2.129,2.2108,2.2494,2.2242,2.1059,2.203,2.1806,1.9613,0.0,0.0,0.0,0.0,0.0,0.0,0.0,0.0,0.0,0.0,0.0,0.0,0.0,0.0,0.0,0.0,0.0,0.0,0.0,0.0,0.0,0.0,0.0,0.0,0.0,0.0,0.0,0.0,0.0,0.0,0.0,0.0,0.0,0.0,0.0,0.0,0.0,0.0,0.0,0.0,0.0,0.0,0.0,0.0,0.0,0.0,0.0,0.0,0.0,0.0,0.0,0.0,0.0,0.0,0.0,0.0,0.0,0.0,0.0,0.0,0.0,0.0,0.0,0.0,0.0,0.0,0.0,0.0,0.0,0.0,0.0,0.0,0.0,0.0,0.0,0.0,0.0,0.0,0.0,0.0,0.0,0.0,0.0,0.0,0.0,0.0,0.0,0.0,0.0,0.0,0.0,0.0,0.0,0.0,0.0,0.0,0.0,0.0,0.0,0.0,0.0,0.0,1.914,2.0356,2.1337,2.2164,2.2094,2.1429,2.0051,2.1144,2.1004,1.8876,0.0,0.0,0.0,0.0,0.0,0.0,0.0,0.0,0.0,0.0,0.0,0.0,0.0,0.0,0.0,0.0,0.0,0.0,0.0,0.0,0.0,0.0,0.0,0.0,0.0,0.0,0.0,0.0,0.0,0.0,0.0,0.0,0.0,0.0,0.0,0.0,0.0,0.0,0.0,0.0,0.0,0.0,0.0,0.0,0.0,0.0,0.0,0.0,0.0,0.0,0.0,0.0,0.0,0.0,0.0,0.0,0.0,0.0,0.0,0.0,0.4009,0.6801,0.0,0.0,0.0,0.0,0.0,0.0,0.0,0.0,0.0,0.0,0.0,0.0,0.0,0.0,0.0,0.0,0.0,0.0,0.0,0.0,0.0,0.0,0.0,0.0,0.0,0.0,0.0,0.0,0.0,0.0,0.0,0.0,0.0,0.0,0.0,0.0,0.0,0.0,0.0,0.0,1.9191,2.0356,2.1185,2.1696,2.1908,2.1334,1.9658,2.0521,2.0345,1.8506,1.8877,0.0,0.0,0.0,0.0,0.0,0.0,0.0,0.0,0.0,0.0,0.0,0.0,0.0,0.0,0.0,0.0,0.0,0.0,0.0,0.0,0.0,0.0,0.0,0.0,0.0,0.0,0.0,0.0,0.0,0.0,0.0,0.0,0.0,0.0,0.0,0.0,0.0,0.0,0.0,0.0,0.0,0.0,0.0,0.0,0.0,0.0,0.0,0.0,0.0,0.0,0.0,0.0,0.0,0.0,0.0,0.0,0.0,0.0,0.0,-0.0689,0.2238,0.0,0.0,0.0,0.0,0.0,0.0,0.0,0.0,0.0,0.0,0.0,0.0,0.0,0.0,0.0,0.0,0.0,0.0,0.0,0.0,0.0,0.0,0.0,0.0,0.0,0.0,0.0,0.0,0.0,0.0,0.0,0.0,0.0,0.0,0.0,0.0,0.0,0.0,0.0,0.0,1.9191,2.0356,2.1252,2.1873,2.1627,2.0933,1.9797,2.0088,1.9742,1.8374,1.8383,0.0,0.0,0.0,0.0,0.0,0.0,0.0,0.0,0.0,0.0,0.0,0.0,0.0,0.0,0.0,0.0,0.0,0.0,0.0,0.0,0.0,0.0,0.0,0.0,0.0,0.0,0.0,0.0,0.0,0.0,0.0,0.0,0.0,0.0,0.0,0.0,0.0,0.0,0.0,0.0,0.0,0.0,0.0,0.0,0.0,0.0,0.0,0.0,0.0,0.0,0.0,0.0,0.0,-0.8727,-0.8487,-0.7887,-0.7638,-0.7892,-0.8265,-0.4956,-0.2609,-0.0913,0.1799,0.0,0.0,0.0,0.0,0.0,0.0,0.0,0.0,0.0,0.0,0.0,0.0,0.0,0.0,0.0,0.0,0.0,0.0,0.0,0.0,0.0,0.0,1.0474,1.1023,1.1422,1.2043,1.3395,0.0,0.0,0.0,0.0,0.0,0.0,0.0,0.0,0.0,0.0,0.0,1.9133,2.0289,2.1243,2.1922,2.134,2.0622,1.9866,1.9698,1.9208,1.8261,1.7902,1.7754,0.0,0.0,0.0,0.0,0.0,0.0,0.0,0.0,0.0,0.0,0.0,0.0,0.0,0.0,0.0,0.0,0.0,0.0,0.0,0.0,0.0,0.0,0.0,0.0,0.0,0.0,0.0,0.0,0.0,0.0,0.0,0.0,-0.8765,-0.7762,0.0,0.0,0.0,0.0,0.0,0.0,0.0,0.0,0.0,0.0,0.0,0.0,0.0,-0.8457,-0.861,-0.861,-0.861,-0.861,-0.9266,-0.9505,-0.9382,-0.935,-0.9388,-0.9446,-0.8953,0.0,-0.4975,-0.2832,0.0,0.0,0.0,0.0,0.0,0.0,0.0,0.0,0.0,0.0,0.0,0.0,0.0,0.0,0.0,0.0,0.0,0.0,0.0,0.0,0.0,0.0,0.8589,0.9001,0.9289,0.9547,0.9627,1.1752,1.3446,1.2886,1.3315,1.3461,0.0,0.0,0.0,0.0,0.0,0.0,1.8815,2.01,2.0939,2.0768,2.113,2.0766,1.9171,1.923,1.8947,1.7935,1.7289,1.7205,1.7784,1.7074,0.0,0.0,0.0,0.0,0.0,0.0,0.0,0.0,0.0,0.0,0.0,0.0,0.0,0.0,0.0,0.0,0.0,0.0,0.0,0.0,0.0,0.0,0.0,0.0,0.0,0.0,0.0,0.0,0.0,-1.0436,-1.0853,-0.9716,-0.8731,-0.7632,0.0,0.0,0.0,0.0,0.0,0.0,0.0,0.0,0.0,-0.9726,-0.9063,-0.8835,-0.8989,-0.8488,-0.8234,-0.8296,-0.8606,-0.8736,-0.873,-0.8526,-0.8463,-0.8463,-0.8463,-0.7827,-0.6735,-0.583,-0.4617,-0.3198,0.0,0.0,0.0,0.0,-0.0118,0.0,0.0491,0.1712,0.3258,0.3989,0.0,0.0,0.0,0.0,0.0,0.0,0.0,0.6303,0.6721,0.7203,0.7576,0.7756,0.8027,0.8192,0.8151,0.9301,1.0578,1.1223,1.1873,1.2304,1.2281,1.357,0.0,0.0,0.0,1.8274,1.8754,2.0081,2.1037,2.1108,2.1339,2.0958,1.9646,1.9216,1.8591,1.7582,1.6876,1.6749,1.721,1.7107,1.7031,0.0,0.0,0.0,0.0,0.0,0.0,0.0,0.0,0.0,0.0,0.0,0.0,0.0,0.0,0.0,0.0,0.0,0.0,0.0,0.0,0.0,0.0,0.0,0.0,0.0,0.0,0.0,0.0,-1.2255,-1.2193,-1.1164,-1.0258,-0.9267,0.0,0.0,0.0,0.0,0.0,0.0,-0.9178,-0.924,-0.937,-0.9569,-0.8995,-0.8796,-0.9062,-0.8393,-0.8129,-0.8129,-0.8073,-0.8048,-0.8038,-0.7751,-0.7651,-0.7651,-0.7651,-0.7651,-0.7636,-0.7384,-0.6917,-0.6267,-0.4867,-0.4238,-0.4154,-0.3527,-0.2977,-0.2422,-0.1854,-0.0448,0.1205,0.1794,0.3003,0.4233,0.4268,0.0,0.0,0.0,0.0,0.5605,0.575,0.6214,0.6655,0.6551,0.678,0.6944,0.6889,0.7295,0.8164,0.9788,1.059,1.1225,1.2146,1.3522,0.0,1.4827,1.6824,1.8377,1.8608,1.9908,2.0991,2.1399,2.1389,2.1042,2.0193,1.9486,1.8617,1.7502,1.6886,1.6581,1.6675,1.7005,1.6938,1.6393,0.0,0.0,0.0,0.0,0.0,0.0,0.0,0.0,0.0,0.0,0.0,0.0,0.0,0.0,0.0,0.0,0.0,0.0,0.0,0.0,0.0,0.0,0.0,0.0,0.0,0.0,0.0,0.0,0.0,-1.2689,-1.1456,0.0,0.0,0.0,0.0,-0.767,-0.7862,-0.8016,-0.7812,-0.7991,-0.8105,-0.812,-0.8314,-0.8429,-0.8439,-0.8369,-0.8369,-0.8369,-0.824,-0.8213,-0.8208,-0.8048,-0.7947,-0.7947,-0.7947,-0.7947,-0.7941,-0.7084,-0.6587,-0.6308,-0.5431,-0.4971,-0.487,-0.4942,-0.4928,-0.469,-0.3173,-0.2558,-0.1993,0.0529,0.1904,0.2759,0.3582,0.3763,0.0,0.0,0.5118,0.5118,0.5118,0.5291,0.5397,0.5109,0.5265,0.5439,0.529,0.6012,0.7302,0.9035,0.9971,1.0925,1.2188,0.0,1.549,1.5322,1.7308,1.8659,1.8214,1.9426,2.0516,2.0991,2.1023,2.0873,2.0496,2.0081,1.9249,1.7876,1.7446,1.6967,1.6344,1.6718,1.6633,1.6033,1.5776,0.0,0.0,0.0,0.0,0.0,0.0,0.0,0.0,0.0,0.0,0.0,0.0,0.0,0.0,0.0,0.0,0.0,0.0,0.0,0.0,0.0,0.0,0.0,0.0,0.0,0.0,0.0,0.0,-1.2469,-1.1388,0.0,-0.8924,-0.8511,-0.82,-0.7861,-0.8122,-0.8255,-0.8181,-0.825,-0.829,-0.829,-0.7808,-0.7566,-0.7566,-0.7003,-0.6718,-0.6718,-0.6659,-0.6628,-0.6628,-0.6634,-0.6606,-0.6606,-0.6606,-0.6606,-0.6533,-0.626,-0.6634,-0.7333,-0.6492,-0.6069,-0.5965,-0.5452,-0.4879,-0.429,-0.3735,-0.2792,-0.152,0.0,0.1067,0.1782,0.211,0.2553,0.3191,0.414,0.4415,0.4549,0.5147,0.5321,0.5401,0.523,0.5284,0.5543,0.5994,0.6412,0.7242,0.8947,0.9945,1.0891,1.2177,1.4166,1.5553,1.5306,1.7346,1.87,1.8175,1.939,2.0348,2.0516,2.0829,2.075,2.0166,1.9782,1.9124,1.8124,1.7422,1.7033,1.7075,1.645,1.5409,1.3906,1.2142,1.0701,0.0,0.0,0.0,0.0,0.0,0.0,0.0,0.0,0.0,0.0,0.0,0.0,0.0,0.0,0.0,0.0,0.0,0.0,0.0,0.0,0.0,0.0,0.0,0.0,0.0,-1.1418,-1.1625,-1.1372,-1.0463,-0.9539,-0.8461,-0.7971,-0.7646,-0.7306,-0.7544,-0.7662,-0.7592,-0.7654,-0.7719,-0.7781,-0.7147,-0.6706,-0.6388,-0.5747,-0.5279,-0.4907,-0.4868,-0.4848,-0.4846,-0.4804,-0.4784,-0.4784,-0.4784,-0.4784,-0.4784,-0.4784,-0.531,-0.621,-0.6305,-0.6117,-0.5731,-0.515,-0.4553,-0.3882,-0.3278,-0.2144,-0.0739,0.0134,0.0806,0.141,0.21,0.2715,0.3394,0.4276,0.4549,0.4678,0.5239,0.5428,0.5428,0.5428,0.562,0.6009,0.6588,0.7177,0.8021,0.9442,1.0123,1.0926,1.233,1.4431,1.5838,1.5831,1.7581,1.8806,1.8398,1.9242,1.9954,2.028,2.0299,2.0162,1.9825,1.9265,1.854,1.7577,1.6747,1.6154,1.5728,1.4525,1.2928,1.0884,0.8665,0.6672,0.4865,0.0,0.0,0.0,0.0,0.0,0.0,0.0,0.0,0.0,0.0,0.0,0.0,0.0,0.0,0.0,0.0,0.0,0.0,0.0,0.0,0.0,0.0,0.0,-0.9425,-0.9558,-0.9558,-0.9569,-0.8904,-0.808,-0.7237,-0.7183,-0.6849,-0.583,-0.6023,-0.6126,-0.5907,-0.611,-0.6254,-0.6474,-0.6267,-0.5786,-0.4942,-0.4749,-0.4144,-0.3125,-0.2978,-0.2871,-0.2868,-0.2796,-0.2693,-0.2693,-0.2693,-0.2693,-0.2693,-0.2693,-0.269,-0.2827,-0.4798,-0.4875,-0.3954,-0.3949,-0.3949,-0.368,-0.1874,-0.0672,0.0202,0.1074,0.134,0.1751,0.3599,0.4186,0.4466,0.5385,0.5593,0.5555,0.5406,0.5432,0.5428,0.5428,0.6141,0.6719,0.6785,0.8091,0.9518,1.0368,1.0551,1.1114,1.2749,1.4954,1.6509,1.6749,1.8081,0.0,1.8877,1.8891,1.9229,2.0143,1.9419,1.9066,1.9498,1.8608,1.7514,1.6245,1.5484,1.422,1.2197,1.092,0.9205,0.7013,0.5557,0.383,0.1839,0.0,0.0,0.0,0.0,0.0,0.0,0.0,0.0,0.0,0.0,0.0,0.0,0.0,0.0,0.0,0.0,0.0,0.0,0.0,0.0,0.0,-0.5895,-0.7092,-0.8784,-0.9052,-0.9119,-0.9374,-0.8637,-0.799,-0.7639,-0.6346,-0.5396,-0.504,-0.4374,-0.3945,-0.3906,-0.3949,-0.4376,-0.5306,-0.4454,-0.4287,-0.4899,-0.3974,-0.3365,-0.3124,-0.3052,-0.3018,-0.3016,-0.2996,-0.2986,-0.2986,-0.2986,-0.2986,-0.2986,-0.2986,-0.2578,-0.2009,-0.3055,-0.3332,-0.3027,-0.3034,-0.2609,-0.1808,0.0,0.0737,0.1074,0.2009,0.2743,0.3364,0.4013,0.4677,0.5259,0.5641,0.5671,0.5579,0.5538,0.5974,0.633,0.633,0.6981,0.7827,0.842,0.8947,0.9709,1.1135,1.1943,1.2618,1.3666,1.5736,1.717,1.6866,1.84,1.9298,1.8502,1.87,1.8857,1.8703,1.8468,1.8366,1.8507,1.7397,1.6332,1.5438,1.4003,1.2423,1.0813,0.9612,0.6784,0.2012,-0.0053,-0.1841,0.0,0.0,0.0,0.0,0.0,0.0,0.0,0.0,0.0,0.0,0.0,0.0,0.0,0.0,0.0,0.0,0.0,0.0,0.0,0.0,0.0,0.0,-0.4245,-0.5102,-0.6271,-0.6409,-0.6447,-0.6699,-0.6234,-0.5935,-0.586,-0.4774,-0.408,-0.4026,-0.3447,-0.3138,-0.3096,-0.306,-0.3485,-0.4244,-0.3535,-0.3281,-0.3567,-0.2824,-0.2208,-0.1783,-0.1839,-0.1817,-0.18,-0.18,-0.18,-0.18,-0.18,-0.1563,-0.1093,-0.1093,-0.0542,0.0152,0.0,0.0,0.0,0.0,-0.0743,0.0535,0.154,0.1876,0.2009,0.2945,0.3643,0.4178,0.4714,0.529,0.5789,0.5874,0.6076,0.622,0.6149,0.6668,0.7242,0.7242,0.7897,0.8678,0.921,0.9837,1.0773,1.2074,1.294,0.0,1.4569,1.6327,1.7477,1.7198,1.843,1.9257,1.8608,1.8558,1.8493,1.8135,1.7679,1.7395,1.7395,1.5727,0.0,0.0,0.0,0.9138,0.6492,0.4844,0.0,0.0,0.0,0.0,0.0,-0.4842,0.0,0.0,-0.2397,-0.2926,0.0,0.0,0.0,0.0,0.0,0.0,0.0,0.0,0.0,0.0,0.0,0.0,0.0,0.0,0.0,0.0,-0.2864,-0.2862,-0.2785,-0.2786,-0.2864,-0.3101,-0.3106,-0.3107,-0.3099,-0.3028,-0.295,-0.2943,-0.2859,-0.2778,-0.2785,-0.2779,0.0,0.0,0.0,-0.2472,-0.1827,-0.1532,-0.0834,0.0164,0.0163,0.0241,0.0394,0.0393,0.0314,0.0314,0.0314,0.0862,0.1802,0.1802,0.2268,0.2725,-0.0836,-0.1633,-0.0724,0.0071,0.1375,0.2758,0.2825,0.0,0.0,0.3882,0.423,0.4557,0.5538,0.5981,0.6179,0.6197,0.6745,0.7279,0.7155,0.7631,0.8187,0.8161,0.8812,0.9466,0.9466,1.071,1.202,1.2826,1.3674,1.4451,1.5235,1.6528,1.7468,1.7468,1.8346,1.8894,1.8776,1.8345,1.8021,1.7801,1.6841,0.0,1.6108,1.3836,1.1764,1.036,0.8069,0.5055,0.1156,-0.1049,-0.2879,-0.4265,-0.434,-0.4673,-0.5269,-0.4581,-0.4329,-0.4397,-0.4632,-0.4287,0.0,0.0,0.0,0.0,0.0,0.0,0.0,0.0,0.0,0.0,0.0,0.0,0.0,0.0,0.0,-0.1735,-0.1778,-0.156,-0.0707,-0.0621,-0.1224,-0.286,-0.3233,-0.3246,-0.3104,-0.2423,-0.2018,-0.1897,-0.1122,-0.0609,-0.062,-0.0611,-0.1046,-0.2044,-0.1154,-0.0976,-0.1779,-0.0785,0.0258,0.1455,0.1322,0.0,0.2653,0.2523,0.25,0.25,0.25,0.2656,0.2813,0.2813,0.289,0.3037,0.2205,0.2078,0.2249,0.2453,0.2621,0.2977,0.3668,0.382,0.3882,0.4821,0.519,0.5405,0.5688,0.6485,0.0,0.7382,0.8035,0.863,0.8338,0.8806,0.9323,0.9121,0.9722,1.0364,1.0364,1.1101,1.202,1.2826,1.3674,1.4451,1.5235,1.614,1.6708,1.6708,1.7881,1.8382,1.7375,1.7373,1.7038,1.5951,1.5372,1.4801,1.4253,1.2301,1.02,0.8235,0.4499,0.1713,0.0278,-0.1334,-0.2615,-0.3561,-0.3566,-0.3622,-0.3785,-0.3033,-0.2679,-0.2695,-0.4042,-0.4277,0.0,0.0,0.0,0.0,0.0,0.0,0.0,0.0,0.0,0.0,0.0,-0.1886,-0.1433,0.0,-0.1264,-0.0768,-0.0696,-0.062,-0.009,0.0,-0.0356,-0.1393,-0.1577,-0.158,-0.1563,-0.0619,-0.0178,-0.0795,0.0793,0.1506,0.0896,0.1507,0.1503,0.0892,0.152,0.152,0.0893,0.1504,0.2102,0.2685,0.2628,0.2917,0.3458,0.3417,0.3297,0.3261,0.3261,0.3474,0.3904,0.4453,0.4688,0.4683,0.4706,0.4312,0.3771,0.3771,0.4,0.4401,0.4766,0.4843,0.4857,0.5338,0.5576,0.5725,0.5871,0.6756,0.766,0.7757,0.8606,0.9477,0.9281,0.9676,1.0147,1.0015,1.0301,1.0624,1.0624,1.1538,1.2512,1.2948,1.3965,1.4932,1.5352,1.57,1.6093,1.6436,1.7413,1.7821,1.6908,1.694,1.6608,1.5445,1.4559,1.3659,1.2801,0.9517,0.6733,0.4942,0.1819,-0.0167,-0.0557,-0.1616,-0.2397,-0.2788,-0.2788,-0.2753,-0.2801,-0.2383,-0.2264,-0.2397,-0.3195,-0.3406,0.0,0.0,0.0,0.0,0.0,0.0,0.0,-0.2601,-0.2247,-0.1539,-0.1231,-0.083,-0.017,0.0174,0.0353,0.0354,0.0627,0.0722,0.0722,0.072,0.0718,0.0718,0.0269,0.0,0.0,0.1076,0.1433,0.0449,0.2325,0.3215,0.2236,0.3037,0.357,0.357,0.357,0.357,0.357,0.357,0.3719,0.3921,0.3903,0.4032,0.4216,0.4197,0.4146,0.4072,0.4055,0.4391,0.5079,0.5944,0.6338,0.6338,0.6338,0.5717,0.4852,0.4852,0.53,0.583,0.5715,0.5654,0.57,0.5835,0.6008,0.6154,0.6504,0.7405,0.8385,0.8385,0.9322,1.0359,1.0251,1.0508,1.0833,1.0665,1.0665,1.0628,1.0631,1.1849,1.3009,1.3009,1.4332,1.541,1.541,1.541,1.5584,1.6208,1.6922,1.7159,1.6602,1.6471,1.6049,1.5078,1.375,1.2429,1.1005,0.6838,0.3687,0.2284,0.039,-0.0782,-0.1062,-0.1675,-0.2069,-0.2196,-0.2085,-0.2004,-0.2012,-0.1847,-0.1839,-0.1994,-0.2006,-0.2075,-0.403,-0.3391,-0.2872,-0.3027,-0.2848,-0.2737,0.0,-0.2251,-0.146,-0.1579,-0.085,-0.0087,0.0,0.0996,0.1754,0.1786,0.2693,0.3397,0.3397,0.3253,0.3213,0.3213,0.1344,0.0,0.0,0.1076,0.1701,0.1612,0.2858,0.357,0.3392,0.357,0.357,0.357,0.357,0.357,0.357,0.357,0.4101,0.5161,0.506,0.5529,0.6554,0.6425,0.6357,0.6334,0.6202,0.6149,0.6103,0.6261,0.6338,0.6338,0.6338,0.6247,0.6079,0.6079,0.6059,0.6,0.5986,0.5891,0.5919,0.6832,0.7165,0.7465,0.8441,0.9553,1.0484,1.0484,1.1199,1.1933,1.1348,1.15,1.153,1.0813,1.0755,1.0875,1.0678,1.1849,1.3009,1.3009,1.4332,1.541,1.541,1.541,1.541,1.5526,1.6151,1.6348,1.5621,1.5167,1.4658,1.3886,1.2455,1.059,0.8239,0.5815,0.3765,0.2286,0.134,0.0279,-0.1062,-0.1174,-0.1528,-0.2214,-0.1575,-0.1246,-0.1225,-0.0567,-0.0257,-0.0258,-0.0265,-0.0669,-0.332,-0.2548,-0.1911,-0.1952,-0.1527,-0.1173,-0.1311,-0.0331,0.0501,0.0432,0.1329,0.2254,0.2183,0.2778,0.32,0.3132,0.3548,0.3776,0.3776,0.3709,0.357,0.357,0.2801,0.2186,0.2186,0.264,0.3018,0.3056,0.476,0.5572,0.4899,0.5486,0.5847,0.592,0.5923,0.5888,0.5817,0.5814,0.5961,0.6425,0.628,0.6521,0.7051,0.6987,0.6912,0.682,0.6576,0.6437,0.6376,0.6295,0.6338,0.6338,0.6338,0.6641,0.7099,0.649,0.622,0.6225,0.6723,0.6861,0.6944,0.8024,0.8374,0.8543,0.904,0.9963,1.0783,1.0783,1.1426,1.1997,1.175,1.165,1.1516,1.1149,1.1029,1.0962,1.0835,1.1977,1.3009,1.3009,1.4332,1.541,1.541,1.4991,1.4874,1.5352,1.5633,1.5575,1.4805,1.452,1.3811,1.2183,1.0476,0.8767,0.7176,0.5031,0.3337,0.2286,0.1507,0.0615,-0.0392,-0.0456,-0.058,-0.094,-0.0599,-0.043,-0.0443,0.0385,0.078,0.0792,0.1335,0.1407,-0.1895,-0.1026,-0.0076,-0.0076,0.0388,0.0879,0.0826,0.1595,0.222,0.2203,0.3063,0.3756,0.38,0.4229,0.4476,0.4526,0.4742,0.4866,0.4866,0.4782,0.472,0.472,0.4508,0.4465,0.4864,0.4564,0.439,0.4456,0.6368,0.7105,0.6349,0.7022,0.7485,0.7597,0.76,0.7546,0.7434,0.7434,0.7377,0.7265,0.7224,0.7204,0.7204,0.716,0.7061,0.6915,0.6695,0.6573,0.6525,0.6424,0.6359,0.6397,0.6627,0.7215,0.7783,0.733,0.7099,0.7234,0.7767,0.8018,0.8161,0.9191,0.9563,0.9669,0.9991,1.0645,1.1236,1.1236,1.1627,1.1971,1.1891,1.177,1.1623,1.1463,1.1323,1.1189,1.1029,1.2086,1.3001,1.272,1.4145,1.5235,1.4805,1.4451,1.4332,1.4688,1.4746,1.4628,1.4273,1.3786,1.2812,1.0871,0.9017,0.7622,0.6803,0.4901,0.3449,0.2657,0.2112,0.1493,0.0748,0.0765,0.0718,0.0723,0.074,0.0759,0.0717,0.1368,0.171,0.1675,0.2409,0.2678,0.0148,0.1505,0.2959,0.2947,0.3018,0.2992,0.2997,0.3103,0.3288,0.3293,0.3436,0.3619,0.3767,0.4836,0.5761,0.5884,0.6911,0.7697,0.7697,0.758,0.749,0.749,0.6444,0.6205,0.7588,0.6513,0.5779,0.5782,0.6926,0.7594,0.7503,0.7597,0.7594,0.76,0.76,0.7597,0.7594,0.7594,0.759,0.7584,0.7434,0.7363,0.736,0.721,0.7061,0.6929,0.6919,0.6831,0.6695,0.6688,0.66,0.6624,0.7569,0.7852,0.7936,0.8846,0.9221,0.9221,0.9216,0.921,0.9437,1.0398,1.0777,1.0926,1.1922,1.2224,1.2224,1.2224,1.2298,1.2225,1.1944,1.2071,1.2131,1.1563,1.1637,1.1683,1.1116,1.2258,1.3107,1.2018,1.3768,1.4874,1.3373,1.3726,1.3965,1.3191,1.307,1.3373,1.4085,1.2862,1.1399,1.0255,0.8568,0.7379,0.71,0.5596,0.4329,0.3627,0.3675,0.3371,0.2636,0.2638,0.2613,0.2621,0.2624,0.2599,0.2608,0.2674,0.2676,0.2678,0.2678,0.2678,0.1974,0.2561,0.3093,0.3117,0.3064,0.3109,0.3289,0.3936,0.4522,0.4655,0.5479,0.6156,0.633,0.6807,0.7215,0.7304,0.7615,0.7811,0.7811,0.7689,0.76,0.76,0.7295,0.727,0.7711,0.6699,0.6319,0.7189,0.7601,0.7784,0.7885,0.7794,0.7787,0.7889,0.7892,0.7841,0.774,0.774,0.7692,0.7597,0.7444,0.7319,0.7217,0.7955,0.7811,0.7061,0.7815,0.807,0.8006,0.7887,0.829,0.8944,0.9048,0.9501,1.0116,1.0251,1.072,1.1174,1.0496,1.0265,1.049,1.1471,1.1768,1.1848,1.2224,1.2305,1.2305,1.2305,1.2305,1.2278,1.2184,1.2231,1.2251,1.2051,1.1937,1.1817,1.1617,1.2114,1.2477,1.2116,1.3034,1.3666,1.307,1.2749,1.232,1.1538,1.1841,1.232,1.2565,1.1655,1.0746,1.0147,0.8604,0.7542,0.7262,0.5783,0.4537,0.3751,0.3787,0.3442,0.2705,0.2691,0.273,0.2691,0.268,0.2718,0.2678,0.328,0.3547,0.3547,0.4217,0.4532,0.3571,0.3891,0.4217,0.4217,0.4523,0.48,0.507,0.5967,0.6732,0.6644,0.7262,0.7894,0.7653,0.7675,0.7801,0.8007,0.7957,0.7892,0.7892,0.7814,0.7756,0.7756,0.7838,0.7892,0.7892,0.7202,0.7042,0.7932,0.7946,0.7936,0.8035,0.7946,0.7936,0.8035,0.8038,0.7991,0.7892,0.8376,0.8486,0.8422,0.8314,0.8147,0.7834,0.8633,0.8769,0.8352,0.9095,0.9383,0.9374,0.9237,0.9639,1.03,1.0396,1.0846,1.1378,1.1487,1.1921,1.237,1.1577,1.1316,1.1465,1.2077,1.2305,1.2305,1.2305,1.2305,1.2305,1.2305,1.2305,1.2305,1.2305,1.2305,1.2305,1.2305,1.2164,1.1997,1.1891,1.2246,1.2351,1.1855,1.2538,1.2911,1.2236,1.1814,1.1369,1.0985,1.1309,1.1596,1.138,1.0926,1.0551,1.0294,0.873,0.7619,0.7476,0.59,0.4745,0.4306,0.4353,0.4187,0.368,0.3677,0.3647,0.3647,0.3647,0.368,0.368,0.4217,0.4483,0.4486,0.509,0.5413,0.4878,0.5619,0.649,0.649,0.7176,0.7987,0.826,0.9157,0.9683,0.8915,0.8858,0.8662,0.7729,0.7604,0.7706,0.7991,0.8038,0.8038,0.8038,0.8038,0.8038,0.8038,0.8038,0.8038,0.8038,0.8038,0.8038,0.8137,0.8137,0.8137,0.8137,0.8137,0.8137,0.8237,0.8137,0.8137,0.8237,0.9509,1.0002,0.9905,0.9905,0.9609,0.9242,0.9242,0.9762,1.0611,1.0697,1.0697,1.0697,1.0697,1.0655,1.0705,1.1615,1.1887,1.189,1.2563,1.2835,1.2782,1.2425,1.2311,1.2305,1.2305,1.2305,1.2305,1.2305,1.2305,1.2305,1.2305,1.2305,1.2305,1.2305,1.2305,1.2305,1.2305,1.2305,1.2225,1.1951,1.2509,1.2673,1.1276,1.2238,1.2702,1.096,1.0835,1.1109,1.1383,1.1423,1.1229,1.0739,1.0658,1.0645,1.0645,0.8914,0.7757,0.7695,0.614,0.5142,0.5142,0.5281,0.5428,0.5428,0.5428,0.5428,0.5428,0.5428,0.5428,0.5428,0.5428,0.5428,0.5428,0.5428,0.5502,0.6801,0.7664,0.8542,0.8542,0.8689,0.9014,0.9378,0.9656,0.9727,0.9004,0.8962,0.8713,0.7747,0.7685,0.7821,0.8007,0.8038,0.8038,0.8038,0.8038,0.8038,0.8038,0.8038,0.8038,0.8038,0.8038,0.8432,0.941,0.9509,0.9509,0.9509,0.9509,0.9899,1.0872,0.9998,0.9899,1.0877,1.1263,1.1351,1.1233,1.1233,1.1003,1.0587,1.1473,1.1433,1.0611,1.1472,1.1901,1.1901,1.1901,1.2383,1.3174,1.3131,1.3179,1.3082,1.3121,1.2946,1.2808,1.2735,1.2485,1.2305,1.2305,1.2305,1.2305,1.2305,1.2305,1.2305,1.2305,1.2305,1.2305,1.2305,1.2305,1.2305,1.2305,1.2305,1.2278,1.2204,1.2161,1.2107,1.1747,1.1799,1.1748,1.1283,1.1269,1.1336,1.1416,1.1423,1.1369,1.1223,1.1015,1.0882,1.0882,0.9707,0.8648,0.8004,0.6905,0.6009,0.5367,0.5342,0.5428,0.5428,0.5428,0.5428,0.5428,0.5428,0.5428,0.5428,0.5428,0.5428,0.5428,0.6075,0.6538,0.8286,0.875,0.9296,0.9296,0.9753,1.0231,1.0594,1.1087,1.1189,0.9943,0.9734,0.9397,0.7847,0.7716,0.7862,0.8014,0.8038,0.8038,0.8038,0.8038,0.8038,0.8038,0.8038,0.8233,0.8821,0.8924,0.941,1.0779,1.0293,1.0194,1.0779,1.0877,1.1165,1.1853,1.1165,1.1458,1.2813,1.2818,1.2748,1.2707,1.2707,1.251,1.2144,1.267,1.2657,1.2331,1.282,1.3112,1.3112,1.3112,1.347,1.4075,1.3901,1.3841,1.3801,1.3507,1.3293,1.31,1.2916,1.2726,1.2679,1.2538,1.2498,1.2498,1.2498,1.2498,1.2472,1.2338,1.2305,1.2305,1.2305,1.2305,1.2305,1.2305,1.2305,1.2305,1.2305,1.2178,1.2024,1.1897,1.163,1.147,1.1597,1.1623,1.1663,1.179,1.181,1.181,1.181,1.1443,1.1182,1.1182,1.0192,0.9302,0.8772,0.7489,0.6692,0.6714,0.6246,0.6172,0.6714,0.6577,0.6338,0.6009,0.5943,0.5749,0.5428,0.5428,0.5659,0.6127,0.6651,0.7274,0.9523,0.9599,0.9674,0.9674,1.0515,1.1456,1.1836,1.2743,1.3004,1.1161,1.0989,1.0514,0.8497,0.8203,0.8366,0.8506,0.8333,0.8233,0.8233,0.8233,0.8233,0.8233,0.8432,0.9019,1.0096,1.0293,1.0779,1.2042,1.1165,1.097,1.2139,1.2139,1.2139,1.2139,1.2334,1.3011,1.4166,1.4166,1.4166,1.4166,1.4166,1.3915,1.3618,1.3391,1.3678,1.4449,1.4195,1.4088,1.4088,1.4088,1.4088,1.4088,1.4088,1.4088,1.4055,1.3801,1.3674,1.3567,1.3046,1.3019,1.316,1.2923,1.2849,1.2882,1.2882,1.2856,1.2768,1.2438,1.2331,1.2305,1.2305,1.2305,1.2305,1.2305,1.2305,1.2305,1.2305,1.2305,1.2225,1.1977,1.1717,1.1623,1.1884,1.1924,1.2011,1.2265,1.2305,1.2305,1.2305,1.1824,1.1483,1.1483,1.0541,0.9904,0.977,0.8154,0.7527,0.8383,0.755,0.7398,0.8393,0.8215,0.778,0.699,0.699,0.6589,0.5785,0.5803,0.6344,0.7287,0.745,0.8043,1.0565,1.1168,1.1774,1.1774,1.1968,1.2293,1.2838,1.3088,1.3017,1.2149,1.2352,1.2235,1.091,1.0953,1.122,1.1258,1.0391,0.9608,0.9608,0.9608,0.9608,0.9608,1.0583,1.1263,1.1556,1.156,1.2134,1.3488,1.3392,1.3295,1.3584,1.3584,1.3584,1.3584,1.4561,1.5248,1.5439,1.5439,1.5439,1.5439,1.5439,1.5171,1.4753,1.4707,1.4487,1.4162,1.4108,1.4088,1.4088,1.4088,1.4088,1.4088,1.4088,1.4088,1.4082,1.4028,1.3854,1.3627,1.3527,1.3367,1.316,1.2923,1.2919,1.3126,1.3126,1.2953,1.2808,1.2761,1.2492,1.2305,1.2305,1.2305,1.2305,1.2305,1.2305,1.2305,1.2305,1.2305,1.2285,1.2238,1.2184,1.2164,1.2218,1.2225,1.2245,1.2291,1.2305,1.2305,1.2305,1.2004,1.179,1.179,1.1385,1.0797,1.0105,0.9714,0.9284,0.8762,0.8518,0.8518,0.8697,0.8662,0.8572,0.8433,0.8433,0.8275,0.7894,0.8069,0.8226,0.8228,0.9171,0.9822,1.2976,1.3426,1.3702,1.3372,1.3386,1.3481,1.3407,1.3554,1.3444,1.2715,1.2744,1.2689,1.1708,1.1723,1.1945,1.1945,1.1361,1.0974,1.0974,1.0974,1.0974,1.0974,1.156,1.2139,1.2909,1.2909,1.3494,1.4758,1.4854,1.4854,1.4854,1.4854,1.4854,1.4854,1.5439,1.5832,1.5832,1.5832,1.5832,1.5832,1.5832,1.5605,1.5184,1.503,1.4723,1.4302,1.4155,1.4088,1.4088,1.4088,1.4088,1.4088,1.4088,1.4088,1.4088,1.4088,1.4001,1.3854,1.3701,1.3654,1.3614,1.3313,1.3213,1.318,1.3019,1.2866,1.2788,1.2559,1.2412,1.2305,1.2305,1.2305,1.2305,1.2305,1.2305,1.2305,1.2305,1.2305,1.2305,1.2305,1.2305,1.2305,1.2305,1.2305,1.2305,1.2305,1.2305,1.2305,1.2305,1.2178,1.2091,1.2091,1.183,1.1517,1.109,1.0463,1.016,1.0425,0.9816,0.9729,1.0361,1.023,0.995,0.9463,0.9463,0.9194,0.8595,0.8703,0.9044,0.9555,1.0102,1.073,1.5021,1.5021,1.4753,1.4305,1.4204,1.4116,1.3716,1.3821,1.3828,1.3274,1.329,1.3282,1.2604,1.2655,1.2721,1.2721,1.2528,1.2334,1.2334,1.2334,1.2334,1.2334,1.2528,1.3108,1.4166,1.4268,1.4752,1.573,1.5832,1.5832,1.5832,1.5832,1.5832,1.5832,1.5832,1.5832,1.5832,1.5832,1.5832,1.5832,1.5765,1.5585,1.5297,1.5003,1.471,1.4416,1.4182,1.4088,1.4088,1.4088,1.4088,1.4088,1.4088,1.4088,1.4088,1.4088,1.4088,1.4055,1.3821,1.3895,1.4041,1.3741,1.3534,1.334,1.3033,1.2899,1.2786,1.2485,1.2351,1.2305,1.2305,1.2305,1.2305,1.2305,1.2305,1.2305,1.2305,1.2305,1.2305,1.2305,1.2305,1.2305,1.2305,1.2305,1.2305,1.2305,1.2305,1.2305,1.2305,1.2305,1.2305,1.2305,1.2098,1.1964,1.1964,1.1101,1.0999,1.1944,1.1095,1.1006,1.1951,1.1737,1.1261,1.0548,1.0554,1.0237,0.9465,0.9515,0.9976,1.0857,1.0912,1.1424,1.5163,1.4522,1.3893,1.4156,1.3589,1.3088,1.3514,1.3585,1.3758,1.4229,1.4573,1.4863,1.5061,1.5249,1.5439,1.5439,1.4465,1.3686,1.3686,1.3686,1.3686,1.3686,1.4758,1.554,1.5635,1.5635,1.5635,1.5825,1.5832,1.5832,1.5832,1.5832,1.5832,1.5832,1.5832,1.5832,1.5832,1.5832,1.5832,1.5825,1.5565,1.5284,1.499,1.4696,1.4402,1.4128,1.4095,1.4088,1.4088,1.4088,1.4088,1.4088,1.4088,1.4088,1.4088,1.4088,1.4088,1.4082,1.4055,1.4062,1.4041,1.3741,1.3808,1.3955,1.3654,1.338,1.3106,1.2869,1.2512,1.2305,1.2305,1.2305,1.2305,1.2305,1.2305,1.2305,1.2305,1.2305,1.2305,1.2305,1.2305,1.2305,1.2305,1.2305,1.2305,1.2305,1.2305,1.2305,1.2305,1.2305,1.2305,1.2305,1.2278,1.2265,1.2265,1.2158,1.2158,1.2265,1.2158,1.2158,1.2265,1.2238,1.2145,1.2071,1.2071,1.1946,1.1611,1.1867,1.188,1.1799,1.2065,1.2198,1.6724,1.6149,1.543,1.5284,1.4599,1.386,1.3933,1.3908,1.4075,1.4669,1.4883,1.5104,1.5571,1.5752,1.5832,1.5832,1.5337,1.5045,1.5045,1.5045,1.5045,1.5045,1.5534,1.5832,1.5832,1.5832,1.5832,1.5832,1.5832,1.5832,1.5832,1.5832,1.5832,1.5832,1.5832,1.5745,1.5571,1.5571,1.5478,1.5304,1.519,1.4983,1.4696,1.4576,1.4362,1.4088,1.4088,1.4088,1.4088,1.4088,1.4088,1.4088,1.4088,1.4088,1.4088,1.4088,1.4088,1.4088,1.4088,1.4088,1.4068,1.3948,1.3988,1.3961,1.3307,1.3019,1.2866,1.2565,1.2392,1.2305,1.2305,1.2305,1.2305,1.2305,1.2305,1.2305,1.2305,1.2305,1.2305,1.2305,1.2305,1.2305,1.2305,1.2305,1.2305,1.2305,1.2305,1.2305,1.2305,1.2305,1.2305,1.2305,1.2305,1.2305,1.2305,1.2305,1.2305,1.2305,1.2305,1.2305,1.2305,1.2305,1.2305,1.2305,1.2305,1.2245,1.2131,1.2245,1.2245,1.2131,1.2245,1.2305,1.7948,1.7473,1.6759,1.6538,1.5859,1.5166,1.4698,1.4573,1.4661,1.4932,1.4963,1.5137,1.5718,1.5832,1.5832,1.5832,1.5832,1.5832,1.5832,1.5832,1.5832,1.5832,1.5832,1.5832,1.5832,1.5832,1.5832,1.5832,1.5832,1.5832,1.5832,1.5745,1.5705,1.5705,1.5618,1.5478,1.5271,1.5271,1.5164,1.4963,1.4877,1.4723,1.4516,1.4429,1.4282,1.4088,1.4088,1.4088,1.4088,1.4088,1.4088,1.4088,1.4088,1.4088,1.4088,1.4088,1.4088,1.4088,1.4088,1.4088,1.4088,1.4088,1.4088,1.3955,1.3227,1.2953,1.2819,1.2518,1.2371,1.2305,1.2305,1.2305,1.2305,1.2305,1.2305,1.2305,1.2305,1.2305,1.2305,1.2305,1.2305,1.2305,1.2305,1.2305,1.2305,1.2305,1.2305,1.2305,1.2305,1.2305,1.2305,1.2305,1.2305,1.2305,1.2305,1.2305,1.2305,1.2305,1.2305,1.2305,1.2305,1.2305,1.2305,1.2305,1.2305,1.2305,1.2305,1.2305,1.2305,1.2305,1.2305,1.2305,1.8446,1.7906,1.727,1.7602,1.7286,1.6705,1.5868,1.5696,1.5562,1.5103,1.4963,1.5137,1.5718,1.5832,1.5832,1.5832,1.5832,1.5832,1.5832,1.5832,1.5832,1.5832,1.5832,1.5832,1.5832,1.5832,1.5832,1.5832,1.5832,1.5832,1.5832,1.5558,1.5398,1.5398,1.5124,1.497,1.497,1.497,1.497,1.4963,1.4663,1.4522,1.4509,1.4222,1.4088,1.4088,1.4088,1.4088,1.4088,1.4088,1.4088,1.4088,1.4088,1.4088,1.4088,1.4088,1.4088,1.4088,1.4088,1.4088,1.4088,1.4088,1.4088,1.4035,1.3728,1.3434,1.314,1.2903,1.2525,1.2305,1.2305,1.2305,1.2305,1.2305,1.2305,1.2305,1.2305,1.2305,1.2305,1.2305,1.2305,1.2305,1.2305,1.2305,1.2305,1.2305,1.2305,1.2305,1.2305,1.2305,1.2305,1.2305,1.2305,1.2305,1.2305,1.2305,1.2305,1.2305,1.2305,1.2305,1.2305,1.2305,1.2305,1.2305,1.2305,1.2305,1.2305,1.2305,1.2305,1.2305,1.2305,1.2305,1.8525,1.7906,1.7343,1.7934,1.7476,1.6872,1.6847,1.6368,1.5989,1.6082,1.5646,1.5378,1.5758,1.5832,1.5832,1.5832,1.5832,1.5832,1.5832,1.5832,1.5832,1.5832,1.5832,1.5832,1.5832,1.5832,1.5832,1.5832,1.5832,1.5745,1.5545,1.5257,1.519,1.5391,1.5117,1.487,1.4663,1.4663,1.4563,1.4362,1.4269,1.4222,1.4222,1.4128,1.4088,1.4088,1.4088,1.4088,1.4088,1.4088,1.4088,1.4088,1.4088,1.4088,1.4088,1.4088,1.4573,1.5213,1.5213,1.5213,1.5213,1.5213,1.4734,1.4035,1.3734,1.344,1.31,1.2585,1.2378,1.2305,1.2305,1.2305,1.2305,1.2305,1.2305,1.2305,1.2305,1.2305,1.2305,1.2305,1.2305,1.2305,1.2305,1.2305,1.2305,1.2305,1.2305,1.2305,1.2305,1.2305,1.2305,1.2305,1.2305,1.2305,1.2305,1.2305,1.2305,1.2305,1.2305,1.2305,1.2305,1.2305,1.2305,1.2305,1.2305,1.2305,1.2305,1.2305,1.2305,1.2305,1.2305,1.2305,1.8721,1.8552,1.835,1.8778,1.8615,1.8153,1.7446,1.6932,1.6469,1.6074,1.5632,1.5357,1.5758,1.5832,1.5832,1.5832,1.5832,1.5832,1.5832,1.5832,1.5832,1.5832,1.5832,1.5832,1.5832,1.5832,1.5785,1.5671,1.5665,1.5538,1.5251,1.4957,1.4883,1.5064,1.4783,1.4543,1.4355,1.4355,1.4269,1.4088,1.4088,1.4088,1.4088,1.4088,1.4088,1.4088,1.4088,1.4088,0.0,1.4088,1.4088,1.4088,1.4088,1.4334,1.4734,1.4734,1.5299,1.6071,1.6071,1.5986,1.5797,1.5797,1.5095,1.4253,1.394,1.3488,1.2933,1.2438,1.2592,1.2732,1.2372,1.2592,1.2732,1.2372,1.2305,1.2305,1.2305,1.2305,1.2305,1.2305,1.2305,1.2305,1.2305,1.2305,1.2305,1.2305,1.2305,1.2305,1.2305,1.2305,1.2305,1.2305,1.2305,1.2305,1.2305,1.2305,1.2305,1.2305,1.2305,1.2305,1.2305,1.2305,1.2305,1.2305,1.2305,1.2305,1.2305,1.2305,1.2305,1.2305,1.2305,1.2305,0.0,1.9496,1.9883,1.9941,2.0187,1.9923,1.7908,1.7277,0.0,1.5334,1.5053,1.5157,1.5698,1.5812,1.5832,1.5832,1.5832,1.5832,1.5832,1.5832,1.5832,1.5832,1.5832,1.5832,1.5832,1.5812,1.5685,1.5418,1.5378,1.5237,1.495,1.4757,1.4596,1.4569,1.4392,1.425,1.4088,1.4088,1.4088,1.4088,1.4088,1.4088,1.4088,1.4088,1.4088,1.4088,1.4088,1.4088,1.4088,1.4088,1.4173,1.425,1.425,1.4901,1.5779,1.5779,1.6226,1.6884,1.6859,1.655,1.6185,1.6008,1.538,1.4635,1.4404,1.3644,1.2831,1.26,1.3091,1.36,1.2732,1.3098,1.3455,1.2592,1.2378,1.2305,1.2305,1.2305,1.2305,1.2305,1.2305,1.2305,1.2305,1.2305,1.2305,1.2305,1.2305,1.2305,1.2305,1.2305,1.2305,1.2305,1.2305,1.2305,1.2305,1.2305,1.2305,1.2305,1.2305,1.2305,1.2305,1.2305,1.2305,1.2305,1.2305,1.2305,1.2305,1.2305,1.2305,1.2305,1.2305,1.2305,1.7944,0.0,1.959,2.0244,1.9925,1.9283,0.0,1.7458,1.6284,1.5935,1.5589,1.5337,1.5471,1.5678,1.5832,1.5832,1.5832,1.5832,1.5832,1.5832,1.5832,1.5832,1.5832,1.5832,1.5832,1.5625,1.5471,1.5398,1.519,1.4937,1.4636,1.5303,1.566,1.5413,1.6154,1.5801,1.4088,1.4088,1.4088,1.4088,1.4088,1.4088,1.4088,1.4088,1.4088,1.4088,1.4088,1.4088,1.4088,1.4088,1.4573,1.5296,1.5296,1.5951,1.6927,1.6927,1.7607,1.8373,1.8064,1.7828,1.7543,1.6395,1.5745,1.5362,1.5282,1.4597,1.3947,1.4408,1.4665,1.4807,1.4593,1.4099,1.3673,1.3455,1.2806,1.2305,1.2305,1.2305,1.2305,1.2305,1.2305,1.2305,1.2305,1.2305,1.2305,1.2305,1.2305,1.2305,1.2305,1.2305,1.2305,1.2305,1.2305,1.2305,1.2305,1.2305,1.2305,1.2305,1.2305,1.2305,1.2305,1.2305,1.2305,1.2305,1.2305,1.2305,1.2305,1.2305,1.2305,1.2305,1.2305,1.2305,1.6205,1.7171,1.837,1.91,1.8763,1.8112,1.7786,1.6771,1.5834,1.5405,0.0,1.5237,1.5371,1.5631,1.5832,1.5832,1.5832,1.5832,1.5832,1.5832,1.5832,1.5832,1.5712,1.5631,1.5631,1.5364,1.5402,1.5693,1.562,1.5561,1.5749,1.6301,1.6542,1.6445,1.7009,1.6772,1.5553,1.5553,1.5553,1.5553,1.5553,1.5553,1.5553,1.5553,1.5553,1.5553,1.5061,1.5144,1.5553,1.5061,1.547,1.6437,1.6437,1.6993,1.7723,1.7723,1.8219,1.8798,1.8499,1.8303,1.7962,1.668,1.6191,1.6036,1.6028,1.5668,1.5266,1.5213,1.5508,1.572,1.5305,1.5092,1.4942,1.4522,1.4027,1.352,1.3025,1.2952,1.2806,1.2372,1.2305,1.2305,1.2305,1.2305,1.2305,1.2305,1.2305,1.2305,1.2305,1.2305,1.2305,1.2305,1.2305,1.2305,1.2305,1.2305,1.2305,1.2305,1.2305,1.2305,1.2305,1.2305,1.2305,1.2305,1.2305,1.2305,1.2305,1.2305,1.2305,1.2305,1.2305,1.2305,1.4372,1.5,1.6039,1.6996,1.6873,1.6312,1.5679,0.0,0.0,0.0,0.0,0.0,1.5002,1.5504,1.5832,1.5832,1.5832,1.5832,1.5832,1.5832,1.5812,1.5765,1.5545,1.5378,1.5337,1.5237,1.5469,1.6033,1.6222,1.6575,1.7269,1.7496,1.7585,1.7585,1.7738,1.7819,1.7819,1.7504,1.7342,1.7342,1.7342,1.7342,1.7342,1.7342,1.7342,1.7253,1.6355,1.6437,1.7253,1.6355,1.6601,1.7585,1.7585,1.803,1.8674,1.8543,1.862,1.8809,1.8682,1.8359,1.7872,1.707,1.6793,1.6811,1.6784,1.6784,1.6636,1.5869,1.6219,1.6636,1.5799,1.6079,1.6419,1.5587,1.5305,1.495,1.4099,1.3954,1.3673,1.2739,1.2659,1.2659,1.2519,1.2659,1.2659,1.2519,1.2519,1.2445,1.2298,1.2305,1.2305,1.2305,1.2305,1.2305,1.2305,1.2305,1.2305,1.2305,1.2305,1.2305,1.2305,1.2305,1.2305,1.2305,1.2305,1.2305,1.2305,1.2305,1.2372,1.2519,1.2519,1.2592,1.3094,1.2105,1.1526,1.3904,1.3767,1.2921,1.2796,1.2049,0.0,0.0,0.0,0.0,1.3544,1.4801,1.5832,1.5832,1.5832,1.5832,1.5832,1.5832,1.5738,1.5491,1.5424,1.5297,1.5057,1.5609,1.5985,1.6104,1.6763,1.7147,1.7261,1.823,1.8718,1.8718,1.9599,2.0079,2.0079,1.823,1.7342,1.7342,1.7342,1.7342,1.7342,1.7342,1.7342,1.7253,1.7098,1.718,1.7261,1.709,1.7738,1.8718,1.8718,1.9325,2.0178,1.9811,1.9674,1.9609,1.8887,1.8359,1.8008,1.7862,1.7794,1.7803,1.7794,1.7794,1.7794,1.7579,1.7657,1.7725,1.7579,1.707,1.6567,1.6419,1.579,1.5163,1.5021,1.495,1.4665,1.3665,1.4163,1.445,1.3593,1.4163,1.445,1.36,1.3455,1.3171,1.2372,1.2305,1.2305,1.2305,1.2305,1.2305,1.2305,1.2305,1.2305,1.2305,1.2305,1.2305,1.2305,1.2305,1.2305,1.2305,1.2305,1.2305,1.2305,1.2305,1.2732,1.3455,1.3455,1.3954,1.0433,0.9602,0.9196,0.9961,1.0724,1.1198,1.0773,1.0661,0.0,0.0,0.0,1.3217,1.3217,1.4583,1.5832,1.5832,1.5832,1.5772,1.5618,1.5591,1.5484,1.5197,1.5535,1.5722,1.5581,1.6284,1.6996,1.7655,1.8002,1.847,1.9027,1.9599,1.9844,1.9844,2.0323,2.0566,2.0566,1.959,1.9107,1.9107,1.9107,1.9107,1.9107,1.9107,1.9107,1.9027,1.847,1.855,1.9027,1.847,1.8868,1.9844,1.9844,1.9889,1.9795,1.9131,1.8887,1.8828,1.8437,1.8164,1.8008,1.8008,1.8008,1.8008,1.8008,1.8008,1.8008,1.8008,1.8008,1.8008,1.8008,1.7647,1.7364,1.7364,1.701,1.6585,1.6079,1.593,1.5508,1.3954,1.4099,1.4243,1.3818,1.4099,1.4386,1.453,1.4522,1.4378,1.3947,1.3875,1.3875,1.3875,1.3875,1.3665,1.3091,1.3025,1.2806,1.2305,1.2305,1.2305,1.2305,1.2305,1.2305,1.2305,1.2305,1.2519,1.3025,1.3025,1.3528,1.4522,1.4522,1.4736,0.8394,0.7881,0.7577,0.6662,0.0,0.9561,0.8983,0.9341,0.9859,0.0,1.1716,1.2917,1.3132,1.4532,1.5705,1.5638,1.5685,1.5625,1.5337,1.5297,1.5275,1.5233,1.5749,1.6152,1.6323,1.7163,1.8069,1.8957,1.9195,1.9719,2.042,2.0508,2.0518,2.042,2.0508,2.0566,2.0566,2.0566,2.0566,2.0566,2.0566,2.0566,2.0566,2.0566,2.0566,2.0557,1.9756,1.9844,2.0566,1.9678,1.9844,2.0557,2.0449,1.9893,1.9062,1.8398,1.8096,1.8008,1.8008,1.8008,1.8008,1.8008,1.8008,1.8008,1.8008,1.8008,1.8008,1.8008,1.8008,1.8008,1.8008,1.8008,1.8008,1.8008,1.8008,1.7794,1.707,1.6922,1.6428,1.4728,1.4522,1.4665,1.445,1.4593,1.4879,1.5446,1.5517,1.5446,1.5234,1.5234,1.5234,1.5234,1.5234,1.4879,1.4099,1.4027,1.3738,1.3018,1.2519,1.2305,1.2305,1.2305,1.2372,1.2592,1.2666,1.3091,1.4027,1.4027,1.4593,1.5517,1.5517,1.5658,0.8049,0.7234,0.6361,0.5344,0.6144,0.7191,0.7479,0.7427,0.0,0.9317,0.0,1.2088,1.3071,1.4374,1.5337,1.507,1.5251,1.5331,1.5037,1.4997,1.5315,1.5921,1.6026,1.64,1.7163,1.8238,1.8877,1.8957,1.9923,2.0304,1.998,2.0342,2.0381,1.9971,2.0352,2.0566,2.0566,2.0566,2.0566,2.0566,2.0566,2.0566,2.0566,2.0566,2.0566,2.0566,2.0489,2.0566,2.0566,2.0489,2.0557,2.0527,2.0117,1.9443,1.8601,1.8613,1.835,1.8008,1.8008,1.8008,1.8008,1.8008,1.8008,1.8008,1.8008,1.8008,1.8008,1.8008,1.8008,1.8008,1.8008,1.8008,1.8008,1.8008,1.8008,1.8008,1.794,1.7862,1.7579,1.6567,1.707,1.7432,1.6567,1.7139,1.7432,1.6636,1.6498,1.621,1.5305,1.5234,1.5234,1.5234,1.5234,1.5163,1.5092,1.5092,1.5092,1.5021,1.3302,1.2305,1.2305,1.2305,1.2732,1.36,1.36,1.4099,1.5092,1.5092,1.5587,1.6498,1.6498,1.7001,0.6918,0.667,0.6522,0.5994,0.6408,0.0,0.0,0.658,0.7524,0.8889,1.0319,1.1941,1.3935,1.4773,1.509,1.4983,1.5057,1.5286,1.5661,1.5698,1.5999,1.6755,1.745,1.8053,1.8327,1.9123,1.9534,1.9534,1.9686,1.9697,1.9531,1.9678,1.9697,1.9531,1.9687,1.9766,1.9766,1.9766,1.9766,1.9775,2.0039,2.0156,2.0156,1.9893,1.9766,1.9766,1.9766,1.9922,2.0137,1.9873,1.9922,2.0088,1.9394,1.8926,1.8603,1.835,1.8144,1.8008,1.8008,1.8008,1.8008,1.8008,1.8008,1.8008,1.8008,1.8008,1.8008,1.8008,1.8008,1.8008,1.8008,1.8008,1.8008,1.8008,1.8008,1.8008,1.8008,1.8008,1.7716,1.6775,1.6922,1.7001,1.6636,1.6922,1.7217,1.7432,1.7501,1.7364,1.701,1.6941,1.6941,1.6941,1.6437,1.607,1.607,1.5517,1.5234,1.5234,1.4522,1.4091,1.4091,1.4091,1.4235,1.4593,1.4665,1.5084,1.607,1.607,1.6567,1.7501,1.7501,1.7647,0.6296,0.6325,0.6549,0.6488,0.0,0.0,0.6235,0.6897,0.8044,0.9393,1.0982,1.2692,1.451,1.4823,1.4796,1.4703,1.4763,1.5143,1.5915,1.594,1.6445,1.7691,1.855,1.9116,1.9441,1.9774,1.9912,1.9912,1.9531,1.9228,1.9092,1.9209,1.9219,1.9082,1.9219,1.9287,1.9287,1.9287,1.9287,1.9287,1.9443,1.958,1.9707,1.9424,1.9287,1.9287,1.9287,1.9453,1.9697,1.9404,1.9375,1.9453,1.8867,1.8484,1.8408,1.8115,1.8008,1.8008,1.8008,1.8008,1.8008,1.8008,1.8008,1.8008,1.8008,1.8008,1.8008,1.8008,1.8008,1.8008,1.8008,1.8008,1.8008,1.8008,1.8008,1.8008,1.8008,1.8008,1.7794,1.7148,1.707,1.707,1.707,1.707,1.7285,1.7862,1.8008,1.8008,1.8008,1.8008,1.8008,1.8008,1.7432,1.707,1.707,1.6437,1.6088,1.6088,1.6088,1.5799,1.5234,1.5234,1.5376,1.5658,1.5658,1.6079,1.707,1.707,1.7354,1.8008,1.8008,1.8008,0.6478,0.6261,0.6295,0.6434,0.0,0.0,0.8156,0.8696,0.9345,1.1005,1.2998,1.4516,1.4516,1.4516,1.4422,1.4135,1.4329,1.4833,1.5582,1.5703,1.6511,1.8709,1.9036,1.9441,2.0479,2.0166,1.9902,1.9902,1.9512,1.9082,1.8652,1.9043,1.9072,1.8643,1.9053,1.9277,1.9277,1.9277,1.9277,1.9268,1.8838,1.8857,1.9277,1.9277,1.9277,1.9277,1.9277,1.9277,1.9277,1.9277,1.9023,1.8562,1.8562,1.8379,1.8008,1.8008,1.8008,1.8008,1.8008,1.8008,1.8008,1.8008,1.8008,1.8008,1.8008,1.8008,1.8008,1.8008,1.8008,1.8008,1.8008,1.8008,1.8008,1.8008,1.8008,1.8008,1.8008,1.8008,1.8008,1.8008,1.8008,1.8008,1.8008,1.8008,1.8008,1.8008,1.8008,1.8008,1.8008,1.8008,1.8008,1.8008,1.8008,1.8008,1.8008,1.8008,1.8008,1.8008,1.8008,1.7157,1.5305,1.5234,1.5649,1.6636,1.6627,1.707,1.8008,1.8008,1.8008,1.8008,1.8008,1.8008,0.6149,0.6251,0.6396,0.6339,0.7068,0.7808,0.0,0.8522,0.0,1.1565,1.3213,1.4215,1.4215,1.4874,1.5329,1.5235,1.5952,1.6802,1.7827,1.806,1.8541,1.9923,2.0167,2.012,2.0137,1.9727,1.9346,1.9033,1.8623,1.833,1.8203,1.832,1.833,1.8193,1.832,1.8389,1.8389,1.8389,1.8389,1.8389,1.8252,1.8418,1.8818,1.8525,1.8389,1.8389,1.8389,1.8555,1.8828,1.8828,1.8574,1.8193,1.8193,1.8115,1.8008,1.8008,1.8008,1.8008,1.8008,1.8008,1.8008,1.8008,1.8008,1.8008,1.8008,1.8008,1.8008,1.8008,1.8008,1.8008,1.8008,1.8008,1.8008,1.8008,1.8008,1.8008,1.8008,1.8008,1.8008,1.8008,1.8008,1.8008,1.8008,1.8008,1.8008,1.8008,1.8008,1.8008,1.8008,1.8008,1.8008,1.8008,1.8008,1.8008,1.8008,1.8008,1.8008,1.8008,1.8008,1.7725,1.7217,1.7157,1.7295,1.7579,1.7579,1.7716,1.8008,1.8008,1.8008,1.8008,1.8008,1.8008,0.6173,0.6295,0.6537,0.6894,0.7581,0.8362,0.9199,0.9649,1.0462,1.2416,1.3387,1.3948,1.4068,1.4977,1.5696,1.5696,1.6601,1.7658,1.8877,1.9036,1.9298,2.0245,2.0303,2.0137,1.9707,1.9277,1.8916,1.8652,1.8252,1.8008,1.8008,1.8008,1.8008,1.8008,1.8008,1.8008,1.8008,1.8008,1.8008,1.8008,1.8008,1.8144,1.8379,1.8125,1.8008,1.8008,1.8008,1.8154,1.8389,1.8389,1.8242,1.8008,1.8008,1.8008,1.8008,1.8008,1.8008,1.8008,1.8008,1.8008,1.8008,1.8008,1.8008,1.8008,1.8008,1.8008,1.8008,1.8008,1.8008,1.8008,1.8008,1.8008,1.8008,1.8008,1.8008,1.8008,1.8008,1.8008,1.8008,1.8008,1.8008,1.8008,1.8008,1.8008,1.8008,1.8008,1.8008,1.8008,1.8008,1.8008,1.8008,1.8008,1.8008,1.8008,1.8008,1.8008,1.8008,1.8008,1.8008,1.8008,1.8008,1.8008,1.8008,1.8008,1.8008,1.8008,1.8008,1.8008,1.8008,1.8008,1.8008,1.8008,0.6534,0.6513,0.6673,0.7824,0.8177,0.8848,1.1039,1.1579,1.1982,1.3284,1.3519,1.3687,1.4038,1.5051,1.5771,1.5853,1.6774,1.792,1.8858,1.9043,1.9229,1.9752,1.9853,1.9687,1.9268,1.8867,1.8553,1.8584,1.8223,1.8008,1.8008,1.8008,1.8008,1.8008,1.8008,1.8008,1.8008,1.8008,1.8008,1.8008,1.8008,1.8008,1.8008,1.8008,1.8008,1.8008,1.8008,1.8008,1.8008,1.8008,1.8008,1.8008,1.8008,1.8008,1.8008,1.8008,1.8008,1.8008,1.8008,1.8008,1.8008,1.8008,1.8008,1.8008,1.8008,1.8008,1.8008,1.8008,1.8008,1.8008,1.8008,1.8008,1.8008,1.8008,1.8008,1.8008,1.8008,1.8008,1.8008,1.8008,1.8008,1.8008,1.8008,1.8008,1.8008,1.8008,1.8008,1.8008,1.8008,1.8008,1.8008,1.8008,1.8008,1.8008,1.8008,1.8008,1.8008,1.8008,1.8008,1.8008,1.8008,1.8008,1.8008,1.8008,1.8008,1.8008,1.8008,1.8008,1.8008,1.8008,1.8008,1.8008,0.7512,0.7508,0.7714,0.8746,0.9585,1.05,1.1859,1.211,1.2335,1.3107,1.3307,1.3552,1.4302,1.5389,1.639,1.7107,1.8434,1.9317,1.9228,1.9533,1.9667,1.9473,1.9424,1.9258,1.8818,1.8691,1.8496,1.8164,1.8057,1.8008,1.8008,1.8008,1.8008,1.8008,1.8008,1.8008,1.8008,1.8008,1.8008,1.8008,1.8008,1.8008,1.8008,1.8008,1.8008,1.8008,1.8008,1.8008,1.8008,1.8008,1.8008,1.8008,1.8008,1.8008,1.8008,1.8008,1.8008,1.8008,1.8008,1.8008,1.8008,1.8008,1.8008,1.8008,1.8008,1.8008,1.8008,1.8008,1.8008,1.8008,1.8008,1.8008,1.8008,1.8008,1.8008,1.8008,1.8008,1.8008,1.8008,1.8008,1.8008,1.8008,1.8008,1.8008,1.8008,1.8008,1.8008,1.8008,1.8008,1.8008,1.8008,1.8008,1.8008,1.8008,1.8008,1.8008,1.8008,1.8008,1.8008,1.8008,1.8008,1.8008,1.8008,1.8008,1.8008,1.8008,1.8008,1.8008,1.8008,1.8008,1.8008,1.8008,0.8309,0.8383,0.8765,0.9744,1.0789,1.1694,1.215,1.2305,1.254,1.3306,1.3194,1.3331,1.4392,1.5473,1.6539,1.7552,1.8788,1.9541,1.9316,1.9473,1.9453,1.9023,1.8975,1.8809,1.8379,1.833,1.8242,1.8027,1.8008,1.8008,1.8008,1.8008,1.8008,1.8008,1.8008,1.8008,1.8008,1.8008,1.8008,1.8008,1.8008,1.8008,1.8008,1.8008,1.8008,1.8008,1.8008,1.8008,1.8008,1.8008,1.8008,1.8008,1.8008,1.8008,1.8008,1.8008,1.8008,1.8008,1.8008,1.8008,1.8008,1.8008,1.8008,1.8008,1.8008,1.8008,1.7969,1.7764,1.7852,1.7969,1.7764,1.7861,1.8008,1.8008,1.8008,1.8008,1.8008,1.8008,1.8008,1.8008,1.8008,1.8008,1.8008,1.8008,1.8008,1.8008,1.8008,1.8008,1.8008,1.8008,1.8008,1.8008,1.8008,1.8008,1.8008,1.8008,1.8008,1.8008,1.8008,1.8008,1.8008,1.8008,1.8008,1.8008,1.8008,1.8008,1.8008,1.8008,1.8008,1.8008,1.8008,1.8008,0.9088,0.9411,1.0045,1.0864,1.1694,1.2305,1.2305,1.2305,1.2592,1.3528,1.3305,1.3341,1.4729,1.567,1.657,1.7577,1.8531,1.915,1.9082,1.9131,1.9014,1.8584,1.8525,1.8389,1.8047,1.8008,1.8008,1.8008,1.8008,1.8008,1.8008,1.8008,1.8008,1.8008,1.8008,1.8008,1.8008,1.7939,1.7939,1.8008,1.8008,1.8008,1.8008,1.8008,1.8008,1.8008,1.8008,1.8008,1.8008,1.8008,1.8008,1.8008,1.8008,1.8008,1.8008,1.8008,1.8008,1.8008,1.8008,1.8008,1.8008,1.8008,1.7959,1.79,1.79,1.7852,1.7715,1.7363,1.7578,1.7822,1.7471,1.7695,1.8008,1.8008,1.8008,1.8008,1.8008,1.8008,1.8008,1.8008,1.8008,1.8008,1.8008,1.8008,1.8008,1.8008,1.8008,1.8008,1.8008,1.8008,1.8008,1.8008,1.8008,1.8008,1.8008,1.8008,1.8008,1.8008,1.8008,1.8008,1.8008,1.8008,1.8008,1.8008,1.8008,1.8008,1.8008,1.8008,1.8008,1.8008,1.8008,1.8008,1.0185,1.104,1.1929,1.207,1.2224,1.2305,1.2305,1.2305,1.2592,1.3528,1.3637,1.4111,1.5953,1.6448,1.6869,1.782,1.8346,1.8594,1.8232,1.8496,1.8564,1.8144,1.8096,1.8076,1.8018,1.8008,1.8008,1.8008,1.8008,1.8008,1.8008,1.8008,1.8008,1.8008,1.8008,1.8008,1.8008,1.7646,1.7656,1.8008,1.8008,1.8008,1.8008,1.8008,1.8008,1.8008,1.8008,1.8008,1.8008,1.8008,1.8008,1.8008,1.8008,1.8008,1.8008,1.8008,1.8008,1.8008,1.8008,1.8008,1.8008,1.8008,1.7764,1.7471,1.7471,1.7207,1.6885,1.6836,1.7139,1.7451,1.7402,1.7695,1.8008,1.8008,1.8008,1.8008,1.8008,1.8008,1.8008,1.8008,1.8008,1.8008,1.8008,1.8008,1.8008,1.8008,1.8008,1.8008,1.8008,1.8008,1.8008,1.8008,1.8008,1.8008,1.8008,1.8008,1.8008,1.8008,1.8008,1.8008,1.8008,1.8008,1.8008,1.8008,1.8008,1.8008,1.8008,1.8008,1.8008,1.8008,1.8008,1.8008,1.1127,1.1781,1.2305,1.2305,1.2305,1.2305,1.2305,1.2739,1.3382,1.4314,1.4942,1.5579,1.6437,1.6576,1.6922,1.7872,1.8164,1.8223,1.8037,1.8164,1.8213,1.8037,1.8008,1.8008,1.8008,1.8008,1.8008,1.8008,1.8008,1.791,1.7676,1.7656,1.7549,1.7305,1.7295,1.7295,1.7295,1.7109,1.7109,1.7295,1.7295,1.7422,1.7656,1.7656,1.7793,1.8008,1.8008,1.8008,1.8008,1.8008,1.8008,1.8008,1.8008,1.8008,1.8008,1.8008,1.8008,1.8008,1.8008,1.8008,1.8008,1.8008,1.7725,1.7383,1.7383,1.708,1.668,1.6426,1.668,1.7021,1.7021,1.7334,1.7715,1.7959,1.8008,1.8008,1.8008,1.8008,1.8008,1.8008,1.8008,1.8008,1.8008,1.8008,1.8008,1.8008,1.8008,1.8008,1.8008,1.8008,1.8008,1.8008,1.8008,1.8008,1.8008,1.8008,1.8008,1.8008,1.8008,1.8008,1.8008,1.8008,1.8008,1.8008,1.8008,1.8008,1.8008,1.8008,1.8008,1.8008,1.8008,1.8008,1.2367,1.252,1.2497,1.2645,1.2445,1.2372,1.2592,1.3171,1.4027,1.5296,1.5992,1.6519,1.6904,1.6922,1.7207,1.7872,1.8008,1.8008,1.8008,1.8008,1.8008,1.8008,1.8008,1.8008,1.8008,1.8008,1.8008,1.8008,1.791,1.7715,1.7402,1.7275,1.707,1.6685,1.6665,1.6665,1.6665,1.6665,1.668,1.6562,1.668,1.6904,1.7217,1.7217,1.7393,1.7695,1.792,1.8008,1.8008,1.8008,1.8008,1.8008,1.8008,1.8008,1.8008,1.8008,1.8008,1.8008,1.8008,1.8008,1.7988,1.7881,1.7559,1.7197,1.708,1.6738,1.6328,1.5996,1.6221,1.6592,1.6636,1.7061,1.749,1.791,1.8008,1.8008,1.8008,1.8008,1.8008,1.8008,1.8008,1.8008,1.8008,1.8008,1.8008,1.8008,1.8008,1.8008,1.8008,1.8008,1.8008,1.8008,1.8008,1.8008,1.8008,1.8008,1.8008,1.8008,1.8008,1.8008,1.8008,1.8008,1.8008,1.8008,1.8008,1.8008,1.8008,1.8008,1.8008,1.8008,1.8008,1.8008,1.4061,1.3747,1.3153,1.3526,1.2952,1.2519,1.3455,1.3673,1.4235,1.614,1.6192,1.6318,1.7648,1.794,1.794,1.8008,1.8008,1.8008,1.8008,1.8008,1.8008,1.8008,1.8008,1.8008,1.8008,1.8008,1.8008,1.8008,1.7637,1.7402,1.7383,1.6992,1.6758,1.6665,1.6665,1.6665,1.6665,1.6665,1.6523,1.6164,1.6533,1.6685,1.6768,1.6768,1.6777,1.6782,1.7656,1.8008,1.8008,1.8008,1.8008,1.8008,1.8008,1.8008,1.8008,1.8008,1.8008,1.8008,1.8008,1.8008,1.7939,1.7549,1.7119,1.6689,1.626,1.582,1.5478,1.5449,1.5762,1.6201,1.6621,1.7061,1.749,1.791,1.8008,1.8008,1.8008,1.8008,1.8008,1.8008,1.8008,1.8008,1.8008,1.8008,1.8008,1.8008,1.8008,1.8008,1.8008,1.8008,1.8008,1.8008,1.8008,1.8008,1.8008,1.8008,1.8008,1.8008,1.8008,1.8008,1.8008,1.8008,1.8008,1.8008,1.8008,1.8008,1.8008,1.8008,1.8008,1.8008,1.8008,1.8008,1.3631,1.3701,1.3695,1.4103,1.398,1.3893,1.4546,1.5155,1.579,1.6498,1.6745,1.7006,1.7512,1.7607,1.7695,1.7969,1.8008,1.8008,1.8008,1.8008,1.8008,1.8008,1.8008,1.8008,1.8008,1.8008,1.79,1.7627,1.7471,1.7139,1.6572,1.6387,1.6172,1.5898,1.5889,1.5889,1.5889,1.5889,1.5801,1.5644,1.5811,1.6025,1.6299,1.6299,1.6465,1.6748,1.7061,1.7187,1.7187,1.7187,1.7187,1.7187,1.7187,1.7363,1.7607,1.7607,1.7607,1.7607,1.7607,1.7422,1.7158,1.7012,1.667,1.6279,1.6113,1.5752,1.541,1.541,1.5527,1.5811,1.6543,1.6846,1.7139,1.7842,1.8008,1.8008,1.8008,1.8008,1.8008,1.8008,1.8008,1.8008,1.8008,1.8008,1.8008,1.8008,1.8008,1.8008,1.8008,1.8008,1.8008,1.8008,1.8008,1.8008,1.8008,1.8008,1.8008,1.8008,1.8008,1.8008,1.8008,1.8008,1.8008,1.8008,1.8008,1.8008,1.8008,1.8008,1.8008,1.8008,1.8008,1.8008,1.3804,1.3979,1.4126,1.4799,1.4663,1.4569,1.5469,1.6044,1.6473,1.6973,1.713,1.7207,1.7353,1.7139,1.7129,1.7705,1.792,1.8008,1.8008,1.8008,1.8008,1.8008,1.8008,1.8008,1.8008,1.7881,1.7686,1.7402,1.7109,1.668,1.6154,1.5928,1.5713,1.542,1.541,1.541,1.541,1.541,1.541,1.541,1.541,1.5566,1.585,1.585,1.6006,1.6289,1.6289,1.6455,1.6665,1.6665,1.6665,1.6665,1.6665,1.6914,1.7168,1.7168,1.7168,1.7168,1.7168,1.6973,1.6709,1.6553,1.6309,1.6096,1.5889,1.5644,1.541,1.541,1.541,1.5576,1.6318,1.6728,1.7129,1.7842,1.8008,1.8008,1.8008,1.8008,1.8008,1.8008,1.8008,1.8008,1.8008,1.8008,1.8008,1.8008,1.8008,1.8008,1.8008,1.8008,1.8008,1.8008,1.8008,1.8008,1.8008,1.8008,1.8008,1.8008,1.8008,1.8008,1.8008,1.8008,1.8008,1.8008,1.7871,1.7927,1.8175,1.8065,1.8144,1.8462,1.8245,1.8227,0.0,0.0,0.0,1.5555,1.4904,1.4438,1.6213,1.6224,1.634,1.7687,1.7324,1.6865,1.7305,1.667,1.6367,1.7227,1.7715,1.7988,1.7978,1.7988,1.8008,1.7988,1.8008,1.8008,1.8008,1.7627,1.7373,1.7363,1.6553,1.6115,1.6105,1.5644,1.541,1.541,1.541,1.54,1.5391,1.54,1.54,1.5391,1.54,1.541,1.541,1.541,1.541,1.541,1.541,1.5898,1.6626,1.6626,1.6626,1.6626,1.6626,1.6636,1.6709,1.6709,1.6709,1.6709,1.6709,1.6636,1.6621,1.6182,1.6105,1.5957,1.5537,1.541,1.541,1.541,1.541,1.5518,1.5967,1.6728,1.749,1.791,1.8008,1.8008,1.8008,1.8008,1.8008,1.8008,1.8008,1.8008,1.8008,1.8008,1.8008,1.8008,1.8008,1.8008,1.8008,1.8008,1.8008,1.8008,1.8008,1.8008,1.8008,1.8008,1.8008,1.8008,1.8008,1.8008,1.8008,1.7998,1.7988,1.7988,1.7644,1.78,1.8532,1.8145,1.8422,1.9246,1.8741,1.8646,1.3433,0.0,0.0,0.0,0.0,0.0,1.6417,1.6586,1.6689,1.7405,1.7119,1.6865,1.7305,1.6924,1.6631,1.6865,1.7275,1.7451,1.7129,1.7617,1.79,1.7598,1.7822,1.8008,1.8008,1.7627,1.7256,1.6934,1.6387,1.5928,1.5605,1.5478,1.541,1.541,1.541,1.5264,1.4961,1.5254,1.5254,1.4961,1.5264,1.541,1.541,1.541,1.541,1.541,1.541,1.5547,1.5781,1.5781,1.5781,1.5781,1.5781,1.5967,1.625,1.625,1.625,1.625,1.625,1.6035,1.5752,1.5635,1.5586,1.5566,1.5449,1.541,1.541,1.541,1.541,1.5586,1.6348,1.6963,1.749,1.791,1.8008,1.8008,1.8008,1.8008,1.8008,1.8008,1.8008,1.8008,1.8008,1.8008,1.8008,1.8008,1.8008,1.8008,1.8008,1.8008,1.8008,1.8008,1.8008,1.8008,1.8008,1.8008,1.8008,1.8008,1.8008,1.8008,1.8008,1.7715,1.7803,1.8363,1.7922,1.8051,1.8768,1.8176,1.8229,1.9015,1.8884,1.9164,1.2189,1.2674,1.3116,1.4102,0.0,0.0,1.5809,1.6123,1.6357,1.6982,1.6914,1.6807,1.7061,1.6904,1.6665,1.6665,1.6943,1.7021,1.6768,1.7158,1.7383,1.7139,1.749,1.7676,1.749,1.7256,1.6924,1.6484,1.6045,1.5684,1.542,1.5244,1.5146,1.5146,1.4971,1.4766,1.4521,1.4756,1.4756,1.4521,1.4941,1.5146,1.5156,1.5332,1.541,1.541,1.541,1.541,1.541,1.541,1.541,1.541,1.541,1.5566,1.5791,1.5791,1.5791,1.5791,1.5791,1.5625,1.541,1.541,1.541,1.541,1.541,1.541,1.541,1.541,1.541,1.5576,1.6269,1.6641,1.6943,1.7373,1.7617,1.7744,1.7744,1.7881,1.8008,1.8008,1.8008,1.8008,1.8008,1.8008,1.8008,1.8008,1.8008,1.8008,1.8008,1.8008,1.8008,1.8008,1.8008,1.8008,1.8008,1.8008,1.7939,1.7764,1.8068,1.8101,1.7911,1.7971,1.8197,1.8687,1.8216,1.8287,1.8828,1.8425,1.8572,1.9136,1.9494,1.9776,1.0902,1.1393,1.1743,1.2372,1.3006,0.0,1.4629,1.5093,1.5566,1.6409,1.6615,1.6717,1.6829,1.6941,1.6941,1.6779,1.6911,1.6898,1.666,1.6699,1.6738,1.6855,1.7238,1.7412,1.708,1.7001,1.6782,1.6387,1.588,1.5613,1.5563,1.515,1.4923,1.4929,1.439,1.4111,1.4106,1.4102,1.4058,1.4019,1.4502,1.4717,1.4727,1.5098,1.5273,1.5273,1.5273,1.5273,1.5273,1.5273,1.5322,1.541,1.541,1.541,1.541,1.541,1.541,1.541,1.541,1.541,1.541,1.541,1.541,1.541,1.541,1.541,1.541,1.541,1.541,1.5508,1.5947,1.6125,1.6172,1.6621,1.7031,1.7324,1.7373,1.7676,1.7959,1.7998,1.8008,1.8008,1.8008,1.8008,1.8008,1.8008,1.8008,1.8008,1.8008,1.8008,1.8008,1.8008,1.8008,1.8008,1.8008,1.7969,1.7783,1.7402,1.7954,1.8165,1.7811,1.8397,1.8773,1.8952,1.8656,1.8573,1.8821,1.8965,1.9172,1.9471,2.0229,2.0288,0.9249,0.9463,0.9928,1.0693,1.1628,0.0,1.3329,1.4251,1.512,1.5731,1.6228,1.6811,1.7696,1.8251,1.8322,1.7503,1.8141,1.8212,1.6485,1.6504,1.6971,1.7688,1.8092,1.8564,1.9087,1.879,1.8436,1.7897,1.7464,1.6961,1.6526,1.5986,1.5721,1.5758,1.4692,1.4165,1.4336,1.4208,1.3965,1.3633,1.4062,1.4258,1.4268,1.4346,1.433,1.433,1.433,1.433,1.433,1.433,1.4795,1.541,1.541,1.541,1.541,1.541,1.541,1.541,1.541,1.541,1.541,1.541,1.541,1.541,1.541,1.541,1.541,1.541,1.541,1.5508,1.5947,1.6125,1.6172,1.6621,1.6797,1.6953,1.7305,1.7451,1.7607,1.7939,1.8008,1.8008,1.8008,1.8008,1.8008,1.8008,1.8008,1.8008,1.8008,1.8008,1.8008,1.8008,1.8008,1.8008,1.8008,1.7705,1.7471,1.7393,1.717,1.7302,1.7801,1.7627,1.8112,1.926,1.9414,1.9522,1.9592,1.9633,1.9682,1.9753,1.991,1.9911,0.8328,0.8431,0.8773,0.8991,0.9814,0.0,0.0,1.3305,1.434,1.5832,1.6279,1.6726,1.7621,1.8034,1.8111,1.7811,1.817,1.8008,1.6964,1.7483,1.8169,1.8594,1.879,1.8895,1.9074,1.8829,1.8483,1.798,1.7712,1.7466,1.7221,1.6488,1.6074,1.6087,1.5003,1.4444,1.4536,1.4444,1.4307,1.4087,1.4487,1.4553,1.4265,1.4498,1.4397,1.4077,1.4077,1.4077,1.4077,1.4077,1.433,1.4775,1.4775,1.4902,1.5098,1.5098,1.5234,1.541,1.541,1.541,1.541,1.541,1.541,1.541,1.541,1.5642,1.6036,1.6415,1.6518,1.6581,1.6812,1.6875,1.6879,1.712,1.7071,1.7124,1.7698,1.7749,1.7668,1.788,1.792,1.7941,1.7997,1.8008,1.8008,1.8008,1.8008,1.8008,1.8008,1.8008,1.8008,1.8008,1.8008,1.793,1.7715,1.75,1.7197,1.6748,1.7236,1.7532,1.769,1.8194,1.8834,1.9604,1.9728,1.9798,1.9798,1.9798,1.9798,1.9798,1.9798,1.9798,0.7723,0.7712,0.7816,0.7555,0.8371,0.9707,0.0,0.0,0.0,1.5758,1.6198,1.6481,1.7326,1.758,1.7718,1.7933,1.7931,1.7927,1.7986,1.8917,1.9517,1.94,1.9363,1.9295,1.9229,1.8954,1.8565,1.805,1.8004,1.797,1.7878,1.6917,1.6443,1.644,1.531,1.4755,1.488,1.4744,1.4698,1.4709,1.5043,1.4945,1.4471,1.4734,1.4553,1.4034,1.3939,1.3896,1.3896,1.3896,1.3896,1.3906,1.4019,1.4346,1.4658,1.4658,1.4922,1.5293,1.5293,1.5342,1.541,1.541,1.541,1.541,1.541,1.5816,1.6425,1.7191,1.7413,1.7413,1.7578,1.7578,1.7578,1.7578,1.744,1.7466,1.8132,1.811,1.793,1.8015,1.8036,1.7999,1.7878,1.7891,1.7948,1.8083,1.8017,1.8046,1.8093,1.7948,1.7891,1.7891,1.7812,1.7693,1.7471,1.7427,1.7133,1.6578,1.7546,1.8047,1.7809,1.9097,1.9798,1.9798,1.9798,1.9798,1.9798,1.9798,1.9798,1.9798,1.9798,1.9798,0.7128,0.6766,0.6781,0.6756,0.8015,0.9592,1.0677,0.0,1.373,1.4675,0.0,1.5987,1.7176,0.0,0.0,1.7597,1.8648,1.9559,1.9697,2.018,2.0305,1.9618,1.9966,2.0706,2.1782,2.1008,2.02,1.9565,1.9527,1.9329,1.8883,1.7762,1.7219,1.7248,1.5602,1.4971,1.5499,1.4971,1.4698,1.4698,1.4754,1.4741,1.4649,1.4189,1.3888,1.3782,1.3253,1.3027,1.3027,1.3027,1.3027,1.3096,1.3848,1.4107,1.4209,1.4209,1.4482,1.4853,1.4853,1.5098,1.541,1.541,1.541,1.541,1.541,1.5468,1.569,1.6425,1.6595,1.6765,1.7413,1.7578,1.7578,1.7578,1.7567,1.7668,1.8169,1.8245,1.8353,1.8714,1.8802,1.8491,1.7615,1.7451,1.7704,1.8315,1.8211,1.8131,1.8431,1.7891,1.7451,1.7451,1.7109,1.709,1.7698,1.7459,1.7465,1.8038,1.779,1.7963,1.8555,1.9371,1.9798,1.9798,1.9798,1.9798,1.9798,1.9798,1.9798,1.9798,1.9798,1.9798,0.761,0.7235,0.7235,0.7235,0.808,0.9323,1.0842,1.2386,1.3761,1.4793,0.0,0.0,0.0,0.0,0.0,0.0,1.8422,1.8982,1.9337,1.9541,2.0079,2.1091,2.0864,2.0625,2.0811,2.074,2.0426,1.9849,1.9798,1.971,1.9497,1.84,1.7842,1.7865,1.6471,1.5876,1.6139,1.5876,1.5744,1.5744,1.5744,1.5555,1.5231,1.496,1.4641,1.4329,1.4061,1.3931,1.3931,1.3931,1.3742,1.346,1.3779,1.3841,1.3769,1.3769,1.4043,1.4459,1.4837,1.5284,1.5782,1.6434,1.6687,1.6687,1.6687,1.6957,1.739,1.7677,1.8058,1.8501,1.8821,1.8874,1.8874,1.8874,1.8555,1.8398,1.9054,1.883,1.8559,1.8767,1.8802,1.8578,1.8027,1.8091,1.8394,1.8682,1.8605,1.8606,1.8714,1.8445,1.827,1.827,1.8091,1.798,1.8062,1.7926,1.786,1.7902,1.813,1.8555,1.9319,1.9643,1.9798,1.9798,1.9798,1.9798,1.9798,1.9798,1.9798,1.9798,1.9798,1.9798,0.8037,0.7824,0.7972,0.7972,0.8633,0.971,1.1438,1.2729,1.387,1.507,1.5722,0.0,0.0,0.0,1.705,1.802,0.0,1.8352,1.8893,1.8859,1.9488,2.1484,2.1204,2.0665,2.0087,2.0413,2.0426,1.9849,1.9798,1.9798,1.9798,1.8781,1.8204,1.8204,1.7112,1.6522,1.6522,1.6522,1.6522,1.6522,1.6522,1.6281,1.582,1.5676,1.5365,1.4926,1.4789,1.4698,1.4698,1.4698,1.4422,1.405,1.3862,1.37,1.3561,1.338,1.3696,1.425,1.4728,1.5458,1.6256,1.7092,1.7466,1.7578,1.7578,1.795,1.8447,1.8661,1.9097,1.954,1.9747,1.9798,1.9798,1.9798,1.9371,1.915,1.9683,1.9371,1.898,1.898,1.898,1.894,1.8719,1.8747,1.8781,1.9005,1.8952,1.8926,1.9028,1.884,1.8722,1.8722,1.86,1.8494,1.843,1.8396,1.8349,1.819,1.8715,1.9254,1.9798,1.9798,1.9798,1.9798,1.9798,1.9798,1.9798,1.9798,1.9798,1.9798,1.9798,1.9798,0.7883,0.8178,0.8678,0.8678,0.9688,1.1098,1.2434,1.3294,1.4118,1.5355,1.5623,1.5952,1.7076,1.7284,1.7476,1.8001,1.8094,0.0,0.0,1.8582,1.864,1.9743,2.0794,2.1242,2.0743,2.0706,2.0426,1.9849,1.9798,1.9798,1.9798,1.8781,1.8204,1.8204,1.7112,1.6522,1.6522,1.6522,1.6522,1.6522,1.6522,1.6479,1.6466,1.5864,1.5588,1.5543,1.4971,1.4698,1.4698,1.4698,1.4709,1.4606,1.405,1.3779,1.3705,1.3123,1.353,1.4372,1.4411,1.5469,1.6799,1.681,1.7187,1.7578,1.7578,1.7633,1.7797,1.8501,1.8715,1.8874,1.9631,1.9798,1.9798,1.9798,1.9798,1.9747,1.9798,1.9798,1.9747,1.9747,1.9747,1.9759,1.9772,1.8959,1.8566,1.93,1.9078,1.9039,1.9371,1.8737,1.8349,1.8349,1.7913,1.7941,1.8632,1.8685,1.9004,1.9695,1.9747,1.9798,1.9798,1.9798,1.9798,1.9798,1.9798,1.9798,1.9798,1.9798,1.9798,1.9798,1.9798,1.9798,0.8728,0.903,0.9945,1.0634,1.1527,1.2493,1.3641,1.4767,1.554,1.5528,1.6683,1.7691,1.7637,1.8198,1.8869,1.9388,1.9287,1.9169,0.0,1.8714,1.8166,1.8086,1.9436,2.0015,1.9132,2.0029,2.0271,1.9334,1.961,1.9798,1.9798,1.8781,1.8204,1.8204,1.7112,1.6522,1.6522,1.6522,1.6522,1.6522,1.6522,1.6522,1.6466,1.6281,1.6194,1.6194,1.5976,1.5876,1.5876,1.5876,1.5656,1.5276,1.5096,1.4732,1.4283,1.3296,1.3106,1.3549,1.4747,1.6038,1.7243,1.7593,1.7834,1.7917,1.7428,1.784,1.8485,1.8255,1.8766,1.9475,1.9747,1.9798,1.9798,1.9798,1.9798,1.9798,1.9798,1.9798,1.9798,1.9798,1.9798,1.9798,1.9798,1.9519,1.9364,1.9642,1.9575,1.957,1.9666,1.9429,1.931,1.931,1.9153,1.915,1.9423,1.9423,1.9527,1.9798,1.9798,1.9798,1.9798,1.9798,1.9798,1.9798,1.9798,1.9798,1.9798,1.9798,1.9798,1.9798,1.9798,1.9798,0.956,1.006,1.1101,1.1943,1.2687,1.3584,1.5042,1.5969,1.6632,1.6844,1.8015,1.8965,1.8841,1.931,1.9836,2.0342,1.9963,1.9339,0.0,1.7784,1.7118,1.667,1.8164,1.9046,1.8546,1.9166,1.9334,1.8672,1.8858,1.915,1.9411,1.8413,1.7941,1.8204,1.7112,1.6522,1.6522,1.6522,1.6522,1.6522,1.6522,1.6522,1.6522,1.6522,1.6522,1.6522,1.6522,1.6522,1.6522,1.6522,1.6281,1.5908,1.5676,1.5365,1.4926,1.3931,1.3705,1.4057,1.5394,1.6529,1.7438,1.779,1.8041,1.8097,1.7629,1.8216,1.8921,1.8434,1.9017,1.9798,1.9798,1.9798,1.9798,1.9798,1.9798,1.9798,1.9798,1.9798,1.9798,1.9798,1.9798,1.9798,1.9798,1.9798,1.9798,1.9798,1.9798,1.9798,1.9798,1.9798,1.9798,1.9798,1.9798,1.9798,1.9798,1.9798,1.9798,1.9798,1.9798,1.9798,1.9798,1.9798,1.9798,1.9798,1.9798,1.9798,1.9798,1.9798,1.9798,1.9798,1.9798,1.9798]},{"header":{"parameterUnit":"m.s-1","parameterCategory":1,"la1":30.6,"la2":29.2853,"lo1":-89.7004,"lo2":-87.6739,"dy":0.0162,"dx":0.0183,"nx":112,"ny":82,"refTime":"2024-06-11T18:00:00:Z","depth":0,"parameterNumber":3,"parameterNumberName":"V-component_of_WINDS"},"data":[0.0,0.0,0.0,0.0,0.0,0.0,0.0,0.0,0.0,0.0,0.0,0.0,0.0,0.0,0.0,0.0,0.0,0.0,0.0,0.0,0.0,0.0,0.0,0.0,0.0,0.0,0.0,0.0,0.0,0.0,0.0,0.0,0.0,0.0,0.0,0.0,0.0,0.0,0.0,0.0,0.0,0.0,0.0,0.0,0.0,0.0,0.0,0.0,0.0,0.0,0.0,0.0,0.0,0.0,0.0,0.0,0.0,0.0,0.0,0.0,0.0,0.0,0.0,0.0,0.0,0.0,0.0,0.0,0.0,0.0,0.0,0.0,0.0,0.0,0.0,0.0,0.0,0.0,0.0,0.0,0.0,0.0,0.0,0.0,0.0,0.0,0.0,0.0,0.0,0.0,2.1387,1.9771,1.7074,1.4903,1.3779,1.319,1.343,1.4617,0.0,0.0,0.0,0.0,0.0,0.0,0.0,0.0,0.0,0.0,0.0,0.0,0.0,0.0,0.0,0.0,0.0,0.0,0.0,0.0,0.0,0.0,0.0,0.0,0.0,0.0,0.0,0.0,0.0,0.0,0.0,0.0,0.0,0.0,0.0,0.0,0.0,0.0,0.0,0.0,0.0,0.0,0.0,0.0,0.0,0.0,0.0,0.0,0.0,0.0,0.0,0.0,0.0,0.0,0.0,0.0,0.0,0.0,0.0,0.0,0.0,0.0,0.0,0.0,0.0,0.0,0.0,0.0,0.0,0.0,0.0,0.0,0.0,0.0,0.0,0.0,0.0,0.0,0.0,0.0,0.0,0.0,0.0,0.0,0.0,0.0,0.0,0.0,0.0,0.0,0.0,0.0,0.0,0.0,0.0,0.0,0.0,0.0,0.0,0.0,0.0,0.0,0.0,0.0,2.0366,1.725,1.5656,1.4329,1.3152,1.2978,1.343,1.4617,0.0,0.0,0.0,0.0,0.0,0.0,0.0,0.0,0.0,0.0,0.0,0.0,0.0,0.0,0.0,0.0,0.0,0.0,0.0,0.0,0.0,0.0,0.0,0.0,0.0,0.0,0.0,0.0,0.0,0.0,0.0,0.0,0.0,0.0,0.0,0.0,0.0,0.0,0.0,0.0,0.0,0.0,0.0,0.0,0.0,0.0,0.0,0.0,0.0,0.0,0.0,0.0,0.0,0.0,0.0,0.0,0.0,0.0,0.0,0.0,0.0,0.0,0.0,0.0,0.0,0.0,0.0,0.0,0.0,0.0,0.0,0.0,0.0,0.0,0.0,0.0,0.0,0.0,0.0,0.0,0.0,0.0,0.0,0.0,0.0,0.0,0.0,0.0,0.0,0.0,0.0,0.0,0.0,0.0,0.0,0.0,0.0,0.0,0.0,0.0,0.0,0.0,0.0,2.03,1.8555,1.6126,1.4858,1.3884,1.2968,1.2881,1.343,1.4617,1.4698,0.0,0.0,0.0,0.0,0.0,0.0,0.0,0.0,0.0,0.0,0.0,0.0,0.0,0.0,0.0,0.0,0.0,0.0,0.0,0.0,0.0,0.0,0.0,0.0,0.0,0.0,0.0,0.0,0.0,0.0,0.0,0.0,0.0,0.0,0.0,0.0,0.0,0.0,0.0,0.0,0.0,0.0,0.0,0.0,0.0,0.0,0.0,0.0,0.0,0.0,0.0,0.0,0.0,0.0,0.0,0.0,0.0,0.0,0.0,0.0,0.0,0.0,0.0,0.0,0.0,0.0,0.0,0.0,0.0,0.0,0.0,0.0,0.0,0.0,0.0,0.0,0.0,0.0,0.0,0.0,0.0,0.0,0.0,0.0,0.0,0.0,0.0,0.0,0.0,0.0,0.0,0.0,0.0,0.0,0.0,0.0,0.0,0.0,0.0,0.0,0.0,0.0,1.8935,1.7196,1.5656,1.447,1.3494,1.2706,1.2774,1.3334,1.4411,1.4595,0.0,0.0,0.0,0.0,0.0,0.0,0.0,0.0,0.0,0.0,0.0,0.0,0.0,0.0,0.0,0.0,0.0,0.0,0.0,0.0,0.0,0.0,0.0,0.0,0.0,0.0,0.0,0.0,0.0,0.0,0.0,0.0,0.0,0.0,0.0,0.0,0.0,0.0,0.0,0.0,0.0,0.0,0.0,0.0,0.0,0.0,0.0,0.0,0.0,0.0,0.0,0.0,0.0,0.0,0.0,0.0,0.0,0.0,0.0,0.0,0.0,0.0,0.0,0.0,0.0,0.0,0.0,0.0,0.0,0.0,0.0,0.0,0.0,0.0,0.0,0.0,0.0,0.0,0.0,0.0,0.0,0.0,0.0,0.0,0.0,0.0,0.0,0.0,0.0,0.0,0.0,0.0,0.0,0.0,0.0,0.0,0.0,0.0,0.0,0.0,0.0,0.0,1.8826,1.7196,1.5656,1.447,1.3283,1.1963,1.2501,1.3132,1.3705,1.4354,0.0,0.0,0.0,0.0,0.0,0.0,0.0,0.0,0.0,0.0,0.0,0.0,0.0,0.0,0.0,0.0,0.0,0.0,0.0,0.0,0.0,0.0,0.0,0.0,0.0,0.0,0.0,0.0,0.0,0.0,0.0,0.0,0.0,0.0,0.0,0.0,0.0,0.0,0.0,0.0,0.0,0.0,0.0,0.0,0.0,0.0,0.0,0.0,0.0,0.0,0.0,0.0,0.0,0.0,0.0,0.0,0.0,0.0,0.0,0.0,0.0,0.0,0.0,0.0,0.0,0.0,0.0,0.0,0.0,0.0,0.0,0.0,0.0,0.0,0.0,0.0,0.0,0.0,0.0,0.0,0.0,0.0,0.0,0.0,0.0,0.0,0.0,0.0,0.0,0.0,0.0,0.0,0.0,0.0,0.0,0.0,0.0,0.0,0.0,0.0,0.0,0.0,1.7596,1.5997,1.5106,1.3527,1.2511,1.2501,1.2344,1.2803,1.4204,0.0,0.0,0.0,0.0,0.0,0.0,0.0,0.0,0.0,0.0,0.0,0.0,0.0,0.0,0.0,0.0,0.0,0.0,0.0,0.0,0.0,0.0,0.0,0.0,0.0,0.0,0.0,0.0,0.0,0.0,0.0,0.0,0.0,0.0,0.0,0.0,0.0,0.0,0.0,0.0,0.0,0.0,0.0,0.0,0.0,0.0,0.0,0.0,0.0,0.0,0.0,0.0,0.0,0.0,0.0,0.0,0.0,0.0,0.0,0.0,0.0,0.0,0.0,0.0,0.0,0.0,0.0,0.0,0.0,0.0,0.0,0.0,0.0,0.0,0.0,0.0,0.0,0.0,0.0,0.0,0.0,0.0,0.0,0.0,0.0,0.0,0.0,0.0,0.0,0.0,0.0,0.0,0.0,0.0,0.0,0.0,0.0,0.0,0.0,0.0,0.0,0.0,1.8631,1.6757,1.5206,1.4503,1.2831,1.1975,1.232,1.2006,1.2474,1.4078,0.0,0.0,0.0,0.0,0.0,0.0,0.0,0.0,0.0,0.0,0.0,0.0,0.0,0.0,0.0,0.0,0.0,0.0,0.0,0.0,0.0,0.0,0.0,0.0,0.0,0.0,0.0,0.0,0.0,0.0,0.0,0.0,0.0,0.0,0.0,0.0,0.0,0.0,0.0,0.0,0.0,0.0,0.0,0.0,0.0,0.0,0.0,0.0,0.0,0.0,0.0,0.0,0.0,0.0,0.0,0.0,0.0,0.0,0.0,0.0,0.0,0.0,0.0,0.0,0.0,0.0,0.0,0.0,0.0,0.0,0.0,0.0,0.0,0.0,0.0,0.0,0.0,0.0,0.0,0.0,0.0,0.0,0.0,0.0,0.0,0.0,0.0,0.0,0.0,0.0,0.0,0.0,0.0,0.0,0.0,0.0,0.0,0.0,0.0,0.0,0.0,0.0,1.7995,1.6468,1.5071,1.3909,1.2599,1.1612,1.1217,1.154,1.2148,0.0,0.0,0.0,0.0,0.0,0.0,0.0,0.0,0.0,0.0,0.0,0.0,0.0,0.0,0.0,0.0,0.0,0.0,0.0,0.0,0.0,0.0,0.0,0.0,0.0,0.0,0.0,0.0,0.0,0.0,0.0,0.0,0.0,0.0,0.0,0.0,0.0,0.0,0.0,0.0,0.0,0.0,0.0,0.0,0.0,0.0,0.0,0.0,0.0,0.0,0.0,0.0,0.0,0.0,0.0,0.0,0.0,0.0,0.0,0.0,0.0,0.0,0.0,0.0,0.0,0.0,0.0,0.0,0.0,0.0,0.0,0.0,0.0,0.0,0.0,0.0,0.0,0.0,0.0,0.0,0.0,0.0,0.0,0.0,0.0,0.0,0.0,0.0,0.0,0.0,0.0,0.0,0.0,0.0,0.0,0.0,0.0,0.0,0.0,0.0,0.0,0.0,0.0,1.7584,1.5929,1.447,1.3215,1.1895,1.1111,1.117,1.1149,1.1859,1.3663,0.0,0.0,0.0,0.0,0.0,0.0,0.0,0.0,0.0,0.0,0.0,0.0,0.0,0.0,0.0,0.0,0.0,0.0,0.0,0.0,0.0,0.0,0.0,0.0,0.0,0.0,0.0,0.0,0.0,0.0,0.0,0.0,0.0,0.0,0.0,0.0,0.0,0.0,0.0,0.0,0.0,0.0,0.0,0.0,0.0,0.0,0.0,0.0,0.0,0.0,0.0,0.0,0.0,0.0,0.0,0.0,0.0,0.0,0.0,0.0,0.0,0.0,0.0,0.0,0.0,0.0,0.0,0.0,0.0,0.0,0.0,0.0,0.0,0.0,0.0,0.0,0.0,0.0,0.0,0.0,0.0,0.0,0.0,0.0,0.0,0.0,0.0,0.0,0.0,0.0,0.0,0.0,0.0,0.0,0.0,0.0,0.0,0.0,0.0,0.0,0.0,0.0,1.7072,1.5572,1.4226,1.2957,1.1523,1.0848,1.1315,1.0924,1.1533,1.3669,0.0,0.0,0.0,0.0,0.0,0.0,0.0,0.0,0.0,0.0,0.0,0.0,0.0,0.0,0.0,0.0,0.0,0.0,0.0,0.0,0.0,0.0,0.0,0.0,0.0,0.0,0.0,0.0,0.0,0.0,0.0,0.0,0.0,0.0,0.0,0.0,0.0,0.0,0.0,0.0,0.0,0.0,0.0,0.0,0.0,0.0,0.0,0.0,0.0,0.0,0.0,0.0,0.0,0.0,0.0,0.0,0.0,0.0,0.0,0.0,0.0,0.0,0.0,0.0,0.0,0.0,0.0,0.0,0.0,0.0,0.0,0.0,0.0,0.0,0.0,0.0,0.0,0.0,0.0,0.0,0.0,0.0,0.0,0.0,0.0,0.0,0.0,0.0,0.0,0.0,0.0,0.0,0.0,0.0,0.0,0.0,0.0,0.0,0.0,0.0,0.0,0.0,1.6565,1.5339,1.419,1.2861,1.1318,1.0684,1.1402,1.0773,1.1168,1.3156,0.0,0.0,0.0,0.0,0.0,0.0,0.0,0.0,0.0,0.0,0.0,0.0,0.0,0.0,0.0,0.0,0.0,0.0,0.0,0.0,0.0,0.0,0.0,0.0,0.0,0.0,0.0,0.0,0.0,0.0,0.0,0.0,0.0,0.0,0.0,0.0,0.0,0.0,0.0,0.0,0.0,0.0,0.0,0.0,0.0,0.0,0.0,0.0,0.0,0.0,0.0,0.0,0.0,0.0,0.0,0.0,0.0,0.0,0.0,0.0,2.333,2.2776,0.0,0.0,0.0,0.0,0.0,0.0,0.0,0.0,0.0,0.0,0.0,0.0,0.0,0.0,0.0,0.0,0.0,0.0,0.0,0.0,0.0,0.0,0.0,0.0,0.0,0.0,0.0,0.0,0.0,0.0,0.0,0.0,0.0,0.0,0.0,0.0,0.0,0.0,0.0,0.0,1.6536,1.5339,1.3889,1.178,1.0863,1.0348,1.0288,1.0009,1.0534,1.2133,1.2913,0.0,0.0,0.0,0.0,0.0,0.0,0.0,0.0,0.0,0.0,0.0,0.0,0.0,0.0,0.0,0.0,0.0,0.0,0.0,0.0,0.0,0.0,0.0,0.0,0.0,0.0,0.0,0.0,0.0,0.0,0.0,0.0,0.0,0.0,0.0,0.0,0.0,0.0,0.0,0.0,0.0,0.0,0.0,0.0,0.0,0.0,0.0,0.0,0.0,0.0,0.0,0.0,0.0,0.0,0.0,0.0,0.0,0.0,0.0,2.4287,2.3782,0.0,0.0,0.0,0.0,0.0,0.0,0.0,0.0,0.0,0.0,0.0,0.0,0.0,0.0,0.0,0.0,0.0,0.0,0.0,0.0,0.0,0.0,0.0,0.0,0.0,0.0,0.0,0.0,0.0,0.0,0.0,0.0,0.0,0.0,0.0,0.0,0.0,0.0,0.0,0.0,1.6536,1.5339,1.4,1.2187,1.0901,1.0323,1.0693,0.9961,1.0168,1.1762,1.2458,0.0,0.0,0.0,0.0,0.0,0.0,0.0,0.0,0.0,0.0,0.0,0.0,0.0,0.0,0.0,0.0,0.0,0.0,0.0,0.0,0.0,0.0,0.0,0.0,0.0,0.0,0.0,0.0,0.0,0.0,0.0,0.0,0.0,0.0,0.0,0.0,0.0,0.0,0.0,0.0,0.0,0.0,0.0,0.0,0.0,0.0,0.0,0.0,0.0,0.0,0.0,0.0,0.0,2.686,2.6916,2.7058,2.6418,2.6017,2.5819,2.5201,2.4824,2.4592,2.4211,0.0,0.0,0.0,0.0,0.0,0.0,0.0,0.0,0.0,0.0,0.0,0.0,0.0,0.0,0.0,0.0,0.0,0.0,0.0,0.0,0.0,0.0,2.3664,2.2981,2.3548,2.3763,2.2074,0.0,0.0,0.0,0.0,0.0,0.0,0.0,0.0,0.0,0.0,0.0,1.6632,1.5428,1.4261,1.3042,1.1287,1.0507,1.1412,1.0254,1.0052,1.1466,1.2019,1.2374,0.0,0.0,0.0,0.0,0.0,0.0,0.0,0.0,0.0,0.0,0.0,0.0,0.0,0.0,0.0,0.0,0.0,0.0,0.0,0.0,0.0,0.0,0.0,0.0,0.0,0.0,0.0,0.0,0.0,0.0,0.0,0.0,2.3601,2.3538,0.0,0.0,0.0,0.0,0.0,0.0,0.0,0.0,0.0,0.0,0.0,0.0,0.0,2.6823,2.6898,2.6898,2.6898,2.6898,2.672,2.6657,2.668,2.6587,2.6512,2.6491,2.6373,0.0,2.5595,2.6391,0.0,0.0,0.0,0.0,0.0,0.0,0.0,0.0,0.0,0.0,0.0,0.0,0.0,0.0,0.0,0.0,0.0,0.0,0.0,0.0,0.0,0.0,2.5857,2.4075,2.4844,2.5706,2.4756,2.4365,2.4257,2.4493,2.4396,2.4159,0.0,0.0,0.0,0.0,0.0,0.0,1.7165,1.5704,1.4257,1.3167,1.1955,1.1158,1.1013,1.0387,1.0128,1.0459,1.1389,1.2103,1.2569,1.3581,0.0,0.0,0.0,0.0,0.0,0.0,0.0,0.0,0.0,0.0,0.0,0.0,0.0,0.0,0.0,0.0,0.0,0.0,0.0,0.0,0.0,0.0,0.0,0.0,0.0,0.0,0.0,0.0,0.0,2.4001,2.3815,2.4049,2.4486,2.4769,0.0,0.0,0.0,0.0,0.0,0.0,0.0,0.0,0.0,2.6722,2.7284,2.781,2.8294,2.8428,2.8482,2.8464,2.8372,2.8353,2.8334,2.7886,2.768,2.768,2.768,2.7522,2.7266,2.7135,2.6872,2.6527,0.0,0.0,0.0,0.0,2.7031,2.7246,2.8101,2.7994,2.7523,2.7939,0.0,0.0,0.0,0.0,0.0,0.0,0.0,2.6768,2.6706,2.6884,2.6862,2.5976,2.667,2.7436,2.7081,2.7204,2.7027,2.581,2.5754,2.5508,2.4234,2.3152,0.0,0.0,0.0,1.788,1.7261,1.576,1.4391,1.3577,1.2258,1.1379,1.1285,1.0816,1.0572,1.0669,1.1653,1.2169,1.2163,1.3126,1.3915,0.0,0.0,0.0,0.0,0.0,0.0,0.0,0.0,0.0,0.0,0.0,0.0,0.0,0.0,0.0,0.0,0.0,0.0,0.0,0.0,0.0,0.0,0.0,0.0,0.0,0.0,0.0,0.0,2.4313,2.4322,2.464,2.5073,2.5289,0.0,0.0,0.0,0.0,0.0,0.0,2.7431,2.7616,2.8005,2.8598,2.8968,2.9457,3.0111,3.0264,3.0336,3.0336,3.0129,3.0034,2.9996,2.9183,2.8806,2.8806,2.8806,2.8806,2.8749,2.8048,2.7744,2.7698,2.7958,2.7942,2.7797,2.8218,2.832,2.8393,2.9258,2.9313,2.9057,2.934,2.9182,2.8753,2.8135,0.0,0.0,0.0,0.0,2.786,2.795,2.803,2.7989,2.7552,2.824,2.8924,2.8696,2.926,2.9192,2.7261,2.7232,2.6934,2.5042,2.3901,0.0,2.1472,1.9612,1.8138,1.7504,1.5978,1.4698,1.4097,1.2979,1.2148,1.2013,1.1824,1.1633,1.142,1.2213,1.2495,1.2004,1.3226,1.415,1.4631,0.0,0.0,0.0,0.0,0.0,0.0,0.0,0.0,0.0,0.0,0.0,0.0,0.0,0.0,0.0,0.0,0.0,0.0,0.0,0.0,0.0,0.0,0.0,0.0,0.0,0.0,0.0,0.0,0.0,2.4903,2.5579,0.0,0.0,0.0,0.0,2.8376,2.9861,3.0447,2.9672,3.0352,3.0787,3.0843,3.158,3.2014,3.2052,3.2071,3.2071,3.2071,3.1297,3.092,3.0901,3.0034,2.9657,2.9657,2.9657,2.9657,2.9638,2.9794,2.9408,2.875,2.8948,2.8555,2.7978,2.8758,2.9058,2.9196,3.0185,2.9989,2.9425,3.0327,3.0057,2.9324,2.9175,2.8581,0.0,0.0,2.9025,2.9025,2.9025,2.9629,2.9848,2.8253,2.9118,3.0079,2.9252,2.9551,2.9842,2.9323,2.8956,2.8275,2.6899,0.0,2.4081,2.2293,2.0355,1.8823,1.8135,1.6591,1.532,1.4698,1.4584,1.4146,1.312,1.3609,1.3541,1.2575,1.2968,1.3019,1.2484,1.4469,1.5784,1.6173,1.7675,0.0,0.0,0.0,0.0,0.0,0.0,0.0,0.0,0.0,0.0,0.0,0.0,0.0,0.0,0.0,0.0,0.0,0.0,0.0,0.0,0.0,0.0,0.0,0.0,0.0,0.0,0.0,0.0,2.7843,2.8366,0.0,2.8519,2.9683,3.0337,3.0124,3.1126,3.1636,3.1352,3.1617,3.1768,3.1768,3.2212,3.245,3.245,3.2596,3.2656,3.2656,3.2369,3.2216,3.2216,3.1895,3.1762,3.1762,3.1762,3.1762,3.1757,3.1832,3.0877,2.9412,2.9589,2.9499,2.9321,2.9778,2.9957,3.0047,3.0416,3.038,3.0274,3.0684,3.0567,3.0221,3.018,2.993,2.9732,2.993,2.9989,2.9989,2.9952,3.0179,3.0244,2.966,2.9967,3.0278,2.9794,2.9846,2.9877,2.9493,2.9089,2.8372,2.7032,2.5689,2.418,2.2375,2.0399,1.8864,1.8175,1.6634,1.5543,1.532,1.4926,1.4462,1.3795,1.4241,1.428,1.3595,1.4361,1.4612,1.4076,1.5407,1.6742,1.796,1.8172,1.9011,0.0,0.0,0.0,0.0,0.0,0.0,0.0,0.0,0.0,0.0,0.0,0.0,0.0,0.0,0.0,0.0,0.0,0.0,0.0,0.0,0.0,0.0,0.0,0.0,0.0,2.9362,2.9512,3.0216,3.0604,3.0721,3.0509,3.1386,3.1849,3.1648,3.2676,3.3189,3.2885,3.3151,3.3437,3.3703,3.3624,3.3714,3.4054,3.3891,3.3809,3.3845,3.3575,3.3439,3.342,3.313,3.2995,3.2995,3.2995,3.2995,3.2995,3.2995,3.2162,3.0866,3.0647,3.0406,3.0183,3.0367,3.0462,3.0516,3.0547,3.0667,3.0772,3.082,3.0771,3.0749,3.1003,3.1034,3.0987,3.0917,3.0897,3.0839,3.0491,3.0398,3.0398,3.0398,3.0323,3.0209,3.0028,2.9893,2.9677,2.9277,2.8986,2.8463,2.7371,2.6034,2.4623,2.3034,2.1045,1.939,1.8559,1.7099,1.6015,1.5632,1.5576,1.5401,1.494,1.5531,1.5764,1.5415,1.6172,1.6438,1.6145,1.7234,1.8463,1.9737,1.9809,2.0689,2.2408,0.0,0.0,0.0,0.0,0.0,0.0,0.0,0.0,0.0,0.0,0.0,0.0,0.0,0.0,0.0,0.0,0.0,0.0,0.0,0.0,0.0,0.0,0.0,3.1817,3.1757,3.1757,3.1794,3.2108,3.2406,3.2645,3.3436,3.3666,3.3064,3.4597,3.5193,3.4379,3.5097,3.5925,3.6719,3.6001,3.6023,3.6917,3.6075,3.5678,3.5723,3.4912,3.4549,3.451,3.3653,3.329,3.329,3.329,3.329,3.329,3.329,3.3251,3.3141,3.2104,3.1223,3.0546,3.0507,3.0507,3.0521,3.0646,3.0793,3.0878,3.0743,3.0693,3.0829,3.1592,3.1796,3.1777,3.1754,3.1718,3.1506,3.066,3.0417,3.0398,3.0398,3.0182,2.9999,2.9984,2.9678,2.9293,2.8879,2.8792,2.8579,2.7974,2.6703,2.5422,2.437,2.2328,0.0,1.9293,1.8085,1.6938,1.5808,1.6659,1.7092,1.6506,1.7504,1.8058,1.7963,1.8291,1.8532,1.8604,2.0007,2.1044,2.1584,2.2709,2.3518,2.4031,0.0,0.0,0.0,0.0,0.0,0.0,0.0,0.0,0.0,0.0,0.0,0.0,0.0,0.0,0.0,0.0,0.0,0.0,0.0,0.0,0.0,3.3866,3.4094,3.3072,3.2919,3.3164,3.3802,3.4643,3.4958,3.4456,3.5988,3.6656,3.5858,3.628,3.6762,3.7159,3.68,3.6968,3.7754,3.7628,3.7628,3.7848,3.7033,3.6623,3.6625,3.5788,3.5379,3.536,3.5126,3.501,3.501,3.501,3.501,3.501,3.501,3.4689,3.4062,3.2474,3.17,3.1437,3.0808,3.0592,3.065,3.0684,3.0714,3.0743,3.0657,3.058,3.0715,3.1543,3.1767,3.1854,3.2403,3.216,3.1641,3.141,3.0733,3.0103,3.0103,2.9939,2.9729,2.9607,2.9493,2.923,2.8634,2.8306,2.8012,2.756,2.6319,2.5099,2.4312,2.2722,2.1152,1.9841,1.9029,1.8289,1.7517,1.7679,1.7814,1.7639,1.8413,1.8954,1.9064,1.9999,2.0676,2.0882,2.1974,2.2903,2.3586,2.4394,2.4775,0.0,0.0,0.0,0.0,0.0,0.0,0.0,0.0,0.0,0.0,0.0,0.0,0.0,0.0,0.0,0.0,0.0,0.0,0.0,0.0,0.0,0.0,3.5863,3.6303,3.5565,3.5441,3.5652,3.6142,3.676,3.6948,3.6485,3.7529,3.8024,3.7519,3.7518,3.776,3.8273,3.7826,3.7926,3.8753,3.8471,3.8474,3.8821,3.8001,3.7435,3.7125,3.6614,3.6185,3.5834,3.5834,3.5834,3.5834,3.5834,3.5806,3.5784,3.5784,3.5504,3.4921,0.0,0.0,0.0,0.0,3.0948,3.0659,3.0664,3.0665,3.0657,3.0581,3.0781,3.1206,3.2018,3.2482,3.2833,3.3314,3.2781,3.1999,3.1634,3.071,2.9877,2.9877,2.9731,2.9533,2.9433,2.9188,2.8814,2.8272,2.7908,0.0,2.7115,2.6002,2.5077,2.4676,2.3274,2.1766,2.0486,1.9815,1.9067,1.8214,1.8468,1.8736,1.8736,1.9684,0.0,0.0,0.0,2.2618,2.3211,2.3809,0.0,0.0,0.0,0.0,0.0,2.5203,0.0,0.0,2.6081,2.6185,0.0,0.0,0.0,0.0,0.0,0.0,0.0,0.0,0.0,0.0,0.0,0.0,0.0,0.0,0.0,0.0,3.743,3.8507,3.8611,3.863,3.8546,3.8332,3.839,3.841,3.8312,3.8475,3.8559,3.8462,3.8468,3.8513,3.8611,3.8533,0.0,0.0,0.0,3.9023,3.9841,3.8993,3.8233,3.7578,3.7382,3.6874,3.6111,3.6013,3.5975,3.5975,3.5975,3.5927,3.5873,3.5873,3.5807,3.5618,3.4814,3.4004,3.3195,3.2344,3.1493,3.0755,3.0749,0.0,0.0,3.0516,3.1081,3.1922,3.2659,3.3493,3.4172,3.4268,3.3527,3.2496,3.1622,3.0606,2.9774,2.968,2.9513,2.9351,2.9351,2.8837,2.8316,2.7982,2.7577,2.7178,2.6791,2.5944,2.5297,2.5297,2.3909,2.2517,2.141,2.0644,1.9753,1.8676,1.9288,0.0,1.9803,2.1103,2.2125,2.2602,2.3435,2.4304,2.5208,2.5291,2.5266,2.5149,2.5255,2.5215,2.5057,2.5331,2.5871,2.6632,2.6611,2.6689,0.0,0.0,0.0,0.0,0.0,0.0,0.0,0.0,0.0,0.0,0.0,0.0,0.0,0.0,0.0,3.7851,3.8787,3.9715,4.0521,4.064,4.0059,3.8488,3.8909,3.9064,3.8371,3.9613,4.0184,3.9486,3.9535,3.9898,4.0601,3.9976,3.9947,4.071,4.0667,4.0672,4.0742,3.9992,3.9472,3.9211,3.7867,0.0,3.6779,3.6084,3.5752,3.5752,3.5752,3.5741,3.5749,3.5749,3.5723,3.5613,3.4813,3.3979,3.3205,3.3014,3.2394,3.1638,3.1584,3.1114,3.0516,3.0441,3.1014,3.1869,3.2673,3.336,0.0,3.4732,3.4125,3.3072,3.224,3.1223,3.0256,2.9603,2.9267,2.9067,2.9067,2.8731,2.8316,2.7982,2.7577,2.7178,2.6791,2.621,2.5852,2.5852,2.4839,2.3955,2.3588,2.2539,2.171,2.1362,2.0964,2.0846,2.1131,2.2078,2.291,2.3418,2.4572,2.5294,2.5448,2.5453,2.5413,2.5337,2.5376,2.5368,2.5324,2.6113,2.6604,2.6759,2.6648,2.7007,0.0,0.0,0.0,0.0,0.0,0.0,0.0,0.0,0.0,0.0,0.0,3.5986,3.6476,0.0,3.8612,3.9113,3.9896,4.062,4.1133,4.1191,4.0838,3.9878,4.0145,4.0223,3.9793,4.0503,4.0859,4.048,4.0383,4.0577,4.1064,4.0616,4.0519,4.0889,4.0968,4.0968,4.0908,4.0538,4.0101,3.9636,3.8798,3.8131,3.7634,3.7187,3.6766,3.6358,3.6358,3.6083,3.5646,3.5621,3.5611,3.5572,3.5155,3.4497,3.3755,3.3755,3.3178,3.2339,3.1892,3.1465,3.1107,3.1068,3.1621,3.2468,3.3295,3.3963,3.4552,3.499,3.3885,3.2514,3.2103,3.0924,2.968,2.9292,2.9089,2.8994,2.8994,2.8558,2.8102,2.7926,2.7409,2.6939,2.6725,2.6521,2.6262,2.6049,2.5335,2.4641,2.4259,2.3639,2.2964,2.216,2.21,2.2073,2.195,2.3118,2.4076,2.4566,2.5227,2.5585,2.5541,2.5515,2.5473,2.5453,2.5453,2.5653,2.61,2.6573,2.725,2.8101,2.8041,2.8252,0.0,0.0,0.0,0.0,0.0,0.0,0.0,3.5001,3.5476,3.7097,3.7597,3.8018,3.8925,3.9804,4.0428,4.0584,4.103,4.1361,4.1361,4.1224,4.1126,4.1126,4.1171,4.1191,4.1191,4.108,4.103,4.115,4.095,4.085,4.0955,4.0864,4.0801,4.0801,4.0801,4.0801,4.0801,4.0801,4.0474,3.9807,3.9632,3.9188,3.85,3.8325,3.7859,3.718,3.7025,3.6416,3.5577,3.5522,3.5493,3.5493,3.5493,3.5104,3.4524,3.4524,3.3944,3.3064,3.241,3.2064,3.1917,3.1872,3.2417,3.3204,3.3853,3.4467,3.4925,3.4925,3.3614,3.2121,3.1786,3.0734,2.9562,2.9104,2.9104,2.92,2.9012,2.843,2.7897,2.7897,2.7241,2.6691,2.6691,2.6691,2.659,2.6191,2.5689,2.5201,2.4729,2.4535,2.4018,2.2998,2.3227,2.3254,2.2816,2.4046,2.5043,2.5464,2.5563,2.5593,2.5603,2.5551,2.558,2.5746,2.5775,2.6193,2.7074,2.7262,2.8065,2.9444,2.962,2.9674,3.0102,3.0967,3.202,3.3751,3.4276,3.4775,0.0,3.6806,3.7159,3.8073,3.8975,3.9863,4.0742,4.1511,4.2288,4.3068,4.2512,4.1992,4.1992,4.1337,4.0831,4.0831,4.1052,4.1191,4.1191,4.108,4.1019,4.1023,4.0877,4.0801,4.0816,4.0801,4.0801,4.0801,4.0801,4.0801,4.0801,4.0801,4.0731,4.0571,3.9777,3.934,3.9162,3.8392,3.7987,3.7852,3.7063,3.626,3.5515,3.5507,3.5493,3.5493,3.5493,3.543,3.538,3.538,3.4808,3.4026,3.3949,3.341,3.2731,3.2492,3.3001,3.3675,3.3544,3.3874,3.4292,3.4292,3.3963,3.3235,3.1826,3.1813,3.1678,2.9507,2.9549,2.9879,2.914,2.843,2.7897,2.7897,2.7241,2.6691,2.6691,2.6691,2.6691,2.6624,2.6227,2.6035,2.6387,2.5748,2.5389,2.5708,2.4846,2.4211,2.4099,2.4696,2.5189,2.5484,2.557,2.5604,2.5603,2.5598,2.5912,2.6646,2.6711,2.7178,2.8059,2.8881,2.9393,2.9608,3.037,3.0676,3.0936,3.238,3.3657,3.4378,3.4967,3.5821,3.7536,3.7909,3.8278,3.9626,4.0584,4.1286,4.1661,4.2389,4.3065,4.3422,4.2704,4.2097,4.2097,4.1357,4.0801,4.0801,4.135,4.172,4.172,4.1674,4.1844,4.237,4.178,4.1621,4.2177,4.1672,4.1603,4.2125,4.2144,4.1893,4.139,4.1371,4.1113,4.0568,4.0216,4.0039,3.9988,3.9623,3.92,3.8681,3.7296,3.6507,3.6161,3.5699,3.5493,3.5493,3.5493,3.5398,3.5289,3.5446,3.5276,3.4859,3.4189,3.3723,3.3387,3.3104,3.3279,3.3639,3.4035,3.4183,3.42,3.42,3.366,3.2963,3.2284,3.2008,3.1641,3.0632,3.0301,3.0118,2.9769,2.8737,2.7897,2.7897,2.7241,2.6691,2.6691,2.6906,2.6971,2.6725,2.6539,2.6573,2.6987,2.6742,2.639,2.6127,2.5448,2.4929,2.462,2.5007,2.5348,2.5484,2.5561,2.5618,2.5661,2.6148,2.6576,2.6917,2.7435,2.8141,2.902,2.9372,2.9775,3.0243,3.0576,3.069,3.2132,3.3578,3.4629,3.4844,3.5603,3.661,3.7862,3.8463,3.9097,4.035,4.1214,4.1883,4.2369,4.2937,4.3501,4.3986,4.3296,4.2712,4.2712,4.1974,4.1431,4.1431,4.2005,4.2481,4.2692,4.2529,4.2665,4.3306,4.2613,4.2456,4.3129,4.253,4.245,4.3085,4.3104,4.2797,4.2162,4.2162,4.1835,4.12,4.0969,4.0854,4.0854,4.0604,4.0046,3.9219,3.7969,3.7276,3.7007,3.643,3.6065,3.582,3.5758,3.5465,3.5105,3.5242,3.5289,3.5162,3.4327,3.4049,3.3995,3.3711,3.3627,3.3719,3.4277,3.4284,3.4074,3.4074,3.3529,3.2889,3.2669,3.2339,3.1935,3.1494,3.1109,3.0742,3.0301,2.9178,2.8202,2.8073,2.7317,2.6791,2.6987,2.7178,2.7241,2.7051,2.7019,2.7083,2.7272,2.75,2.7321,2.6573,2.6186,2.5731,2.5171,2.551,2.5766,2.5821,2.6106,2.6286,2.6357,2.6962,2.7412,2.7627,2.8252,2.8994,2.9874,2.9832,3.0108,3.0677,3.0608,3.0606,3.3945,3.4459,3.4698,3.5464,3.632,3.6988,3.7047,3.8351,3.9571,3.9629,4.0283,4.1365,4.3058,4.3285,4.3763,4.5461,4.4901,4.4218,4.4218,4.3544,4.3025,4.3025,4.3115,4.3465,4.4157,4.3578,4.3169,4.3189,4.3119,4.3066,4.3102,4.3085,4.3066,4.3104,4.3104,4.3085,4.3066,4.3066,4.3047,4.3008,4.2162,4.1758,4.1739,4.0893,4.0046,3.9296,3.9238,3.8738,3.7969,3.793,3.743,3.6632,3.6389,3.5789,3.507,3.4832,3.4714,3.4714,3.4695,3.4676,3.4615,3.4278,3.4181,3.4134,3.3902,3.3815,3.3815,3.3815,3.3788,3.3587,3.2816,3.3164,3.333,3.177,3.1971,3.21,3.054,2.9593,2.8927,2.8486,2.7465,2.6971,2.7725,2.753,2.7409,2.7811,2.7869,2.7725,2.7348,2.7901,2.8214,2.7798,2.7382,2.6836,2.6042,2.6326,2.6583,2.6649,2.745,2.7961,2.8021,2.804,2.8435,2.9219,2.9257,2.9711,3.0573,3.0567,3.0586,3.0606,3.0606,3.0606,3.3477,3.4456,3.5353,3.5626,3.5924,3.645,3.7591,3.8255,3.8937,4.0082,4.0924,4.1815,4.2994,4.3593,4.4299,4.5472,4.4906,4.4297,4.4297,4.3605,4.3104,4.3104,4.3593,4.4033,4.4295,4.4163,4.4258,4.4758,4.4234,4.4143,4.472,4.4201,4.4162,4.4739,4.4759,4.447,4.3893,4.3893,4.3624,4.3085,4.222,4.1508,4.0931,4.0456,4.0185,4.0046,3.9289,3.8798,3.8492,3.7919,3.7393,3.69,3.6291,3.5771,3.5277,3.4607,3.426,3.4136,3.433,3.4379,3.4311,3.4037,3.3935,3.3928,3.3815,3.3807,3.3807,3.3807,3.3807,3.3733,3.3476,3.3605,3.366,3.3109,3.2797,3.2467,3.1916,3.0557,2.9395,2.925,2.8273,2.756,2.7869,2.7974,2.8166,2.8558,2.8412,2.8166,2.8057,2.8489,2.8552,2.7879,2.7923,2.7662,2.6868,2.7205,2.7479,2.7558,2.7829,2.8032,2.8093,2.8604,2.9012,2.9291,2.988,3.0308,3.0606,3.0567,3.0537,3.0537,3.0491,3.0781,3.3973,3.4822,3.563,3.563,3.5553,3.5852,3.7254,3.7675,3.818,3.9702,4.0665,4.1581,4.2857,4.3528,4.4239,4.5413,4.5124,4.4759,4.4759,4.4316,4.3989,4.3989,4.4451,4.4759,4.4759,4.4835,4.5098,4.5565,4.5066,4.5009,4.5566,4.5066,4.5009,4.5566,4.5586,4.5316,4.4759,4.4651,4.4173,4.333,4.2774,4.1911,4.0778,4.0616,4.0387,4.0156,3.9393,3.9085,3.9047,3.8477,3.7955,3.7457,3.6863,3.6325,3.5814,3.4835,3.4378,3.4219,3.4104,3.4068,3.4018,3.3868,3.3807,3.3807,3.3807,3.3807,3.3807,3.3807,3.3807,3.3807,3.3807,3.3807,3.3807,3.3807,3.3421,3.2963,3.2669,3.1492,3.0378,2.9904,2.9008,2.833,2.8309,2.8699,2.9234,2.9777,2.9655,2.925,2.8705,2.8839,2.8792,2.8282,2.8334,2.8188,2.766,2.8058,2.8356,2.8386,2.8695,2.8878,2.8927,2.9419,2.9699,2.9699,3.025,3.0521,3.0521,3.0491,3.0453,3.0472,3.0417,3.0698,3.527,3.5476,3.5446,3.5446,3.5273,3.5299,3.6138,3.6727,3.744,3.8613,3.9547,4.075,4.2744,4.3124,4.3701,4.5316,4.5586,4.5586,4.5586,4.5586,4.5586,4.5586,4.5586,4.5586,4.5586,4.5586,4.5586,4.5568,4.5568,4.5568,4.5568,4.5568,4.5568,4.555,4.5568,4.5568,4.555,4.5222,4.4655,4.3776,4.3776,4.2902,4.1263,4.1263,4.0661,3.9599,3.9576,3.9576,3.9576,3.9576,3.9081,3.8277,3.7991,3.7415,3.6593,3.5478,3.5027,3.488,3.4137,3.3825,3.3807,3.3807,3.3807,3.3807,3.3807,3.3807,3.3807,3.3807,3.3807,3.3807,3.3807,3.3807,3.3807,3.3807,3.3807,3.3587,3.2834,3.2375,3.1764,3.0564,2.9728,2.9213,2.9119,2.9769,3.0522,3.1274,3.1384,3.0852,2.9305,2.9085,2.9049,2.9049,2.8706,2.8454,2.847,2.8886,2.9159,2.9159,2.9948,3.0398,3.0398,3.0398,3.0398,3.0398,3.0398,3.0398,3.0398,3.0398,3.0398,3.0398,3.0398,3.0424,3.4193,3.4571,3.4908,3.4908,3.4851,3.5172,3.6591,3.7003,3.761,3.9394,4.0425,4.1437,4.284,4.3585,4.4355,4.5413,4.5586,4.5586,4.5586,4.5586,4.5586,4.5586,4.5586,4.5586,4.5586,4.5586,4.5495,4.5243,4.5222,4.5222,4.5222,4.5222,4.5118,4.4853,4.5096,4.5118,4.4872,4.4757,4.4291,4.3434,4.3434,4.2545,4.0938,4.0679,4.0203,3.9599,3.9358,3.9231,3.9231,3.9231,3.8979,3.8533,3.7866,3.7477,3.72,3.6295,3.5569,3.4954,3.4752,3.4302,3.3807,3.3807,3.3807,3.3807,3.3807,3.3807,3.3807,3.3807,3.3807,3.3807,3.3807,3.3807,3.3807,3.3807,3.3807,3.3733,3.3532,3.2965,3.2381,3.2056,3.1349,3.0805,3.0791,3.0962,3.1146,3.1366,3.1384,3.1237,3.0834,3.0265,2.9898,2.9898,2.9437,2.9195,2.9358,2.9616,2.987,3.0052,3.0294,3.0398,3.0398,3.0398,3.0398,3.0398,3.0398,3.0398,3.0398,3.0398,3.0398,3.0398,3.0196,3.0758,3.4186,3.4453,3.4694,3.4694,3.4873,3.5387,3.6644,3.713,3.7772,3.951,4.0547,4.1528,4.2862,4.3758,4.4586,4.5451,4.5586,4.5586,4.5586,4.5586,4.5586,4.5586,4.5586,4.5531,4.5381,4.5381,4.5243,4.4896,4.503,4.5052,4.4896,4.4872,4.4781,4.4624,4.4781,4.4707,4.4318,4.4337,4.4093,4.3596,4.3596,4.2921,4.1665,4.112,4.0449,3.9712,3.9166,3.8905,3.8905,3.8905,3.8844,3.867,3.8193,3.8028,3.7918,3.711,3.6523,3.5991,3.5247,3.4963,3.4835,3.4449,3.4339,3.4339,3.4339,3.4339,3.4266,3.3899,3.3807,3.3807,3.3807,3.3807,3.3807,3.3807,3.3807,3.3807,3.3807,3.3458,3.3036,3.2687,3.1953,3.1513,3.1861,3.1935,3.2045,3.2394,3.2449,3.2449,3.2449,3.1439,3.0723,3.0723,3.0243,2.9956,3.0095,3.0037,3.0185,3.06,3.036,3.0335,3.06,3.029,3.0142,3.0209,3.0222,3.0279,3.0398,3.0398,3.0535,3.0803,3.0634,3.1194,3.4632,3.4612,3.4591,3.4591,3.4936,3.5522,3.6426,3.7008,3.7765,3.9245,4.0306,4.14,4.2718,4.3729,4.4593,4.5342,4.5513,4.5531,4.5531,4.5531,4.5531,4.5531,4.5495,4.5342,4.5074,4.503,4.4896,4.4553,4.4781,4.483,4.4527,4.4527,4.4527,4.4527,4.4474,4.428,4.3924,4.3924,4.3924,4.3924,4.3924,4.3472,4.2541,4.1835,4.0878,3.9698,3.9001,3.8707,3.8707,3.8707,3.8707,3.8707,3.8707,3.8707,3.8615,3.7918,3.7569,3.7276,3.5844,3.5771,3.6156,3.5265,3.5064,3.5155,3.5155,3.5082,3.4844,3.4174,3.388,3.3807,3.3807,3.3807,3.3807,3.3807,3.3807,3.3807,3.3807,3.3807,3.3587,3.2908,3.2192,3.1935,3.2651,3.2761,3.2999,3.3697,3.3807,3.3807,3.3807,3.2485,3.1549,3.1549,3.1053,3.0708,3.0751,3.043,3.0471,3.1016,3.0566,3.0522,3.1054,3.0394,3.0084,3.0278,3.0278,3.0348,3.0471,3.0567,3.0838,3.1251,3.1333,3.167,3.4288,3.4117,3.3954,3.3954,3.4031,3.4475,3.6002,3.6452,3.7016,3.8827,4.04,4.1638,4.2186,4.3526,4.4586,4.4738,4.5007,4.5201,4.5201,4.5201,4.5201,4.5201,4.4943,4.4757,4.4682,4.4701,4.4508,4.4117,4.4146,4.4175,4.4087,4.4087,4.4087,4.4087,4.3836,4.3664,4.3597,4.3597,4.3597,4.3597,4.3597,4.2842,4.1374,4.1245,4.0349,3.8909,3.8762,3.8707,3.8707,3.8707,3.8707,3.8707,3.8707,3.8707,3.8689,3.8542,3.8065,3.7441,3.7165,3.6725,3.6156,3.5265,3.5495,3.6064,3.6064,3.5587,3.4954,3.4825,3.4321,3.3807,3.3807,3.3807,3.3807,3.3807,3.3807,3.3807,3.3807,3.3807,3.3752,3.3623,3.3476,3.3421,3.3568,3.3587,3.3642,3.377,3.3807,3.3807,3.3807,3.2981,3.2394,3.2394,3.1709,3.1357,3.1567,3.1526,3.1594,3.1864,3.1789,3.1789,3.1902,3.177,3.1713,3.1751,3.1751,3.1429,3.0801,3.1482,3.1522,3.0977,3.1464,3.2126,3.3367,3.323,3.3286,3.3946,3.4422,3.5119,3.6586,3.7239,3.7963,3.9426,4.0728,4.1829,4.258,4.375,4.458,4.458,4.4732,4.4849,4.4849,4.4849,4.4849,4.4849,4.4701,4.4527,4.429,4.429,4.4136,4.3791,4.3758,4.3758,4.3758,4.3758,4.3758,4.3758,4.3597,4.3497,4.3497,4.3497,4.3497,4.3497,4.3497,4.2873,4.1717,4.1295,4.0451,3.9294,3.8891,3.8707,3.8707,3.8707,3.8707,3.8707,3.8707,3.8707,3.8707,3.8707,3.8469,3.8065,3.7643,3.7514,3.7404,3.6578,3.6303,3.6211,3.5771,3.5349,3.4899,3.4504,3.41,3.3807,3.3807,3.3807,3.3807,3.3807,3.3807,3.3807,3.3807,3.3807,3.3807,3.3807,3.3807,3.3807,3.3807,3.3807,3.3807,3.3807,3.3807,3.3807,3.3807,3.3458,3.322,3.322,3.2504,3.2077,3.2207,3.1964,3.198,3.2325,3.2107,3.2072,3.2367,3.1957,3.18,3.1948,3.1948,3.1803,3.1525,3.1921,3.2069,3.2002,3.2284,3.2781,3.2583,3.2583,3.2941,3.4114,3.4938,3.5836,3.7179,3.7973,3.878,3.9962,4.0903,4.1808,4.2893,4.3774,4.4364,4.4364,4.4419,4.4474,4.4474,4.4474,4.4474,4.4474,4.4419,4.4252,4.3924,4.3912,4.3772,4.3513,4.3497,4.3497,4.3497,4.3497,4.3497,4.3497,4.3497,4.3497,4.3497,4.3497,4.3497,4.3497,4.3314,4.2818,4.2029,4.1222,4.0414,3.9606,3.8964,3.8707,3.8707,3.8707,3.8707,3.8707,3.8707,3.8707,3.8707,3.8707,3.8707,3.8615,3.7973,3.8175,3.8579,3.7753,3.7184,3.6652,3.5807,3.544,3.5128,3.4302,3.3935,3.3807,3.3807,3.3807,3.3807,3.3807,3.3807,3.3807,3.3807,3.3807,3.3807,3.3807,3.3807,3.3807,3.3807,3.3807,3.3807,3.3807,3.3807,3.3807,3.3807,3.3807,3.3807,3.3807,3.3238,3.2871,3.2871,3.2471,3.2403,3.2816,3.2453,3.2421,3.2834,3.2247,3.2023,3.2224,3.2242,3.2222,3.2212,3.2381,3.263,3.2924,3.3091,3.3414,3.2517,3.2809,3.3334,3.4176,3.472,3.5475,3.7129,3.7581,3.8058,3.9632,4.0588,4.1397,4.2239,4.3063,4.3597,4.3597,4.3868,4.4076,4.4076,4.4076,4.4076,4.4076,4.3791,4.3582,4.3548,4.3548,4.3548,4.3479,4.3497,4.3497,4.3497,4.3497,4.3497,4.3497,4.3497,4.3497,4.3497,4.3497,4.3497,4.3479,4.2763,4.1992,4.1185,4.0377,3.957,3.8817,3.8726,3.8707,3.8707,3.8707,3.8707,3.8707,3.8707,3.8707,3.8707,3.8707,3.8707,3.8689,3.8615,3.8634,3.8579,3.7753,3.7936,3.834,3.7514,3.6762,3.6009,3.5119,3.4376,3.3807,3.3807,3.3807,3.3807,3.3807,3.3807,3.3807,3.3807,3.3807,3.3807,3.3807,3.3807,3.3807,3.3807,3.3807,3.3807,3.3807,3.3807,3.3807,3.3807,3.3807,3.3807,3.3807,3.3733,3.3697,3.3697,3.3632,3.3632,3.3697,3.3632,3.3632,3.3697,3.3623,3.3595,3.3621,3.3621,3.3272,3.2562,3.328,3.3316,3.264,3.3374,3.3742,3.1787,3.2039,3.2716,3.4329,3.5029,3.5872,3.7766,3.8212,3.867,4.0304,4.0891,4.1497,4.2782,4.3277,4.3497,4.3497,4.3612,4.3693,4.3693,4.3693,4.3693,4.3693,4.3563,4.3497,4.3497,4.3497,4.3497,4.3497,4.3497,4.3497,4.3497,4.3497,4.3497,4.3497,4.3497,4.3259,4.2782,4.2782,4.2525,4.2047,4.1735,4.1167,4.0377,4.0047,3.946,3.8707,3.8707,3.8707,3.8707,3.8707,3.8707,3.8707,3.8707,3.8707,3.8707,3.8707,3.8707,3.8707,3.8707,3.8707,3.8652,3.8322,3.8432,3.8358,3.656,3.5771,3.5349,3.4523,3.4045,3.3807,3.3807,3.3807,3.3807,3.3807,3.3807,3.3807,3.3807,3.3807,3.3807,3.3807,3.3807,3.3807,3.3807,3.3807,3.3807,3.3807,3.3807,3.3807,3.3807,3.3807,3.3807,3.3807,3.3807,3.3807,3.3807,3.3807,3.3807,3.3807,3.3807,3.3807,3.3807,3.3807,3.3807,3.3807,3.3807,3.3642,3.333,3.3642,3.3642,3.333,3.3642,3.3807,3.1562,3.185,3.2539,3.4286,3.5206,3.6167,3.8041,3.8465,3.8953,4.0749,4.1111,4.1589,4.3185,4.3497,4.3497,4.3497,4.3497,4.3497,4.3497,4.3497,4.3497,4.3497,4.3497,4.3497,4.3497,4.3497,4.3497,4.3497,4.3497,4.3497,4.3497,4.3259,4.3149,4.3149,4.291,4.2525,4.1956,4.1956,4.1662,4.1111,4.0873,4.0451,3.9882,3.9643,3.9239,3.8707,3.8707,3.8707,3.8707,3.8707,3.8707,3.8707,3.8707,3.8707,3.8707,3.8707,3.8707,3.8707,3.8707,3.8707,3.8707,3.8707,3.8707,3.834,3.634,3.5587,3.522,3.4394,3.399,3.3807,3.3807,3.3807,3.3807,3.3807,3.3807,3.3807,3.3807,3.3807,3.3807,3.3807,3.3807,3.3807,3.3807,3.3807,3.3807,3.3807,3.3807,3.3807,3.3807,3.3807,3.3807,3.3807,3.3807,3.3807,3.3807,3.3807,3.3807,3.3807,3.3807,3.3807,3.3807,3.3807,3.3807,3.3807,3.3807,3.3807,3.3807,3.3807,3.3807,3.3807,3.3807,3.3807,3.211,3.2637,3.3176,3.3994,3.5052,3.6237,3.761,3.7893,3.8518,4.0665,4.1111,4.1589,4.3185,4.3497,4.3497,4.3497,4.3497,4.3497,4.3497,4.3497,4.3497,4.3497,4.3497,4.3497,4.3497,4.3497,4.3497,4.3497,4.3497,4.3497,4.3497,4.2745,4.2304,4.2304,4.1552,4.113,4.113,4.113,4.113,4.1111,4.0286,3.99,3.9863,3.9074,3.8707,3.8707,3.8707,3.8707,3.8707,3.8707,3.8707,3.8707,3.8707,3.8707,3.8707,3.8707,3.8707,3.8707,3.8707,3.8707,3.8707,3.8707,3.8707,3.856,3.7716,3.6909,3.6101,3.521,3.4412,3.3807,3.3807,3.3807,3.3807,3.3807,3.3807,3.3807,3.3807,3.3807,3.3807,3.3807,3.3807,3.3807,3.3807,3.3807,3.3807,3.3807,3.3807,3.3807,3.3807,3.3807,3.3807,3.3807,3.3807,3.3807,3.3807,3.3807,3.3807,3.3807,3.3807,3.3807,3.3807,3.3807,3.3807,3.3807,3.3807,3.3807,3.3807,3.3807,3.3807,3.3807,3.3807,3.3807,3.2087,3.2637,3.3315,3.4636,3.5437,3.6181,3.7182,3.8097,3.9082,4.0309,4.1296,4.2249,4.3296,4.3497,4.3497,4.3497,4.3497,4.3497,4.3497,4.3497,4.3497,4.3497,4.3497,4.3497,4.3497,4.3497,4.3497,4.3497,4.3497,4.3259,4.2708,4.1919,4.1735,4.2286,4.1534,4.0855,4.0286,4.0286,4.001,3.946,3.9203,3.9074,3.9074,3.8817,3.8707,3.8707,3.8707,3.8707,3.8707,3.8707,3.8707,3.8707,3.8707,3.8707,3.8707,3.8707,3.8465,3.8132,3.8132,3.8132,3.8132,3.8132,3.8382,3.856,3.7734,3.6927,3.5991,3.4578,3.4009,3.3807,3.3807,3.3807,3.3807,3.3807,3.3807,3.3807,3.3807,3.3807,3.3807,3.3807,3.3807,3.3807,3.3807,3.3807,3.3807,3.3807,3.3807,3.3807,3.3807,3.3807,3.3807,3.3807,3.3807,3.3807,3.3807,3.3807,3.3807,3.3807,3.3807,3.3807,3.3807,3.3807,3.3807,3.3807,3.3807,3.3807,3.3807,3.3807,3.3807,3.3807,3.3807,3.3807,3.2425,3.3128,3.3797,3.4765,3.5382,3.6016,3.6991,3.7807,3.8798,4.0291,4.1259,4.2194,4.3296,4.3497,4.3497,4.3497,4.3497,4.3497,4.3497,4.3497,4.3497,4.3497,4.3497,4.3497,4.3497,4.3497,4.3369,4.3057,4.3039,4.269,4.1901,4.1093,4.0891,4.1387,4.0616,3.9955,3.9441,3.9441,3.9203,3.8707,3.8707,3.8707,3.8707,3.8707,3.8707,3.8707,3.8707,3.8707,0.0,3.8707,3.8707,3.8707,3.8707,3.8596,3.8382,3.8382,3.7866,3.7183,3.7183,3.6986,3.677,3.677,3.7127,3.7374,3.6553,3.6076,3.5532,3.4174,3.368,3.3606,3.3762,3.368,3.3606,3.3762,3.3807,3.3807,3.3807,3.3807,3.3807,3.3807,3.3807,3.3807,3.3807,3.3807,3.3807,3.3807,3.3807,3.3807,3.3807,3.3807,3.3807,3.3807,3.3807,3.3807,3.3807,3.3807,3.3807,3.3807,3.3807,3.3807,3.3807,3.3807,3.3807,3.3807,3.3807,3.3807,3.3807,3.3807,3.3807,3.3807,3.3807,3.3807,0.0,3.3939,3.4438,3.4539,3.5142,3.5941,3.6921,3.7264,0.0,4.0474,4.1079,4.1644,4.313,4.3442,4.3497,4.3497,4.3497,4.3497,4.3497,4.3497,4.3497,4.3497,4.3497,4.3497,4.3497,4.3442,4.3094,4.2359,4.2249,4.1864,4.1075,4.0272,3.9832,3.9758,3.9012,3.8627,3.8707,3.8707,3.8707,3.8707,3.8707,3.8707,3.8707,3.8707,3.8707,3.8707,3.8707,3.8707,3.8707,3.8707,3.8676,3.8627,3.8627,3.8318,3.7859,3.7859,3.7095,3.6003,3.595,3.5491,3.4907,3.4924,3.5162,3.5331,3.456,3.4636,3.4779,3.3927,3.3447,3.3243,3.3606,3.3465,3.3302,3.368,3.378,3.3807,3.3807,3.3807,3.3807,3.3807,3.3807,3.3807,3.3807,3.3807,3.3807,3.3807,3.3807,3.3807,3.3807,3.3807,3.3807,3.3807,3.3807,3.3807,3.3807,3.3807,3.3807,3.3807,3.3807,3.3807,3.3807,3.3807,3.3807,3.3807,3.3807,3.3807,3.3807,3.3807,3.3807,3.3807,3.3807,3.3807,3.3749,0.0,3.3931,3.5064,3.5761,3.6266,0.0,3.7653,3.8833,3.9441,4.0878,4.2139,4.2506,4.3075,4.3497,4.3497,4.3497,4.3497,4.3497,4.3497,4.3497,4.3497,4.3497,4.3497,4.3497,4.2928,4.2506,4.2304,4.1735,4.1038,4.0212,3.9607,3.9005,3.8389,3.7828,3.7913,3.8707,3.8707,3.8707,3.8707,3.8707,3.8707,3.8707,3.8707,3.8707,3.8707,3.8707,3.8707,3.8707,3.8707,3.8465,3.8099,3.8099,3.7808,3.736,3.736,3.6914,3.6255,3.5645,3.537,3.5186,3.496,3.455,3.4102,3.3924,3.4181,3.4304,3.3136,3.2745,3.2681,3.2777,3.3014,3.3214,3.3302,3.3578,3.3807,3.3807,3.3807,3.3807,3.3807,3.3807,3.3807,3.3807,3.3807,3.3807,3.3807,3.3807,3.3807,3.3807,3.3807,3.3807,3.3807,3.3807,3.3807,3.3807,3.3807,3.3807,3.3807,3.3807,3.3807,3.3807,3.3807,3.3807,3.3807,3.3807,3.3807,3.3807,3.3807,3.3807,3.3807,3.3807,3.3807,3.4359,3.4629,3.4915,3.6496,3.6824,3.693,3.75,3.8114,3.8703,3.9358,0.0,4.1864,4.2231,4.2947,4.3497,4.3497,4.3497,4.3497,4.3497,4.3497,4.3497,4.3497,4.3167,4.2947,4.2947,4.2213,4.147,4.0881,4.0427,3.9758,3.8737,3.8402,3.8044,3.7596,3.7323,3.7451,3.8016,3.8016,3.8016,3.8016,3.8016,3.8016,3.8016,3.8016,3.8016,3.8016,3.8234,3.8201,3.8016,3.8234,3.805,3.7578,3.7578,3.7072,3.6338,3.6338,3.5566,3.4442,3.4071,3.3711,3.3429,3.3455,3.3196,3.288,3.2862,3.3035,3.3115,3.2623,3.2332,3.223,3.2451,3.255,3.2598,3.2809,3.3045,3.3255,3.3494,3.3522,3.3578,3.3762,3.3807,3.3807,3.3807,3.3807,3.3807,3.3807,3.3807,3.3807,3.3807,3.3807,3.3807,3.3807,3.3807,3.3807,3.3807,3.3807,3.3807,3.3807,3.3807,3.3807,3.3807,3.3807,3.3807,3.3807,3.3807,3.3807,3.3807,3.3807,3.3807,3.3807,3.3807,3.3807,3.4911,3.5771,3.6451,3.795,3.7898,3.7739,3.8808,0.0,0.0,0.0,0.0,0.0,4.2073,4.2889,4.3497,4.3497,4.3497,4.3497,4.3497,4.3497,4.3442,4.3314,4.2708,4.2249,4.2139,4.1302,4.0297,3.9191,3.8923,3.8348,3.7246,3.7097,3.7076,3.7076,3.6981,3.6943,3.6943,3.7114,3.719,3.719,3.719,3.719,3.719,3.719,3.719,3.721,3.7614,3.7578,3.721,3.7614,3.7506,3.7076,3.7076,3.6361,3.5307,3.5244,3.4117,3.2577,3.2357,3.1799,3.1269,3.1603,3.175,3.1785,3.1733,3.1733,3.1789,3.2179,3.2004,3.1789,3.2213,3.2074,3.188,3.2316,3.2451,3.2616,3.3014,3.3075,3.3214,3.3625,3.3634,3.3634,3.3707,3.3634,3.3634,3.3707,3.3707,3.3734,3.3788,3.3807,3.3807,3.3807,3.3807,3.3807,3.3807,3.3807,3.3807,3.3807,3.3807,3.3807,3.3807,3.3807,3.3807,3.3807,3.3807,3.3807,3.3807,3.3807,3.3762,3.3707,3.3707,3.368,3.5494,3.6441,3.7119,3.7943,3.8345,3.8618,3.8804,3.9104,0.0,0.0,0.0,0.0,4.1683,4.2682,4.3497,4.3497,4.3497,4.3497,4.3497,4.3497,4.324,4.2561,4.2378,4.2029,4.1368,4.0138,3.9316,3.912,3.8096,3.741,3.7228,3.6764,3.6539,3.6539,3.6097,3.5854,3.5854,3.6764,3.719,3.719,3.719,3.719,3.719,3.719,3.719,3.721,3.7303,3.7266,3.7228,3.7285,3.6981,3.6539,3.6539,3.6155,3.5484,3.4839,3.4423,3.3964,3.2713,3.1799,3.119,3.1252,3.1291,3.1308,3.1291,3.1291,3.1291,3.1389,3.1368,3.1329,3.1389,3.1603,3.1825,3.188,3.2196,3.2517,3.2583,3.2616,3.2745,3.3196,3.2965,3.284,3.3225,3.2965,3.284,3.3243,3.3302,3.3437,3.3762,3.3807,3.3807,3.3807,3.3807,3.3807,3.3807,3.3807,3.3807,3.3807,3.3807,3.3807,3.3807,3.3807,3.3807,3.3807,3.3807,3.3807,3.3807,3.3807,3.3606,3.3302,3.3302,3.3075,3.5796,3.6795,3.7583,3.8518,3.9001,3.9376,3.9859,3.9788,0.0,0.0,0.0,4.1603,4.1603,4.2654,4.3497,4.3497,4.3497,4.3332,4.291,4.2837,4.2543,4.1754,4.1003,4.0429,4.0065,3.8833,3.795,3.7648,3.7115,3.6643,3.6357,3.6097,3.5985,3.5985,3.5739,3.5622,3.5622,3.6079,3.6316,3.6316,3.6316,3.6316,3.6316,3.6316,3.6316,3.6357,3.6643,3.6603,3.6357,3.6643,3.644,3.5985,3.5985,3.5334,3.4286,3.3136,3.2713,3.2611,3.1935,3.1461,3.119,3.119,3.119,3.119,3.119,3.119,3.119,3.119,3.119,3.119,3.119,3.1351,3.1487,3.1487,3.1657,3.186,3.2074,3.2127,3.2332,3.3075,3.3014,3.2952,3.3154,3.3014,3.289,3.2827,3.2809,3.2872,3.3057,3.3087,3.3087,3.3087,3.3087,3.3196,3.3447,3.3494,3.3578,3.3807,3.3807,3.3807,3.3807,3.3807,3.3807,3.3807,3.3807,3.3707,3.3494,3.3494,3.3273,3.2809,3.2809,3.2713,3.5646,3.6682,3.7663,3.8768,0.0,3.9825,4.094,4.0459,3.9914,0.0,4.1198,4.1922,4.1651,4.2506,4.3149,4.2965,4.3094,4.2928,4.2139,4.2029,4.1684,4.0741,3.9726,3.8994,3.869,3.766,3.6843,3.6416,3.6291,3.5942,3.5368,3.552,3.5537,3.5368,3.552,3.5622,3.5622,3.5622,3.5622,3.5622,3.5622,3.5622,3.5622,3.5622,3.5622,3.5605,3.6011,3.5985,3.5622,3.6054,3.5985,3.5605,3.5419,3.4455,3.3017,3.1867,3.1343,3.119,3.119,3.119,3.119,3.119,3.119,3.119,3.119,3.119,3.119,3.119,3.119,3.119,3.119,3.119,3.119,3.119,3.119,3.1291,3.1603,3.166,3.1897,3.2695,3.2809,3.2745,3.284,3.2777,3.2648,3.2384,3.235,3.2384,3.2484,3.2484,3.2484,3.2484,3.2484,3.2648,3.3014,3.3045,3.3166,3.3476,3.3707,3.3807,3.3807,3.3807,3.3762,3.368,3.3652,3.3447,3.3045,3.3045,3.2777,3.235,3.235,3.2282,3.4864,3.5959,3.7016,3.8025,3.8794,3.9765,4.136,4.1072,0.0,4.2026,0.0,4.2859,4.1772,4.2044,4.2139,4.1405,4.1901,4.2121,4.1313,4.1203,4.069,3.9405,3.9173,3.8636,3.7445,3.6781,3.6457,3.6416,3.5941,3.5345,3.4607,3.5233,3.5301,3.459,3.525,3.5622,3.5622,3.5622,3.5622,3.5622,3.5622,3.5622,3.5622,3.5622,3.5622,3.5622,3.5667,3.5622,3.5622,3.5667,3.5605,3.5554,3.4844,3.3677,3.2381,3.2239,3.1782,3.119,3.119,3.119,3.119,3.119,3.119,3.119,3.119,3.119,3.119,3.119,3.119,3.119,3.119,3.119,3.119,3.119,3.119,3.119,3.123,3.1252,3.1389,3.1825,3.1603,3.1449,3.1825,3.1565,3.1449,3.1789,3.1861,3.1986,3.2451,3.2484,3.2484,3.2484,3.2484,3.2517,3.255,3.255,3.255,3.2583,3.3343,3.3807,3.3807,3.3807,3.3606,3.3243,3.3243,3.3014,3.255,3.255,3.2316,3.1861,3.1861,3.164,3.4389,3.5989,3.7464,3.7315,3.8296,0.0,0.0,4.0405,4.0598,4.0941,4.1389,4.1642,4.1348,4.1429,4.146,4.1167,4.1368,4.1159,4.0013,3.9852,3.9352,3.8078,3.7636,3.722,3.6759,3.5776,3.5241,3.5241,3.4618,3.4117,3.3829,3.4083,3.4117,3.3829,3.41,3.4235,3.4235,3.4235,3.4235,3.4252,3.4709,3.4912,3.4912,3.4455,3.4235,3.4235,3.4235,3.4506,3.4878,3.4421,3.4506,3.4793,3.3592,3.278,3.2222,3.1782,3.1427,3.119,3.119,3.119,3.119,3.119,3.119,3.119,3.119,3.119,3.119,3.119,3.119,3.119,3.119,3.119,3.119,3.119,3.119,3.119,3.119,3.119,3.1312,3.1716,3.166,3.164,3.1789,3.166,3.1545,3.1449,3.1411,3.1487,3.1657,3.1694,3.1694,3.1694,3.1914,3.2057,3.2057,3.235,3.2484,3.2484,3.2809,3.2996,3.2996,3.2996,3.2934,3.2777,3.2745,3.2533,3.2057,3.2057,3.1825,3.1411,3.1411,3.1351,3.4389,3.5872,3.7142,3.6796,0.0,0.0,3.8819,3.9619,4.0438,4.0687,4.0632,4.0561,4.0693,4.0726,4.0653,4.0396,4.0561,4.0233,3.8902,3.8722,3.8277,3.7091,3.6603,3.6333,3.6182,3.5129,3.4489,3.4489,3.3829,3.3305,3.3068,3.3271,3.3288,3.3051,3.3288,3.3406,3.3406,3.3406,3.3406,3.3406,3.3677,3.3914,3.4134,3.3643,3.3406,3.3406,3.3406,3.3694,3.4117,3.3609,3.3558,3.3694,3.2679,3.2178,3.1884,3.1376,3.119,3.119,3.119,3.119,3.119,3.119,3.119,3.119,3.119,3.119,3.119,3.119,3.119,3.119,3.119,3.119,3.119,3.119,3.119,3.119,3.119,3.119,3.1291,3.1582,3.1603,3.1603,3.1603,3.1603,3.1507,3.1252,3.119,3.119,3.119,3.119,3.119,3.119,3.1449,3.1603,3.1603,3.1914,3.2092,3.2092,3.2092,3.2213,3.2484,3.2484,3.2417,3.2282,3.2282,3.2074,3.1603,3.1603,3.147,3.119,3.119,3.119,3.4952,3.5507,3.5699,3.6488,0.0,0.0,3.7562,3.8823,4.0478,4.1798,4.0914,3.9882,3.9882,3.9882,3.9625,3.8836,3.9368,3.941,3.8088,3.7911,3.7524,3.6522,3.6374,3.6182,3.565,3.4928,3.4472,3.4472,3.3795,3.3051,3.2307,3.2983,3.3034,3.229,3.3,3.3389,3.3389,3.3389,3.3389,3.3372,3.2628,3.2662,3.3389,3.3389,3.3389,3.3389,3.3389,3.3389,3.3389,3.3389,3.2949,3.2313,3.2313,3.1833,3.119,3.119,3.119,3.119,3.119,3.119,3.119,3.119,3.119,3.119,3.119,3.119,3.119,3.119,3.119,3.119,3.119,3.119,3.119,3.119,3.119,3.119,3.119,3.119,3.119,3.119,3.119,3.119,3.119,3.119,3.119,3.119,3.119,3.119,3.119,3.119,3.119,3.119,3.119,3.119,3.119,3.119,3.119,3.119,3.119,3.16,3.2451,3.2484,3.2264,3.1789,3.1771,3.1603,3.119,3.119,3.119,3.119,3.119,3.119,3.4436,3.5449,3.6276,3.5949,3.6788,3.7536,0.0,3.8442,0.0,4.0002,3.9489,3.9056,3.9056,3.8747,3.8422,3.8186,3.8041,3.7737,3.696,3.6825,3.6586,3.5941,3.5827,3.5562,3.4878,3.4167,3.3508,3.2966,3.2256,3.1749,3.1529,3.1732,3.1749,3.1512,3.1732,3.185,3.185,3.185,3.185,3.185,3.1613,3.1901,3.2594,3.2087,3.185,3.185,3.185,3.2138,3.2611,3.2611,3.2171,3.1512,3.1512,3.1376,3.119,3.119,3.119,3.119,3.119,3.119,3.119,3.119,3.119,3.119,3.119,3.119,3.119,3.119,3.119,3.119,3.119,3.119,3.119,3.119,3.119,3.119,3.119,3.119,3.119,3.119,3.119,3.119,3.119,3.119,3.119,3.119,3.119,3.119,3.119,3.119,3.119,3.119,3.119,3.119,3.119,3.119,3.119,3.119,3.119,3.1329,3.1545,3.16,3.1524,3.1389,3.1389,3.1312,3.119,3.119,3.119,3.119,3.119,3.119,3.5007,3.5699,3.6152,3.5887,3.6446,3.6956,3.6556,3.765,3.8709,3.8497,3.8335,3.8322,3.8652,3.8267,3.7893,3.7893,3.7506,3.702,3.6457,3.6374,3.6104,3.5243,3.5165,3.4878,3.4134,3.3389,3.2763,3.2307,3.1613,3.119,3.119,3.119,3.119,3.119,3.119,3.119,3.119,3.119,3.119,3.119,3.119,3.1427,3.1833,3.1393,3.119,3.119,3.119,3.1444,3.185,3.185,3.1596,3.119,3.119,3.119,3.119,3.119,3.119,3.119,3.119,3.119,3.119,3.119,3.119,3.119,3.119,3.119,3.119,3.119,3.119,3.119,3.119,3.119,3.119,3.119,3.119,3.119,3.119,3.119,3.119,3.119,3.119,3.119,3.119,3.119,3.119,3.119,3.119,3.119,3.119,3.119,3.119,3.119,3.119,3.119,3.119,3.119,3.119,3.119,3.119,3.119,3.119,3.119,3.119,3.119,3.119,3.119,3.119,3.119,3.119,3.119,3.119,3.119,3.6133,3.6017,3.5571,3.6035,3.6137,3.616,3.639,3.6447,3.6604,3.7253,3.7397,3.7606,3.831,3.7965,3.7608,3.7574,3.7236,3.6742,3.6225,3.6195,3.5786,3.4558,3.4387,3.41,3.3372,3.2679,3.2297,3.2188,3.1562,3.119,3.119,3.119,3.119,3.119,3.119,3.119,3.119,3.119,3.119,3.119,3.119,3.119,3.119,3.119,3.119,3.119,3.119,3.119,3.119,3.119,3.119,3.119,3.119,3.119,3.119,3.119,3.119,3.119,3.119,3.119,3.119,3.119,3.119,3.119,3.119,3.119,3.119,3.119,3.119,3.119,3.119,3.119,3.119,3.119,3.119,3.119,3.119,3.119,3.119,3.119,3.119,3.119,3.119,3.119,3.119,3.119,3.119,3.119,3.119,3.119,3.119,3.119,3.119,3.119,3.119,3.119,3.119,3.119,3.119,3.119,3.119,3.119,3.119,3.119,3.119,3.119,3.119,3.119,3.119,3.119,3.119,3.119,3.5343,3.5324,3.516,3.5078,3.4858,3.4614,3.4441,3.4437,3.4833,3.6258,3.656,3.649,3.6308,3.5818,3.535,3.5074,3.5036,3.4848,3.4159,3.4525,3.4584,3.3728,3.3643,3.3355,3.2594,3.2374,3.2036,3.1461,3.1275,3.119,3.119,3.119,3.119,3.119,3.119,3.119,3.119,3.119,3.119,3.119,3.119,3.119,3.119,3.119,3.119,3.119,3.119,3.119,3.119,3.119,3.119,3.119,3.119,3.119,3.119,3.119,3.119,3.119,3.119,3.119,3.119,3.119,3.119,3.119,3.119,3.119,3.119,3.119,3.119,3.119,3.119,3.119,3.119,3.119,3.119,3.119,3.119,3.119,3.119,3.119,3.119,3.119,3.119,3.119,3.119,3.119,3.119,3.119,3.119,3.119,3.119,3.119,3.119,3.119,3.119,3.119,3.119,3.119,3.119,3.119,3.119,3.119,3.119,3.119,3.119,3.119,3.119,3.119,3.119,3.119,3.119,3.119,3.4281,3.4584,3.4832,3.4551,3.4218,3.3961,3.3842,3.3807,3.3991,3.4663,3.529,3.5656,3.562,3.5164,3.4675,3.4262,3.4069,3.3846,3.3457,3.3728,3.3694,3.2949,3.2865,3.2577,3.1833,3.1749,3.1596,3.1224,3.119,3.119,3.119,3.119,3.119,3.119,3.119,3.119,3.119,3.119,3.119,3.119,3.119,3.119,3.119,3.119,3.119,3.119,3.119,3.119,3.119,3.119,3.119,3.119,3.119,3.119,3.119,3.119,3.119,3.119,3.119,3.119,3.119,3.119,3.119,3.119,3.119,3.119,3.1123,3.0768,3.092,3.1123,3.0768,3.0937,3.119,3.119,3.119,3.119,3.119,3.119,3.119,3.119,3.119,3.119,3.119,3.119,3.119,3.119,3.119,3.119,3.119,3.119,3.119,3.119,3.119,3.119,3.119,3.119,3.119,3.119,3.119,3.119,3.119,3.119,3.119,3.119,3.119,3.119,3.119,3.119,3.119,3.119,3.119,3.119,3.3334,3.3934,3.4464,3.4195,3.3961,3.3807,3.3807,3.3807,3.368,3.3273,3.3993,3.4754,3.4911,3.4584,3.4162,3.3765,3.343,3.3169,3.3051,3.3136,3.2933,3.2188,3.2087,3.185,3.1258,3.119,3.119,3.119,3.119,3.119,3.119,3.119,3.119,3.119,3.119,3.119,3.119,3.1072,3.1072,3.119,3.119,3.119,3.119,3.119,3.119,3.119,3.119,3.119,3.119,3.119,3.119,3.119,3.119,3.119,3.119,3.119,3.119,3.119,3.119,3.119,3.119,3.119,3.1106,3.1004,3.1004,3.092,3.0683,3.0074,3.0446,3.0869,3.026,3.0649,3.119,3.119,3.119,3.119,3.119,3.119,3.119,3.119,3.119,3.119,3.119,3.119,3.119,3.119,3.119,3.119,3.119,3.119,3.119,3.119,3.119,3.119,3.119,3.119,3.119,3.119,3.119,3.119,3.119,3.119,3.119,3.119,3.119,3.119,3.119,3.119,3.119,3.119,3.119,3.119,3.3056,3.3481,3.3921,3.385,3.3815,3.3807,3.3807,3.3807,3.368,3.3273,3.3334,3.3242,3.2529,3.2282,3.2063,3.1657,3.21,3.2205,3.1579,3.2036,3.2154,3.1427,3.1343,3.1309,3.1207,3.119,3.119,3.119,3.119,3.119,3.119,3.119,3.119,3.119,3.119,3.119,3.119,3.0565,3.0581,3.119,3.119,3.119,3.119,3.119,3.119,3.119,3.119,3.119,3.119,3.119,3.119,3.119,3.119,3.119,3.119,3.119,3.119,3.119,3.119,3.119,3.119,3.119,3.0768,3.026,3.026,2.9803,2.9245,2.9161,2.9685,3.0226,3.0142,3.0649,3.119,3.119,3.119,3.119,3.119,3.119,3.119,3.119,3.119,3.119,3.119,3.119,3.119,3.119,3.119,3.119,3.119,3.119,3.119,3.119,3.119,3.119,3.119,3.119,3.119,3.119,3.119,3.119,3.119,3.119,3.119,3.119,3.119,3.119,3.119,3.119,3.119,3.119,3.119,3.119,3.2545,3.3269,3.3807,3.3807,3.3807,3.3807,3.3807,3.3625,3.3332,3.2921,3.2598,3.2298,3.1914,3.1842,3.166,3.1269,3.1461,3.1562,3.1241,3.1461,3.1546,3.1241,3.119,3.119,3.119,3.119,3.119,3.119,3.119,3.1021,3.0615,3.0581,3.0395,2.9973,2.9956,2.9956,2.9956,2.9634,2.9634,2.9956,2.9956,3.0176,3.0581,3.0581,3.0818,3.119,3.119,3.119,3.119,3.119,3.119,3.119,3.119,3.119,3.119,3.119,3.119,3.119,3.119,3.119,3.119,3.119,3.07,3.0108,3.0108,2.9583,2.889,2.845,2.889,2.9482,2.9482,3.0023,3.0683,3.1106,3.119,3.119,3.119,3.119,3.119,3.119,3.119,3.119,3.119,3.119,3.119,3.119,3.119,3.119,3.119,3.119,3.119,3.119,3.119,3.119,3.119,3.119,3.119,3.119,3.119,3.119,3.119,3.119,3.119,3.119,3.119,3.119,3.119,3.119,3.119,3.119,3.119,3.119,3.1801,3.283,3.3424,3.3597,3.3734,3.3762,3.368,3.3437,3.3045,3.2433,3.19,3.1564,3.1625,3.166,3.1528,3.1269,3.119,3.119,3.119,3.119,3.119,3.119,3.119,3.119,3.119,3.119,3.119,3.119,3.1021,3.0683,3.0142,2.9922,2.9567,2.9045,2.9011,2.9011,2.9011,2.9011,2.889,2.8687,2.889,2.9279,2.982,2.982,3.0125,3.0649,3.1038,3.119,3.119,3.119,3.119,3.119,3.119,3.119,3.119,3.119,3.119,3.119,3.119,3.119,3.1157,3.097,3.0412,2.9786,2.9583,2.8991,2.8281,2.7706,2.8095,2.8738,2.896,2.955,3.0294,3.1021,3.119,3.119,3.119,3.119,3.119,3.119,3.119,3.119,3.119,3.119,3.119,3.119,3.119,3.119,3.119,3.119,3.119,3.119,3.119,3.119,3.119,3.119,3.119,3.119,3.119,3.119,3.119,3.119,3.119,3.119,3.119,3.119,3.119,3.119,3.119,3.119,3.119,3.119,3.0853,3.1805,3.235,3.3063,3.3522,3.3707,3.3302,3.3214,3.2934,3.2022,3.1271,3.0853,3.1193,3.123,3.123,3.119,3.119,3.119,3.119,3.119,3.119,3.119,3.119,3.119,3.119,3.119,3.119,3.119,3.0548,3.0142,3.0108,2.9431,2.9025,2.9011,2.9011,2.9011,2.9011,2.9011,2.8619,2.7857,2.8636,2.9045,2.9042,2.9042,2.9059,2.9214,3.0581,3.119,3.119,3.119,3.119,3.119,3.119,3.119,3.119,3.119,3.119,3.119,3.119,3.119,3.1072,3.0395,2.9651,2.8907,2.8163,2.7402,2.681,2.6759,2.73,2.8061,2.8789,2.955,3.0294,3.1021,3.119,3.119,3.119,3.119,3.119,3.119,3.119,3.119,3.119,3.119,3.119,3.119,3.119,3.119,3.119,3.119,3.119,3.119,3.119,3.119,3.119,3.119,3.119,3.119,3.119,3.119,3.119,3.119,3.119,3.119,3.119,3.119,3.119,3.119,3.119,3.119,3.119,3.119,2.9568,3.0416,3.1124,3.1862,3.2151,3.2337,3.267,3.25,3.2196,3.1861,3.1001,3.0367,3.0484,3.0497,3.0649,3.1123,3.119,3.119,3.119,3.119,3.119,3.119,3.119,3.119,3.119,3.119,3.1004,3.0531,3.026,2.9685,2.8704,2.8383,2.801,2.7537,2.752,2.752,2.752,2.752,2.7368,2.7097,2.7385,2.7757,2.823,2.823,2.8518,2.9008,2.955,2.977,2.977,2.977,2.977,2.977,2.977,3.0074,3.0497,3.0497,3.0497,3.0497,3.0497,3.0176,2.9719,2.9465,2.8873,2.8197,2.7909,2.7283,2.6691,2.6691,2.6894,2.7385,2.8653,2.9178,2.9685,3.0903,3.119,3.119,3.119,3.119,3.119,3.119,3.119,3.119,3.119,3.119,3.119,3.119,3.119,3.119,3.119,3.119,3.119,3.119,3.119,3.119,3.119,3.119,3.119,3.119,3.119,3.119,3.119,3.119,3.119,3.119,3.119,3.119,3.119,3.119,3.119,3.119,3.119,3.119,2.7992,2.882,2.9616,3.0853,3.1091,3.1243,3.207,3.183,3.1477,3.1588,3.0588,2.9803,3.0057,2.9685,2.9668,3.0666,3.1038,3.119,3.119,3.119,3.119,3.119,3.119,3.119,3.119,3.097,3.0632,3.0142,2.9634,2.889,2.784,2.7588,2.7215,2.6708,2.6691,2.6691,2.6691,2.6691,2.6691,2.6691,2.6691,2.6962,2.7452,2.7452,2.7723,2.8213,2.8213,2.8501,2.9011,2.9011,2.9011,2.9011,2.9011,2.9296,2.9736,2.9736,2.9736,2.9736,2.9736,2.9397,2.8941,2.867,2.8247,2.7739,2.752,2.7097,2.6691,2.6691,2.6691,2.6979,2.8264,2.8975,2.9668,3.0903,3.119,3.119,3.119,3.119,3.119,3.119,3.119,3.119,3.119,3.119,3.119,3.119,3.119,3.119,3.119,3.119,3.119,3.119,3.119,3.119,3.119,3.119,3.119,3.119,3.119,3.119,3.119,3.119,3.119,3.119,3.0954,3.074,3.0549,3.0977,3.1112,3.0878,3.0667,3.0336,0.0,0.0,0.0,3.004,3.039,3.0441,3.148,3.1167,3.0731,3.1104,3.0006,2.9211,2.9973,2.8873,2.8349,2.9837,3.0683,3.1157,3.114,3.1157,3.119,3.1157,3.119,3.119,3.119,3.0531,3.0091,3.0074,2.867,2.7772,2.7755,2.7097,2.6691,2.6691,2.6691,2.6674,2.6657,2.6674,2.6674,2.6657,2.6674,2.6691,2.6691,2.6691,2.6691,2.6691,2.6691,2.7537,2.8943,2.8943,2.8943,2.8943,2.8943,2.896,2.8941,2.8941,2.8941,2.8941,2.8941,2.896,2.8789,2.8027,2.7755,2.7638,2.6911,2.6691,2.6691,2.6691,2.6691,2.6877,2.7655,2.8975,3.0294,3.1021,3.119,3.119,3.119,3.119,3.119,3.119,3.119,3.119,3.119,3.119,3.119,3.119,3.119,3.119,3.119,3.119,3.119,3.119,3.119,3.119,3.119,3.119,3.119,3.119,3.119,3.119,3.119,3.1173,3.1157,3.1157,3.0408,2.9772,2.923,3.0499,3.0811,3.021,2.956,2.8576,2.5397,0.0,0.0,0.0,0.0,0.0,2.9466,2.9617,2.9649,3.0298,2.9651,2.9211,2.9973,2.9313,2.8805,2.9211,2.9922,3.0226,2.9668,3.0514,3.1004,3.048,3.0869,3.119,3.119,3.0531,2.9888,2.933,2.8383,2.7588,2.7029,2.681,2.6691,2.6691,2.6691,2.6437,2.5913,2.642,2.642,2.5913,2.6437,2.6691,2.6691,2.6691,2.6691,2.6691,2.6691,2.6928,2.7334,2.7334,2.7334,2.7334,2.7334,2.7655,2.8146,2.8146,2.8146,2.8146,2.8146,2.7774,2.7283,2.708,2.6996,2.6962,2.6759,2.6691,2.6691,2.6691,2.6691,2.6996,2.8315,2.9381,3.0294,3.1021,3.119,3.119,3.119,3.119,3.119,3.119,3.119,3.119,3.119,3.119,3.119,3.119,3.119,3.119,3.119,3.119,3.119,3.119,3.119,3.119,3.119,3.119,3.119,3.119,3.119,3.119,3.119,3.0683,3.0224,2.9819,2.9104,2.8471,2.7956,2.8669,2.8751,2.819,2.7996,2.7496,2.4716,2.5282,2.6022,2.6523,0.0,0.0,2.8374,2.8353,2.8332,2.9414,2.9296,2.911,2.955,2.9279,2.9011,2.9011,2.9347,2.9482,2.9042,2.9719,3.0108,2.9685,3.0294,3.0615,3.0294,2.9888,2.9313,2.8552,2.7791,2.7165,2.6708,2.6404,2.6234,2.6234,2.593,2.5575,2.5152,2.5558,2.5558,2.5152,2.5879,2.6234,2.6251,2.6556,2.6691,2.6691,2.6691,2.6691,2.6691,2.6691,2.6691,2.6691,2.6691,2.6962,2.7351,2.7351,2.7351,2.7351,2.7351,2.7063,2.6691,2.6691,2.6691,2.6691,2.6691,2.6691,2.6691,2.6691,2.6691,2.6979,2.818,2.8822,2.9347,3.0091,3.0514,3.0734,3.0734,3.097,3.119,3.119,3.119,3.119,3.119,3.119,3.119,3.119,3.119,3.119,3.119,3.119,3.119,3.119,3.119,3.119,3.119,3.119,3.1072,3.0768,3.0521,3.0275,2.9956,2.9326,2.8841,2.8502,2.7784,2.6985,2.6154,2.7316,2.7405,2.6582,2.6345,2.5889,2.4201,2.4857,2.562,2.6233,2.623,0.0,2.7659,2.7229,2.6962,2.8279,2.8634,2.8665,2.8713,2.876,2.876,2.8629,2.871,2.8831,2.8856,2.8924,2.8991,2.8901,2.9559,2.9707,2.8996,2.8861,2.8491,2.7681,2.696,2.6505,2.6421,2.5848,2.5461,2.5344,2.4799,2.4441,2.4309,2.4425,2.4472,2.4404,2.5118,2.549,2.5507,2.615,2.6454,2.6454,2.6454,2.6454,2.6454,2.6454,2.6539,2.6691,2.6691,2.6691,2.6691,2.6691,2.6691,2.6691,2.6691,2.6691,2.6691,2.6691,2.6691,2.6691,2.6691,2.6691,2.6691,2.6691,2.6691,2.686,2.7621,2.7789,2.801,2.8789,2.9499,3.0006,3.0091,3.0615,3.1106,3.1173,3.119,3.119,3.119,3.119,3.119,3.119,3.119,3.119,3.119,3.119,3.119,3.119,3.119,3.119,3.119,3.1123,3.0801,3.0142,2.9588,2.893,2.8229,2.7664,2.7315,2.7192,2.6397,2.5447,2.4307,2.6103,2.6388,2.5261,2.4759,2.4178,2.4253,2.4652,2.5205,2.5039,2.5222,0.0,2.5605,2.5709,2.5798,2.5797,2.6225,2.6644,2.6863,2.7315,2.7291,2.6194,2.6895,2.7646,2.7986,2.8586,2.8811,2.8307,2.8953,2.914,2.8565,2.7989,2.7332,2.6659,2.5891,2.5264,2.4733,2.4853,2.4559,2.3696,2.4211,2.4048,2.3054,2.4,2.4188,2.3613,2.4357,2.4695,2.4712,2.4847,2.4946,2.4946,2.4946,2.4946,2.4946,2.4946,2.5625,2.6691,2.6691,2.6691,2.6691,2.6691,2.6691,2.6691,2.6691,2.6691,2.6691,2.6691,2.6691,2.6691,2.6691,2.6691,2.6691,2.6691,2.6691,2.686,2.7621,2.7789,2.801,2.8789,2.9093,2.9364,2.9973,3.0226,3.0497,3.1072,3.119,3.119,3.119,3.119,3.119,3.119,3.119,3.119,3.119,3.119,3.119,3.119,3.119,3.119,3.119,3.0666,3.026,3.0125,2.9441,2.8795,2.8213,2.7536,2.6726,2.5911,2.4737,2.4,2.3767,2.4137,2.4197,2.3963,2.3833,2.3729,2.4358,2.4838,2.5299,2.4704,2.4914,0.0,0.0,2.5288,2.5346,2.5459,2.5801,2.6003,2.5879,2.6117,2.623,2.5915,2.607,2.6324,2.65,2.7443,2.7977,2.7697,2.7989,2.8012,2.7368,2.7016,2.6519,2.5798,2.5413,2.5061,2.4708,2.4216,2.3719,2.3189,2.2883,2.2455,2.1858,2.2455,2.2566,2.2219,2.296,2.3403,2.3625,2.4009,2.432,2.4506,2.4506,2.4506,2.4506,2.4506,2.4946,2.5592,2.5592,2.5812,2.615,2.615,2.6387,2.6691,2.6691,2.6691,2.6691,2.6691,2.6691,2.6691,2.6691,2.6556,2.6297,2.6016,2.5928,2.6026,2.6389,2.6488,2.6623,2.7003,2.7587,2.8081,2.8185,2.8683,2.9259,2.961,2.9677,3.0007,3.1016,3.119,3.119,3.119,3.119,3.119,3.119,3.119,3.119,3.119,3.119,3.1055,3.0683,3.0311,2.9786,2.9008,2.8127,2.7388,2.6727,2.5863,2.5108,2.4536,2.3932,2.3595,2.3595,2.3595,2.3595,2.3595,2.3595,2.3595,2.4495,2.503,2.5366,2.4711,2.4838,2.5124,0.0,0.0,0.0,2.4975,2.5182,2.5138,2.4515,2.4646,2.4955,2.5258,2.5139,2.4902,2.4642,2.58,2.674,2.6825,2.7021,2.6925,2.6346,2.6088,2.567,2.4958,2.4894,2.4847,2.472,2.3607,2.2841,2.2627,2.1563,2.0975,2.0862,2.0959,2.0991,2.1007,2.1584,2.2053,2.2391,2.3127,2.3632,2.3944,2.4022,2.4069,2.4069,2.4069,2.4069,2.4086,2.4404,2.4847,2.5389,2.5389,2.5845,2.6488,2.6488,2.6573,2.6691,2.6691,2.6691,2.6691,2.6691,2.6453,2.6033,2.5486,2.5335,2.5335,2.5221,2.5221,2.5221,2.5221,2.5978,2.664,2.6382,2.7104,2.7876,2.8007,2.804,2.8665,3.0656,3.0987,3.0931,3.0853,3.105,3.11,3.087,3.0931,3.0987,3.0987,3.0852,3.0492,2.9808,2.9585,2.8942,2.759,2.6635,2.5774,2.5082,2.4116,2.3595,2.3595,2.3595,2.3595,2.3595,2.3595,2.3595,2.3595,2.3595,2.3595,2.4654,2.4817,2.4873,2.4779,2.4853,2.4665,2.3702,0.0,2.3194,2.1859,0.0,2.2207,2.1401,0.0,0.0,2.1538,2.2722,2.3413,2.2264,2.3732,2.5075,2.5567,2.6137,2.6503,2.6542,2.5485,2.4505,2.3839,2.3794,2.3553,2.3009,2.2632,2.1941,2.1016,2.0989,2.0797,2.0382,2.0797,2.0991,2.0991,2.1071,2.1151,2.1215,2.1642,2.1906,2.195,2.2387,2.2564,2.2564,2.2564,2.2564,2.2682,2.3985,2.4557,2.4611,2.4611,2.5084,2.5727,2.5727,2.615,2.6691,2.6691,2.6691,2.6691,2.6691,2.6657,2.6505,2.6033,2.5924,2.5815,2.5335,2.5221,2.5221,2.5221,2.5323,2.5587,2.619,2.6422,2.6704,2.7356,2.7485,2.807,2.9905,3.0226,3.0056,2.9596,3.0459,3.078,2.9639,2.9923,3.0226,3.0226,2.9634,2.9013,2.8461,2.7805,2.7153,2.6493,2.5763,2.5068,2.4511,2.3921,2.3595,2.3595,2.3595,2.3595,2.3595,2.3595,2.3595,2.3595,2.3595,2.3595,2.451,2.4623,2.4623,2.4623,2.4503,2.4288,2.3928,2.3542,2.313,2.2671,0.0,0.0,0.0,0.0,0.0,0.0,2.0914,2.1175,2.0288,2.1513,2.3098,2.4804,2.5198,2.5243,2.4912,2.4717,2.4343,2.3655,2.3595,2.349,2.3236,2.242,2.1741,2.1291,2.0615,2.0139,1.9929,2.0139,2.0243,2.0243,2.0243,2.0364,2.0583,2.0781,2.1007,2.1244,2.1446,2.1554,2.1554,2.1554,2.1675,2.1965,2.2595,2.3264,2.3849,2.3849,2.4323,2.4917,2.4694,2.5063,2.5628,2.5796,2.5819,2.5819,2.5819,2.5619,2.5303,2.5128,2.4855,2.4552,2.4307,2.4266,2.4266,2.4266,2.4511,2.4751,2.472,2.4988,2.5312,2.5595,2.5642,2.6165,2.7627,2.826,2.846,2.8225,2.8649,2.8788,2.8274,2.8403,2.854,2.854,2.826,2.782,2.716,2.6828,2.6354,2.5686,2.5069,2.4511,2.3964,2.3724,2.3595,2.3595,2.3595,2.3595,2.3595,2.3595,2.3595,2.3595,2.3595,2.3595,2.4373,2.4442,2.4353,2.4353,2.4044,2.3735,2.3714,2.3202,2.2745,2.2769,2.194,0.0,0.0,0.0,1.9442,1.9409,0.0,1.9339,1.9058,1.9961,2.1455,2.3652,2.4501,2.4627,2.3939,2.4328,2.4343,2.3655,2.3595,2.3595,2.3595,2.2383,2.1695,2.1695,2.0393,1.969,1.969,1.969,1.969,1.969,1.969,1.9839,2.0158,2.0246,2.0483,2.0829,2.0926,2.0991,2.0991,2.0991,2.1181,2.143,2.1552,2.2139,2.2908,2.3059,2.3485,2.3953,2.3685,2.4032,2.4677,2.4869,2.5061,2.5221,2.5221,2.4934,2.4592,2.443,2.4116,2.3809,2.3638,2.3595,2.3595,2.3595,2.3921,2.4074,2.3666,2.3921,2.4184,2.4184,2.4184,2.4462,2.5413,2.6404,2.7073,2.6892,2.7192,2.7281,2.6924,2.7032,2.7113,2.7113,2.6937,2.6535,2.5839,2.5791,2.5488,2.4808,2.4389,2.3991,2.3595,2.3595,2.3595,2.3595,2.3595,2.3595,2.3595,2.3595,2.3595,2.3595,2.3595,2.3595,2.4444,2.4264,2.4007,2.4007,2.3533,2.288,2.2317,2.1907,2.1432,2.0563,2.0361,2.0054,1.9132,1.8945,1.8741,1.8238,1.8173,0.0,0.0,1.9496,2.0431,2.183,2.4133,2.5315,2.4612,2.4567,2.4343,2.3655,2.3595,2.3595,2.3595,2.2383,2.1695,2.1695,2.0393,1.969,1.969,1.969,1.969,1.969,1.969,1.9726,1.9711,2.0124,2.0314,2.0348,2.0797,2.0991,2.0991,2.0991,2.1007,2.1055,2.143,2.1628,2.1721,2.2168,2.2517,2.2778,2.2731,2.3372,2.4216,2.4232,2.466,2.5221,2.5221,2.5182,2.5067,2.4552,2.4389,2.4266,2.3709,2.3595,2.3595,2.3595,2.3595,2.3638,2.3595,2.3595,2.3638,2.3638,2.3638,2.3653,2.3668,2.516,2.6149,2.5612,2.6624,2.694,2.5706,2.6027,2.6326,2.6326,2.5702,2.5036,2.4502,2.4461,2.4214,2.3681,2.3638,2.3595,2.3595,2.3595,2.3595,2.3595,2.3595,2.3595,2.3595,2.3595,2.3595,2.3595,2.3595,2.3595,2.2445,2.2072,2.1697,2.1803,2.1566,2.1316,2.1207,2.0703,2.0252,2.0237,1.9192,1.824,1.8184,1.765,1.699,1.6486,1.6693,1.7034,0.0,1.8796,2.0175,2.0897,2.226,2.3024,2.27,2.3142,2.3319,2.3041,2.337,2.3595,2.3595,2.2383,2.1695,2.1695,2.0393,1.969,1.969,1.969,1.969,1.969,1.969,1.969,1.9711,1.9839,1.9909,1.9909,2.0085,2.0139,2.0139,2.0139,2.0311,2.055,2.0682,2.0943,2.1275,2.202,2.236,2.2438,2.228,2.2074,2.1971,2.2417,2.2724,2.2932,2.3233,2.346,2.3554,2.3683,2.3805,2.3837,2.3638,2.3595,2.3595,2.3595,2.3595,2.3595,2.3595,2.3595,2.3595,2.3595,2.3595,2.3595,2.3595,2.4104,2.4453,2.4255,2.4609,2.4713,2.4286,2.4426,2.4495,2.4495,2.4296,2.4074,2.3879,2.3879,2.3794,2.3595,2.3595,2.3595,2.3595,2.3595,2.3595,2.3595,2.3595,2.3595,2.3595,2.3595,2.3595,2.3595,2.3595,2.3595,2.1099,2.0627,2.013,2.0075,1.9915,1.9672,1.9427,1.9031,1.8717,1.879,1.7781,1.6853,1.6669,1.6275,1.5849,1.526,1.5879,1.6663,0.0,1.8988,2.0132,2.0403,2.1268,2.1718,2.1429,2.2441,2.3041,2.2955,2.3707,2.4074,2.3864,2.2637,2.1862,2.1695,2.0393,1.969,1.969,1.969,1.969,1.969,1.969,1.969,1.969,1.969,1.969,1.969,1.969,1.969,1.969,1.969,1.9839,2.0089,2.0246,2.0483,2.0829,2.1554,2.1721,2.1542,2.1286,2.0967,2.0782,2.1201,2.15,2.1759,2.2064,2.2394,2.275,2.3071,2.3379,2.3595,2.3595,2.3595,2.3595,2.3595,2.3595,2.3595,2.3595,2.3595,2.3595,2.3595,2.3595,2.3595,2.3595,2.3595,2.3595,2.3595,2.3595,2.3595,2.3595,2.3595,2.3595,2.3595,2.3595,2.3595,2.3595,2.3595,2.3595,2.3595,2.3595,2.3595,2.3595,2.3595,2.3595,2.3595,2.3595,2.3595,2.3595,2.3595,2.3595,2.3595,2.3595,2.3595]}]]